GFSCGP_500_rhum_000.txt.gz
RH
16 14 15 15 18 16 16 17 16 15 12 17 18 17 14 20 18 17 18 16 15 15 15 19 25 28 29 34 38 38 42 47 51 49 50 53 55 56 56 53 51 54 60 65
15 16 17 16 20 19 18 20 20 20 18 15 19 19 19 20 22 26 26 27 29 33 34 32 38 46 48 56 64 65 66 70 70 64 59 60 61 63 64 64 63 62 63 67
15 15 15 16 18 19 20 22 24 21 24 18 18 19 23 24 24 30 34 36 38 41 39 36 45 53 60 57 58 65 75 79 72 60 52 50 54 59 62 63 65 65 61 64
13 13 13 12 12 16 19 19 20 23 24 25 24 29 32 29 32 37 39 44 44 44 43 42 45 47 45 54 57 54 55 55 50 47 48 51 52 55 64 66 68 69 67 68
16 16 16 15 10 12 16 19 19 22 24 31 35 33 42 34 39 45 41 43 44 39 47 53 50 48 55 58 59 56 56 49 45 41 41 44 45 48 51 58 61 66 66 70
21 20 18 21 13 9 12 18 21 24 28 35 33 36 44 42 53 63 68 52 44 50 74 82 70 68 69 67 67 66 52 48 47 50 50 56 59 59 58 61 64 60 57 58
29 23 20 20 16 12 14 18 23 24 26 30 37 46 38 47 55 66 70 73 72 87 92 75 73 74 75 70 73 65 63 58 61 64 68 79 81 77 72 71 70 68 60 54
27 31 22 18 13 18 21 21 22 26 24 32 38 45 40 45 58 53 61 73 78 74 69 79 74 79 86 86 69 62 62 68 69 66 66 69 74 78 82 77 70 66 66 59
34 32 26 18 20 24 24 26 28 29 31 33 41 49 44 82 69 66 71 72 68 74 77 85 93 93 85 70 66 64 67 71 63 57 56 59 64 69 74 71 70 68 62 48
37 32 33 33 36 37 37 31 30 33 38 37 33 44 52 79 84 96 83 72 68 76 89 88 86 77 66 62 61 68 66 60 56 55 54 52 51 52 60 64 64 67 63 59
40 45 40 36 36 35 36 36 33 37 52 48 51 42 66 71 80 89 89 86 94 97 90 78 67 67 64 63 63 61 60 56 53 50 46 42 40 38 43 58 72 66 59 43
43 44 42 43 44 46 49 49 47 47 46 50 61 42 76 66 77 73 81 82 77 80 76 71 79 90 80 72 72 70 66 61 54 44 37 32 30 37 68 71 64 50 30 24
49 47 50 51 43 42 48 54 51 53 55 60 60 62 78 86 77 70 71 77 82 79 73 70 81 86 82 78 75 73 66 55 45 41 41 43 54 67 63 58 41 20 27 53
44 43 42 41 43 45 56 63 63 56 54 50 54 50 69 58 63 62 54 53 64 62 62 67 69 69 77 81 77 62 52 51 50 52 61 70 62 58 52 36 14 29 65 99
38 40 46 55 57 57 61 63 58 57 59 54 56 56 56 55 52 52 54 55 51 55 62 74 75 88 91 79 58 48 48 51 54 56 49 45 47 48 26 5 10 62 99 100
55 59 61 64 63 61 62 62 59 56 54 49 47 42 42 45 47 46 61 52 64 80 100 100 98 76 70 58 49 42 39 32 26 38 38 33 38 16 7 27 84 100 97 91
61 56 56 56 58 55 62 54 47 46 49 40 34 34 44 48 49 59 58 56 54 93 100 74 53 56 58 46 40 30 14 25 43 41 33 32 17 21 89 100 100 100 100 100
52 53 52 54 55 50 70 52 51 43 48 51 50 58 55 50 54 65 67 61 67 70 55 54 54 36 25 32 36 20 40 43 41 36 28 14 24 69 100 100 100 100 100 100
62 63 62 58 46 42 69 58 51 46 49 58 61 62 61 72 70 70 66 62 62 62 57 43 26 25 52 72 54 70 85 69 66 24 12 25 86 100 99 95 95 95 99 98
70 71 66 64 59 46 82 69 64 55 51 57 61 59 69 76 66 55 60 66 70 77 64 33 29 41 90 100 68 100 100 97 83 8 25 84 100 100 100 100 100 100 93 79
81 75 78 79 69 61 82 71 68 65 53 56 67 72 72 72 78 80 78 62 43 55 50 61 38 61 94 87 64 92 91 84 11 38 100 100 100 100 100 100 100 91 80 50
82 82 89 70 66 71 75 90 98 88 77 81 76 76 74 80 87 79 52 97 98 39 30 40 34 35 70 82 98 90 58 10 45 100 100 100 100 100 100 99 91 75 42 25
72 95 85 87 67 87 93 99 96 100 92 79 80 83 85 73 53 36 47 58 32 41 78 69 57 89 100 100 83 24 10 52 99 100 100 100 100 100 95 85 55 26 18 16
78 91 81 92 90 92 96 100 100 100 89 89 69 54 49 32 21 89 100 100 79 47 61 100 100 100 94 98 66 18 71 95 100 100 100 100 96 91 62 23 18 17 16 16
88 83 91 86 93 76 94 90 68 63 66 47 48 68 92 42 18 14 48 64 48 53 90 100 100 100 92 34 27 80 97 100 100 100 100 95 72 30 17 18 17 15 14 13
88 83 80 68 88 66 46 40 39 35 24 40 51 91 42 16 22 28 46 73 91 95 100 86 82 56 18 40 88 100 100 100 100 100 82 30 19 20 16 15 16 19 25 27

GFSCGP_500_rhum_003.txt.gz
RH
15 16 15 18 17 17 21 19 19 16 12 16 16 16 17 17 17 19 20 22 27 29 30 27 29 37 55 62 63 63 58 58 55 51 49 47 49 48 45 40 39 42 47 52
16 17 15 17 17 17 19 21 21 18 15 14 16 18 21 21 20 21 21 24 31 37 38 34 40 50 68 58 57 58 62 61 63 62 59 56 55 51 51 55 49 42 42 46
13 13 14 13 13 14 14 17 18 22 24 18 22 25 27 26 27 28 29 32 36 40 42 47 58 70 60 56 60 64 66 60 54 51 49 49 52 47 48 48 48 47 46 50
12 13 14 12 10 12 14 16 17 20 22 23 29 32 32 30 30 32 35 38 42 39 45 45 53 54 56 57 58 61 57 55 50 48 51 51 49 44 42 41 42 45 47 46
22 17 17 17 14 11 14 14 19 22 24 27 28 31 31 29 30 30 38 40 40 37 34 39 43 53 67 73 77 71 63 55 53 51 52 51 49 47 46 46 43 45 48 51
28 28 22 20 16 10 12 16 24 24 23 25 27 27 24 28 32 36 38 45 44 48 54 56 67 78 76 69 66 56 53 55 54 56 55 50 49 48 47 48 48 50 51 55
21 24 28 26 21 16 12 13 20 22 24 24 22 22 26 34 46 57 62 56 57 68 69 69 66 61 67 65 55 62 66 61 55 50 50 52 54 55 54 53 52 52 52 51
26 25 29 28 25 18 16 22 24 27 23 22 25 31 34 38 46 53 52 54 58 53 58 61 64 76 81 67 72 69 58 54 54 57 59 56 58 60 61 58 52 46 39 34
36 35 34 31 24 19 19 22 25 24 22 26 38 48 42 44 58 45 52 48 46 53 59 59 65 74 71 69 58 49 52 52 50 51 54 63 66 63 60 54 46 41 38 36
38 35 33 30 26 25 25 28 28 27 31 31 32 47 49 48 39 49 42 43 52 61 66 67 68 74 74 61 44 44 50 50 57 63 65 62 62 54 46 42 41 41 42 40
47 45 37 38 38 38 38 36 32 32 36 36 34 32 55 45 45 48 57 65 69 72 74 65 60 70 60 50 46 41 45 62 58 60 64 62 46 32 27 40 46 54 40 17
48 48 46 44 45 45 40 38 37 35 36 39 43 38 60 52 50 57 60 60 64 63 62 62 49 48 55 46 46 46 54 54 57 60 58 46 29 31 35 37 29 21 15 21
47 45 44 42 40 44 44 47 52 45 47 50 49 56 55 58 57 52 50 53 50 44 35 35 36 38 39 50 72 94 100 69 76 65 54 35 32 40 16 28 24 9 17 14
43 43 42 44 48 59 65 65 63 53 47 47 50 41 52 44 38 35 35 35 35 35 37 44 49 47 44 56 90 100 66 60 51 40 33 32 46 34 54 80 57 7 14 34
40 45 52 56 64 62 56 55 55 53 56 46 50 47 44 39 36 40 43 43 44 51 54 62 58 51 48 53 66 58 42 30 25 23 35 54 83 34 35 44 12 10 54 90
70 58 52 49 49 48 51 64 65 62 64 57 52 50 49 48 49 53 59 62 61 61 66 64 59 62 69 59 67 62 33 20 33 27 27 29 29 31 50 32 24 100 100 100
75 76 70 63 57 60 68 69 63 59 69 63 53 54 55 60 70 76 79 78 76 80 72 75 78 69 42 28 28 52 57 66 34 28 56 80 82 19 8 53 100 100 100 100
71 71 70 65 61 60 77 62 58 55 62 65 58 66 71 72 73 79 74 67 75 74 73 68 39 25 54 89 100 100 90 98 87 57 53 80 88 13 42 99 100 100 100 100
80 77 68 62 63 54 70 74 63 53 47 68 60 65 68 75 73 74 73 66 60 56 42 30 39 71 93 100 100 92 68 74 73 62 66 48 41 36 93 100 100 100 100 99
90 85 78 73 70 53 80 82 68 60 45 55 58 63 76 85 64 57 51 56 42 39 31 18 88 95 100 100 100 87 46 48 52 40 29 34 90 100 100 100 100 100 100 100
94 89 85 86 75 63 88 70 68 66 66 56 71 82 90 78 69 56 43 43 47 36 38 42 61 95 77 97 100 92 22 16 23 17 36 87 98 96 99 100 100 99 87 64
96 87 88 75 79 82 84 75 76 74 59 65 77 70 66 57 42 31 26 25 33 74 100 100 78 41 55 88 100 59 6 6 14 54 95 90 95 100 100 99 79 43 22 18
81 98 81 87 90 100 100 84 78 73 57 68 62 58 56 52 38 27 32 64 69 100 100 71 90 59 71 97 77 14 5 18 78 92 87 99 100 100 79 32 20 22 21 19
87 99 72 98 100 100 98 88 81 77 66 68 67 56 53 50 32 29 81 100 96 52 67 85 79 78 99 95 34 11 39 98 93 94 99 100 87 31 19 23 21 15 13 14
100 92 100 87 92 76 83 85 67 62 63 49 50 46 41 32 29 44 88 100 100 93 92 100 100 96 79 45 18 65 95 94 95 98 96 43 23 25 20 15 14 16 21 25
100 96 98 75 74 69 59 52 98 59 58 56 49 37 31 24 16 19 19 29 74 100 99 82 78 55 25 23 78 87 95 94 98 72 27 27 21 16 16 19 26 31 37 35

GFSCGP_500_rhum_006.txt.gz
RH
14 15 18 17 16 17 18 18 17 15 15 15 16 14 15 17 17 19 21 23 24 26 32 35 35 39 42 51 64 65 60 54 56 53 52 56 61 60 61 60 59 56 55 54
11 12 16 18 18 16 18 19 19 18 17 18 20 16 14 16 20 23 28 31 30 32 34 34 35 44 55 70 76 68 60 62 61 61 62 62 56 53 52 49 48 47 42 38
11 12 13 15 15 14 12 14 16 16 16 18 23 23 25 26 28 29 29 29 30 30 25 30 38 52 50 59 70 72 77 70 59 56 57 48 48 48 42 38 36 35 36 36
17 13 12 14 15 14 12 10 12 14 18 20 22 22 26 24 24 26 27 29 28 26 29 41 50 56 60 63 59 62 59 56 67 68 56 53 45 38 40 40 39 43 45 45
28 26 22 17 14 15 16 13 11 11 18 20 22 23 20 20 20 20 23 26 27 29 41 47 51 54 55 51 56 60 63 69 65 57 51 44 40 38 34 37 36 42 44 50
21 22 22 25 23 17 15 15 14 14 23 23 22 23 17 18 21 23 27 32 37 44 48 50 54 63 62 70 69 62 59 59 57 52 41 36 35 35 38 45 45 51 56 55
14 18 21 21 22 24 23 18 13 15 18 22 20 19 20 22 29 34 38 44 43 48 52 59 60 62 60 58 58 56 54 57 53 42 36 36 55 61 52 51 49 50 51 49
23 24 22 26 28 30 26 21 19 22 21 22 22 26 29 28 34 36 32 36 42 48 51 51 51 50 53 52 49 48 43 39 36 36 39 41 42 46 54 54 56 53 50 40
33 32 33 33 31 28 27 21 23 23 22 22 23 26 30 31 31 32 36 43 47 47 49 50 50 48 42 35 34 31 29 36 47 54 47 51 61 72 82 60 66 62 45 34
40 37 38 34 31 30 32 28 24 22 22 19 26 36 40 38 34 41 47 44 42 44 42 37 35 32 31 31 35 35 37 39 42 48 65 64 93 98 71 60 48 36 35 30
45 44 44 45 37 33 32 32 31 31 32 31 31 35 51 47 48 49 47 45 42 37 35 36 35 38 40 44 45 45 46 45 42 39 41 51 77 71 42 37 35 33 18 10
50 50 48 46 42 40 41 39 39 38 38 41 47 40 56 53 51 47 42 39 37 37 42 48 51 51 47 44 45 47 49 49 49 52 58 64 83 78 89 43 35 22 7 9
41 40 40 41 39 39 40 46 57 53 46 49 50 56 52 54 45 45 44 43 42 46 54 55 53 51 49 50 51 53 59 60 67 65 48 53 59 94 95 61 26 14 8 13
43 48 47 42 37 38 45 56 52 49 46 51 56 50 58 55 52 57 57 55 57 58 50 48 53 54 52 50 53 59 62 60 40 26 42 73 90 100 100 87 30 6 6 33
55 58 65 65 68 65 57 56 56 59 55 52 62 57 66 61 58 53 54 55 55 49 50 54 54 53 55 48 39 43 41 26 47 64 95 100 100 100 96 46 7 5 25 80
59 60 59 57 62 61 60 66 64 67 71 68 65 66 66 55 48 50 59 54 52 59 61 61 56 50 45 36 32 37 30 66 100 100 100 100 86 56 27 5 6 39 100 100
61 65 64 64 61 58 64 61 72 70 74 74 66 59 52 52 55 59 60 57 58 56 54 45 35 32 26 28 36 62 81 100 100 99 54 59 56 38 5 12 45 98 100 100
75 72 68 64 65 64 76 64 65 66 71 79 67 59 55 54 52 57 59 53 57 47 43 41 35 29 30 47 61 97 100 100 99 77 49 88 92 9 15 64 96 95 98 100
70 66 65 61 66 66 74 82 78 70 61 68 64 61 58 51 38 54 68 59 50 47 46 41 36 34 48 75 87 99 93 83 92 94 44 53 12 43 99 98 98 100 100 100
66 64 67 68 76 69 81 85 80 70 59 58 56 56 52 56 46 45 46 51 49 44 46 38 32 43 98 100 100 100 100 99 97 43 29 16 63 92 85 87 90 95 97 77
70 76 78 86 82 71 81 83 78 63 53 51 62 61 58 53 52 51 58 64 49 44 38 34 44 85 100 100 100 97 78 74 30 18 23 71 86 83 85 90 89 50 29 28
72 78 84 77 86 82 80 77 66 62 62 78 73 67 60 74 78 70 65 64 55 43 31 26 50 96 92 58 86 83 39 22 19 33 84 91 93 92 89 47 30 27 19 16
67 79 75 74 76 91 83 79 70 73 76 76 71 65 100 88 87 80 66 50 40 22 38 87 61 42 34 27 32 27 22 23 41 81 92 98 97 57 32 27 19 16 15 16
61 71 60 62 75 83 78 87 83 96 87 79 74 73 73 80 99 60 47 35 14 13 18 80 78 22 23 24 21 22 25 37 79 93 98 83 39 30 21 17 15 18 22 25
84 68 77 67 74 70 78 77 82 84 83 81 71 73 73 56 45 39 19 6 12 20 26 28 31 25 21 20 23 27 37 83 91 97 75 38 25 21 17 18 20 26 34 38
98 95 78 64 68 78 72 73 77 81 77 59 41 37 42 38 23 9 6 13 17 23 34 35 25 18 22 27 29 37 94 95 95 70 34 25 21 18 19 21 30 49 52 71

GFSCGP_500_rhum_009.txt.gz
RH
12 13 14 16 19 20 20 19 17 18 20 19 18 14 14 16 16 20 23 27 30 28 26 26 27 28 32 36 38 38 39 44 44 48 54 53 59 65 62 52 49 43 38 34
11 14 14 16 18 17 17 17 18 18 19 21 20 18 16 20 24 26 28 30 30 27 28 28 28 36 46 44 44 47 44 50 59 63 64 61 58 55 50 41 35 28 25 27
10 10 12 13 14 14 13 13 13 16 16 16 18 18 20 22 22 24 26 27 29 34 33 36 39 41 47 53 61 62 65 73 68 61 56 51 39 31 28 28 26 30 33 31
19 16 13 12 12 12 12 13 11 10 10 13 16 18 20 18 21 23 25 30 33 33 40 41 44 53 55 55 58 70 70 63 54 53 51 44 38 33 38 33 28 28 31 31
26 24 23 21 20 16 13 12 11 10 9 9 16 19 17 17 23 26 22 24 30 37 43 45 49 53 50 50 52 51 57 58 55 49 47 45 42 35 29 30 30 33 36 36
20 18 18 19 20 19 20 17 17 15 12 11 18 18 17 22 25 23 23 29 38 43 43 43 44 47 50 54 57 62 62 57 56 55 49 34 30 34 38 48 54 58 56 54
13 12 12 14 18 20 20 21 21 18 14 15 17 21 23 23 23 22 32 37 40 43 45 49 52 52 52 50 50 50 45 44 39 37 38 36 38 40 40 42 42 44 56 71
20 26 26 28 25 24 26 27 25 20 17 19 22 23 22 23 31 33 33 38 41 45 50 49 46 44 42 39 38 39 38 38 38 39 41 46 48 51 57 63 63 63 57 54
29 34 36 36 35 32 34 30 30 29 27 25 23 24 29 37 37 39 43 47 48 48 46 43 40 39 33 31 34 36 40 43 47 51 53 56 62 65 64 59 59 68 68 68
34 31 32 34 34 33 34 29 28 27 27 27 30 32 45 55 53 46 47 49 46 44 39 36 36 34 34 38 42 48 48 49 50 50 52 58 60 57 64 71 74 51 53 52
36 41 44 41 40 40 40 39 39 37 35 36 34 35 51 49 48 44 42 40 41 42 45 47 47 45 50 51 48 45 47 49 50 50 51 49 51 64 73 39 42 60 53 92
44 42 42 40 40 39 39 40 42 44 38 36 35 32 45 51 52 48 47 49 52 55 53 52 58 58 48 45 46 49 50 48 45 40 32 32 40 62 50 48 57 85 100 77
35 37 42 46 46 48 50 50 53 52 48 47 42 56 54 60 57 53 54 54 56 52 52 51 49 48 47 48 54 57 43 36 30 27 27 34 39 52 60 88 97 89 68 52
49 53 56 56 58 53 51 58 66 66 62 59 57 54 76 64 57 57 57 52 51 52 49 46 46 41 39 41 40 39 39 40 35 33 37 67 82 91 100 100 84 68 69 38
45 45 46 50 56 56 52 62 65 63 67 59 61 65 68 60 64 66 60 59 56 53 49 46 38 34 35 40 43 42 40 36 30 58 94 92 98 100 100 87 63 29 19 29
49 46 45 45 54 57 53 64 69 68 67 63 65 66 69 72 69 62 57 52 46 41 38 38 37 40 48 47 47 47 41 34 34 75 100 100 100 59 54 52 21 24 73 91
56 58 57 53 54 50 48 59 70 74 83 82 76 72 68 70 64 59 53 48 46 44 44 46 51 56 54 63 56 44 31 16 15 40 54 29 15 18 18 17 43 81 84 85
58 55 52 45 51 51 59 68 62 69 80 78 72 70 71 65 58 59 54 51 50 54 57 68 78 86 100 75 45 28 12 32 48 26 16 15 17 17 21 72 90 87 91 90
56 51 48 46 49 48 71 79 81 78 75 76 67 66 65 66 55 56 62 63 65 72 98 100 100 100 99 50 26 8 14 25 18 17 15 15 19 34 81 88 88 86 73 44
57 56 52 54 52 53 77 78 76 70 66 64 58 61 56 64 56 62 67 68 65 76 100 98 100 100 62 23 8 11 19 21 17 13 16 24 35 72 91 86 74 44 32 25
64 62 57 57 58 60 68 66 56 54 51 52 58 63 66 63 66 72 72 68 84 100 100 100 94 46 16 10 18 26 22 16 13 21 28 50 95 99 91 61 35 23 20 17
68 62 62 54 63 56 53 50 55 58 60 64 70 70 74 71 75 77 63 50 88 100 94 53 23 10 17 29 32 22 16 14 22 28 55 94 97 86 51 27 23 19 18 18
68 73 74 67 65 68 63 58 58 64 77 62 72 69 68 73 73 56 47 46 50 39 17 11 15 24 36 34 24 17 16 24 27 40 96 98 83 47 27 24 21 20 21 24
78 85 80 70 76 70 72 82 86 81 83 86 88 80 74 70 58 53 57 47 24 15 15 22 31 35 33 28 20 18 25 25 33 90 94 84 51 30 27 23 21 23 29 36
86 87 83 66 74 67 88 94 86 77 81 81 80 75 68 62 64 63 47 32 24 20 24 33 35 30 29 21 22 28 27 29 89 98 89 59 36 31 28 23 23 29 39 61
79 80 68 65 71 72 73 77 84 84 80 72 73 72 71 67 55 48 41 24 23 27 34 33 28 28 21 23 26 26 27 62 97 98 66 46 36 33 29 23 30 50 83 82

GFSCGP_500_rhum_012.txt.gz
RH
15 15 15 16 16 17 18 19 19 19 21 19 16 14 17 19 18 22 27 30 32 34 37 37 33 34 35 34 35 43 46 49 54 52 51 52 60 60 58 57 53 44 39 31
14 15 14 13 14 15 16 16 17 17 18 20 19 21 21 23 25 27 31 34 37 39 36 34 38 43 42 43 46 53 56 62 67 68 65 65 59 54 53 52 47 36 29 25
11 12 12 12 12 12 12 12 11 12 12 16 17 19 20 22 24 28 29 32 32 32 37 44 46 48 48 49 52 58 64 67 67 62 55 52 53 50 41 35 30 30 30 32
16 15 13 12 11 10 9 10 12 12 13 12 14 23 19 22 23 26 29 28 27 27 32 41 45 44 47 47 52 61 61 57 55 55 54 52 48 41 33 30 32 34 35 37
24 24 25 23 21 20 18 18 15 14 14 13 13 22 15 25 27 27 23 22 22 26 34 38 44 48 46 45 49 54 53 51 47 46 52 49 39 33 37 39 41 45 49 53
21 20 18 16 15 18 19 18 18 19 19 18 16 23 14 25 27 26 23 22 23 30 35 42 45 45 47 53 54 52 49 43 42 39 34 35 40 47 50 52 54 60 66 64
15 13 11 12 11 12 18 20 20 22 24 23 22 21 20 24 26 26 24 26 33 36 43 48 50 53 54 52 46 40 40 40 37 39 42 48 55 60 62 63 61 54 48 44
14 23 24 28 28 28 27 28 30 28 27 28 27 25 22 26 28 31 32 35 42 49 50 52 56 54 48 43 42 48 46 44 46 51 59 67 71 72 61 44 33 28 26 26
24 29 32 31 31 33 37 33 35 34 30 29 29 29 33 42 42 44 48 51 53 53 53 51 48 49 53 52 46 42 45 52 60 69 73 69 50 36 37 36 34 32 31 30
23 25 29 32 34 35 37 36 35 36 35 34 35 37 49 47 45 43 47 52 53 52 54 59 59 56 48 41 42 49 54 58 60 49 44 39 39 38 39 39 38 30 24 19
36 38 37 36 37 36 36 36 36 37 40 39 32 33 40 39 47 47 50 56 66 66 65 60 51 48 47 51 57 61 58 51 46 43 42 40 42 43 43 36 18 23 28 24
32 37 40 41 44 45 49 48 49 49 47 51 56 49 54 57 52 52 60 64 63 59 55 52 52 51 53 56 53 52 47 48 46 44 48 52 44 44 25 11 35 52 24 23
38 39 40 40 40 43 48 52 54 54 54 57 53 60 58 59 60 64 67 63 64 66 60 57 53 49 48 45 46 48 51 52 57 64 72 59 42 14 10 11 16 13 12 14
39 43 45 46 48 48 50 58 62 58 56 59 65 57 74 65 66 70 65 73 72 64 60 54 53 51 50 52 57 61 61 67 84 100 99 68 20 9 14 14 11 10 12 15
38 45 41 46 50 46 49 62 60 57 59 59 75 77 76 74 75 76 75 71 67 63 56 53 53 50 53 57 58 64 82 84 90 99 87 46 15 18 14 11 10 12 17 37
25 32 37 41 45 47 43 54 59 59 67 74 79 85 86 79 74 71 70 60 55 52 52 53 48 48 49 51 70 95 100 100 100 79 42 20 19 15 12 10 13 21 45 89
26 35 40 39 42 44 46 45 50 61 72 76 82 79 72 70 65 62 59 58 55 50 44 43 50 53 53 74 99 100 100 99 63 30 20 20 16 12 10 18 24 46 86 93
38 42 41 38 45 44 48 53 58 65 74 74 73 68 62 60 59 53 52 47 44 51 54 55 56 57 51 71 98 99 82 33 18 23 24 19 12 14 22 30 76 96 92 66
46 44 40 42 42 44 51 46 54 54 60 56 63 61 59 58 53 52 53 56 55 56 61 61 55 56 60 55 44 27 18 21 27 27 21 14 19 23 40 88 96 82 47 27
43 41 42 44 51 53 58 51 50 49 52 55 55 55 52 54 52 59 58 64 72 72 63 61 63 59 44 34 25 22 28 34 32 26 17 21 24 30 92 100 69 40 27 25
39 41 46 50 59 56 65 58 51 56 58 56 58 60 61 58 56 58 68 76 73 70 69 65 56 43 30 25 26 34 39 34 28 20 21 26 27 86 97 73 43 30 28 24
38 49 56 55 64 61 65 57 60 60 60 60 62 66 64 66 66 71 71 72 74 67 62 56 44 30 27 30 37 41 33 28 22 24 27 27 61 96 82 50 35 31 28 22
52 57 63 68 71 75 67 66 64 62 64 67 76 74 73 69 78 80 79 75 62 63 58 38 29 28 32 39 37 29 24 22 27 28 27 42 100 92 56 41 34 34 27 22
62 65 61 62 76 66 68 74 74 76 78 83 84 78 75 90 85 80 71 64 65 52 36 29 26 27 30 27 25 21 23 27 26 27 35 100 99 58 48 40 37 34 25 33
85 69 71 71 81 76 80 78 82 82 83 78 78 91 91 80 78 67 66 63 47 36 25 20 22 22 22 20 20 23 21 20 24 35 99 100 62 54 49 43 38 35 26 44
95 88 78 73 78 74 70 70 80 89 91 91 89 81 79 77 66 68 57 44 30 19 17 19 23 22 18 20 20 17 18 21 38 100 100 64 57 56 52 46 42 37 32 49

GFSCGP_500_rhum_015.txt.gz
RH
17 39 81 22 21 27 23 22 25 23 22 21 20 20 16 16 14 17 19 25 27 29 27 22 30 35 39 40 47 50 50 66 53 56 66 62 62 59 58 61 54 52 49 42
17 20 19 18 19 20 19 19 18 18 19 20 19 19 17 20 23 24 25 27 28 27 24 28 31 32 34 47 55 53 54 59 64 68 74 75 67 64 63 56 50 43 35 31
23 15 16 16 16 15 14 13 12 12 12 13 15 18 15 18 20 22 24 24 26 26 26 28 28 31 45 55 59 59 64 64 65 75 72 74 68 62 50 40 36 34 38 43
14 12 12 12 12 12 12 13 13 12 13 52 12 88 59 23 21 26 27 27 27 27 30 35 42 46 48 56 63 66 61 57 61 71 64 59 47 39 36 36 39 44 50 53
26 26 26 26 24 23 21 20 20 20 21 20 18 16 94 57 29 25 28 31 32 32 36 35 32 37 50 58 52 53 57 61 60 50 43 43 42 43 45 48 54 59 59 62
15 19 19 17 15 14 13 14 17 19 20 25 28 24 97 92 35 32 28 30 30 29 28 29 38 43 48 52 58 62 61 50 43 45 47 47 51 55 61 65 68 66 58 43
16 16 13 13 15 17 15 17 26 30 27 86 35 28 62 28 38 34 31 28 28 30 38 46 53 57 56 58 58 55 51 56 47 40 50 55 58 58 57 56 46 41 40 44
14 17 23 27 28 29 30 32 32 34 37 56 32 46 55 32 34 35 37 38 39 48 57 61 63 62 58 58 60 61 59 52 51 53 53 54 54 54 52 47 44 48 51 48
23 24 23 26 27 31 35 35 36 35 32 31 37 46 44 44 45 46 49 48 44 50 59 62 66 61 64 58 52 51 54 56 52 48 47 49 49 52 59 66 66 61 55 68
22 27 33 37 37 38 38 36 36 36 37 38 85 59 99 85 57 41 43 48 57 62 67 65 63 63 60 58 59 57 55 54 51 48 49 52 58 66 62 53 55 64 79 87
25 27 30 34 38 41 42 43 47 47 50 52 47 54 69 66 61 60 58 59 63 65 66 67 67 68 68 64 58 54 51 49 48 50 54 57 60 64 77 75 82 93 78 30
35 35 36 36 38 40 41 44 46 52 56 52 54 47 48 59 66 58 60 64 64 66 72 66 62 64 62 55 54 50 45 44 47 49 49 50 52 62 95 100 93 46 21 11
30 37 35 28 28 31 39 42 47 50 53 54 54 62 75 74 72 71 74 69 71 64 65 68 69 61 56 50 46 41 41 45 49 51 54 68 100 100 100 74 34 17 11 9
25 25 29 32 38 34 37 42 43 42 41 46 54 62 69 88 84 81 80 76 68 71 65 57 54 54 46 38 36 38 42 47 53 60 88 91 74 49 31 22 15 12 10 11
20 23 29 35 39 36 35 44 45 47 50 49 54 60 75 76 74 76 70 66 63 57 55 49 42 38 38 44 48 49 53 59 60 54 46 38 30 23 21 19 16 11 16 20
18 23 34 38 40 32 34 44 42 42 47 51 60 67 60 65 61 61 56 54 53 48 44 41 42 43 41 39 45 55 62 57 53 45 33 23 22 26 25 20 13 18 21 40
18 20 31 38 32 28 32 35 43 45 43 48 54 50 49 58 48 47 47 47 46 45 43 42 37 35 44 60 64 58 57 50 39 28 19 25 27 27 23 16 19 23 36 81
19 19 25 28 25 30 34 43 47 51 48 50 52 49 54 54 52 50 48 48 45 40 46 45 43 58 71 64 62 55 45 35 23 20 26 28 29 24 20 22 24 28 81 82
19 18 23 27 27 36 42 42 50 56 62 55 56 60 61 56 58 60 54 52 48 52 51 53 63 65 63 62 52 42 31 20 22 32 32 30 24 22 27 28 29 76 90 62
20 18 25 25 36 40 48 49 55 58 60 63 62 58 55 57 57 61 56 57 64 64 69 69 63 62 60 50 41 24 19 26 35 30 21 22 24 26 28 29 88 99 67 44
20 21 23 30 45 47 52 53 52 60 72 65 65 63 62 61 53 55 62 68 59 60 64 65 63 58 49 35 19 18 21 24 24 25 25 29 28 30 30 78 100 69 49 40
20 19 25 39 47 48 53 57 54 60 66 63 67 63 57 51 54 59 59 58 64 71 70 65 56 47 29 16 15 16 17 18 20 26 25 22 32 37 76 100 75 53 46 40
22 22 38 43 50 70 66 66 64 69 72 73 66 60 55 53 55 62 66 71 72 70 63 54 43 22 12 13 14 14 14 17 20 18 18 22 29 81 100 76 57 53 47 41
23 31 31 35 64 68 69 71 68 68 67 63 61 61 61 63 70 73 73 73 69 60 52 35 14 12 12 12 14 14 17 17 17 20 24 34 99 100 64 58 56 52 48 44
24 29 33 32 65 70 85 74 78 67 63 62 64 63 65 69 72 72 69 65 57 48 26 12 12 12 13 14 15 18 16 18 22 29 60 100 99 59 48 57 59 56 51 49
28 34 38 55 76 84 81 79 81 78 72 67 68 69 70 70 65 64 58 54 41 18 11 12 12 13 15 17 18 17 18 22 40 91 100 98 57 42 48 64 63 57 56 55

GFSCGP_500_rhum_021.txt.gz
RH
39 14 18 20 45 92 84 78 75 49 20 22 23 36 34 22 22 32 29 25 23 20 20 24 27 28 38 53 46 36 38 50 44 36 47 56 64 59 55 50 47 42 43 45
39 25 54 76 49 47 84 62 47 12 18 22 20 22 24 25 31 36 24 27 27 28 28 31 36 41 42 50 42 48 64 65 46 48 57 63 67 62 60 60 56 51 46 43
23 40 42 30 19 24 21 23 28 23 16 20 20 25 20 25 46 54 51 66 48 34 33 41 46 46 49 42 44 62 63 58 53 56 61 63 63 61 61 58 51 48 48 43
17 18 18 18 18 18 16 15 17 14 15 19 18 27 21 22 21 45 55 81 46 57 51 46 50 49 48 48 55 53 46 58 67 67 66 62 63 63 56 53 53 49 45 38
16 15 15 17 22 21 21 23 21 21 21 21 22 27 90 79 48 44 58 55 81 57 42 31 38 40 40 44 49 54 57 53 54 64 67 65 64 63 61 52 50 45 37 31
21 24 23 21 20 16 14 12 12 12 12 12 23 49 78 90 86 78 75 99 88 93 45 42 43 47 47 49 54 68 75 73 63 56 54 56 52 44 40 35 28 25 26 30
8 11 11 11 12 14 17 19 21 24 59 40 46 84 92 89 65 55 57 59 57 48 51 58 49 45 43 48 57 62 71 75 69 68 62 46 36 30 25 24 26 27 33 38
9 14 16 22 20 22 20 21 21 27 36 48 54 52 80 83 81 88 92 94 86 86 70 65 69 66 66 66 67 68 68 70 63 53 47 39 33 29 29 29 34 42 44 44
18 21 21 22 27 28 30 32 32 33 35 39 45 64 92 95 95 98 99 95 88 89 54 54 67 63 65 66 68 66 52 40 33 30 27 27 27 27 27 32 44 49 50 46
22 24 28 27 30 33 32 32 33 32 33 39 51 68 64 62 76 78 75 98 90 58 58 80 89 83 76 62 47 41 36 31 29 29 28 29 33 38 36 41 50 48 40 25
26 29 34 33 30 25 23 23 26 28 28 32 36 45 54 57 54 59 58 62 62 65 86 88 70 53 49 47 43 40 34 34 32 34 37 39 44 42 40 42 42 28 12 9
34 32 32 28 27 28 24 24 23 25 30 31 32 40 50 51 56 70 99 98 79 90 83 61 61 52 49 48 45 40 37 32 31 31 31 34 44 43 38 35 14 10 10 11
27 27 24 26 28 29 24 21 20 22 24 30 33 47 50 43 47 48 54 70 90 74 52 57 53 52 53 46 43 38 37 36 37 34 42 43 40 37 29 12 10 10 9 10
22 20 19 22 23 21 19 19 20 22 28 25 30 27 42 41 41 52 59 59 52 55 62 58 58 53 45 40 39 38 38 35 38 36 38 35 36 25 9 10 10 10 14 25
16 17 17 17 17 17 16 17 18 18 26 28 29 33 32 42 52 55 57 56 59 60 59 57 51 44 39 37 38 37 41 43 44 43 38 33 17 10 10 10 14 52 65 95
16 16 17 18 18 18 18 18 18 17 21 25 29 35 38 44 55 69 68 62 60 65 56 53 48 47 42 36 38 38 36 41 41 37 33 14 10 11 10 12 29 74 100 100
14 15 16 18 19 19 19 20 18 18 22 23 27 38 44 51 55 50 54 64 68 60 58 53 46 40 36 33 32 33 36 37 37 30 13 10 11 10 10 14 18 32 100 96
14 15 17 20 20 19 19 18 20 19 20 22 31 31 34 51 52 59 67 66 61 58 51 44 39 35 34 36 40 41 39 39 27 11 10 9 8 10 12 14 26 100 100 91
16 17 18 19 19 19 18 18 20 20 20 26 33 34 51 55 62 62 65 63 56 49 42 39 40 45 47 50 47 41 41 27 11 10 8 7 9 12 13 12 17 100 78 85
17 17 18 19 19 18 17 17 19 20 21 23 26 44 51 66 72 72 65 58 52 46 46 47 54 55 54 51 45 43 30 14 10 8 7 10 13 14 14 17 34 74 72 57
17 17 18 20 18 18 19 18 20 21 22 25 33 47 50 61 71 66 56 48 44 42 45 54 54 56 50 49 48 34 16 10 7 6 10 14 17 16 36 80 85 53 57 66
18 18 20 19 19 18 19 19 21 23 26 29 41 49 55 65 69 59 51 49 52 52 54 54 52 52 54 51 39 19 11 8 7 9 13 18 25 59 79 80 64 56 63 64
18 20 21 20 20 23 25 25 23 26 29 41 47 57 70 71 64 57 54 54 49 48 57 57 57 58 54 39 21 13 9 7 9 12 16 24 59 75 80 82 60 58 63 67
19 20 20 21 29 36 36 28 28 30 39 49 60 77 78 72 64 60 54 47 46 62 65 63 63 56 42 25 14 9 7 10 13 14 21 42 72 80 78 89 74 66 67 72
26 24 26 34 37 31 30 32 33 43 55 55 72 84 80 74 68 57 48 53 64 75 76 69 59 46 25 16 10 8 8 12 14 18 25 54 78 72 76 88 76 60 66 77
28 27 29 44 34 36 36 37 48 57 57 73 91 86 79 73 63 56 60 71 82 82 73 63 48 29 18 11 9 8 10 12 13 23 29 60 77 72 78 90 79 64 72 82

GFSCGP_500_rhum_024.txt.gz
RH
40 36 42 42 84 82 90 78 54 48 37 33 50 37 19 17 17 22 26 32 27 28 24 22 31 45 73 71 65 82 61 46 44 36 40 55 51 58 64 66 64 60 56 55
17 18 37 40 46 95 94 82 66 32 34 44 28 24 22 24 21 20 28 36 31 69 63 48 53 67 66 92 85 51 45 39 39 38 46 59 67 72 68 68 68 68 67 64
24 34 26 34 53 50 90 79 59 56 30 29 21 19 18 16 18 26 51 64 91 100 98 92 88 72 76 72 60 58 51 48 50 55 60 64 73 78 79 78 77 72 57 42
30 46 26 24 26 22 23 31 45 33 20 20 18 22 20 18 20 21 22 36 44 100 96 93 79 78 70 56 51 52 56 58 57 57 61 72 80 88 90 86 73 55 44 38
18 18 15 16 20 16 16 16 18 20 23 24 24 27 27 31 27 30 55 100 100 99 99 100 100 95 66 61 63 62 56 54 56 64 72 80 81 72 54 44 35 32 34 31
24 25 27 28 26 25 23 19 16 14 13 13 16 18 33 40 51 78 96 97 90 82 95 95 79 66 89 86 85 67 59 60 64 71 74 56 37 30 26 22 26 34 34 33
20 21 16 13 11 11 13 18 21 21 25 42 34 44 50 86 78 82 66 47 52 59 57 72 84 98 79 62 65 71 72 74 74 54 36 33 29 28 29 34 36 32 30 33
9 10 10 12 16 17 19 20 22 25 28 38 34 45 49 34 61 38 50 67 84 95 99 74 58 83 61 60 66 64 50 41 38 34 32 33 32 29 27 24 24 25 31 35
15 24 20 17 23 26 27 31 31 31 34 36 36 36 35 35 45 66 99 98 94 67 82 72 80 72 70 68 46 43 41 37 33 31 29 28 28 29 27 28 31 36 38 34
22 19 22 25 30 30 25 21 22 24 25 29 26 30 33 41 50 45 46 51 57 56 54 67 73 73 59 45 47 48 46 38 37 37 37 37 35 31 30 31 36 37 36 26
19 25 31 32 25 25 22 22 22 22 23 23 26 29 31 31 31 35 38 39 43 57 70 87 96 65 53 52 55 54 45 41 38 37 38 35 34 34 36 38 36 31 17 11
27 31 29 28 25 25 23 21 20 18 20 22 23 25 24 25 29 36 48 52 65 84 88 81 56 61 64 63 58 49 45 41 40 40 39 35 35 41 40 37 28 17 13 10
30 30 26 26 28 27 24 19 16 14 15 17 20 23 23 23 29 44 48 48 56 68 62 63 69 68 63 60 52 45 41 41 46 43 34 38 44 41 39 32 23 14 9 7
25 26 22 20 23 20 18 16 16 16 16 17 19 20 24 26 34 39 47 56 55 56 63 68 64 62 52 45 42 44 50 45 34 37 47 48 42 38 34 24 14 9 8 10
24 19 17 17 17 17 17 18 18 18 18 18 19 20 24 29 30 36 42 46 49 53 57 59 55 52 52 51 51 48 40 31 37 40 40 34 37 35 24 14 9 7 10 14
18 16 16 17 18 18 19 20 20 19 19 19 19 19 22 25 30 43 52 58 62 63 65 65 62 58 53 50 48 38 31 29 24 35 39 44 39 22 12 8 8 10 12 13
16 16 15 15 16 18 19 20 20 19 18 20 19 19 21 24 33 46 56 65 71 73 74 68 61 56 54 48 39 28 25 26 41 46 48 40 23 11 8 7 9 13 12 12
20 17 15 15 16 18 19 20 20 19 19 20 19 19 20 24 32 41 48 67 78 78 69 62 56 49 46 35 26 28 35 46 49 51 42 25 11 9 8 8 13 18 34 49
22 21 18 18 18 18 18 20 20 19 20 22 22 21 24 27 38 46 49 58 71 69 63 54 49 42 34 30 35 48 48 54 54 45 26 14 11 9 8 14 25 55 69 65
18 19 19 18 18 17 18 19 19 19 23 26 25 25 27 32 38 42 52 69 68 64 58 52 46 38 35 42 56 54 57 59 48 29 16 12 9 9 11 19 57 70 70 63
17 19 19 19 18 17 19 20 20 20 26 34 30 27 30 37 46 48 69 79 75 67 60 54 47 43 46 50 55 60 64 54 38 18 13 11 9 10 16 36 64 74 73 64
19 19 21 20 20 19 20 19 20 35 51 37 29 30 34 44 45 48 72 78 71 64 61 57 53 52 54 56 62 66 60 45 19 13 12 10 11 14 21 58 72 79 81 74
21 22 21 21 21 22 20 21 24 40 42 33 31 35 38 41 44 69 78 76 74 68 66 62 60 61 64 68 72 66 52 24 15 12 10 10 11 18 36 69 70 76 85 73
28 26 24 25 27 24 22 21 28 50 40 32 36 36 42 47 74 77 75 72 68 70 69 70 73 70 77 79 72 59 34 18 13 11 11 11 15 25 56 72 72 79 85 78
36 30 31 24 23 22 25 36 52 37 36 40 40 45 51 81 81 77 72 76 84 85 81 84 80 83 84 79 61 34 21 16 11 12 14 12 22 28 62 80 78 81 86 80
37 33 26 22 25 26 45 54 42 43 46 44 46 54 82 81 81 81 86 88 86 88 90 90 92 87 84 68 42 26 18 12 13 15 17 18 30 30 54 89 86 76 83 81

GFSCGP_500_rhum_027.txt.gz
RH
35 34 32 29 34 30 49 27 44 31 34 52 37 20 16 16 17 21 22 24 20 21 33 59 47 37 39 45 67 96 98 82 78 56 68 44 47 52 55 54 60 72 72 67
14 36 33 52 71 68 72 37 33 33 35 34 19 19 18 16 15 15 14 17 48 71 89 86 90 85 94 94 99 82 65 56 46 42 39 45 50 53 58 68 78 76 66 46
35 37 70 90 85 82 73 69 73 68 56 43 35 18 17 18 18 22 36 40 86 89 75 52 94 96 100 98 90 80 64 50 48 51 66 65 64 71 81 88 79 51 38 30
31 25 25 33 31 36 54 62 71 65 56 56 36 23 16 18 27 52 40 38 62 90 83 89 97 95 97 96 86 76 76 79 80 93 90 77 82 89 86 73 54 55 58 55
30 36 32 25 22 23 23 25 22 18 17 20 23 22 22 22 23 26 41 49 58 93 100 88 77 85 94 94 85 74 88 79 69 72 80 85 96 98 74 56 48 45 44 42
31 25 19 17 16 20 25 26 26 25 23 23 20 18 14 16 21 30 53 77 96 98 95 78 78 92 92 99 98 93 94 82 86 92 94 85 63 52 49 46 40 36 35 32
25 19 23 26 28 25 21 16 16 17 20 20 20 30 36 35 40 54 43 99 84 62 92 100 91 99 98 99 98 100 89 78 73 58 52 47 40 36 33 29 31 32 28 27
24 19 18 13 12 16 20 21 19 21 23 22 26 26 25 29 29 30 33 38 42 60 88 99 95 93 98 89 84 64 69 47 44 43 40 37 32 29 31 32 28 24 24 26
14 13 13 16 19 22 26 29 30 27 22 21 19 19 22 23 24 24 29 32 44 48 50 56 57 52 54 61 63 49 44 44 46 43 39 35 35 36 31 25 21 20 27 34
15 20 23 22 26 29 25 20 21 21 21 22 20 19 20 19 18 23 29 34 39 44 45 43 50 56 59 42 45 52 54 53 49 46 40 38 34 30 24 20 18 22 31 30
21 21 26 29 30 22 21 21 22 20 19 18 16 17 18 20 19 19 22 26 31 35 39 42 41 41 46 54 58 57 56 54 50 45 42 35 31 25 20 17 20 26 27 28
20 28 31 31 26 25 23 23 21 17 16 15 16 17 16 18 20 20 19 19 22 24 29 35 43 50 59 68 65 61 57 54 49 43 39 36 27 20 20 22 28 31 31 34
26 31 31 29 27 27 28 25 18 16 17 16 16 16 17 18 19 20 22 22 23 28 34 40 50 63 67 64 62 61 59 52 45 43 37 27 23 24 26 31 41 41 38 24
31 31 31 25 25 25 22 18 18 18 17 17 18 18 17 17 18 20 23 25 28 34 39 48 55 58 62 65 68 61 53 46 44 39 28 29 30 31 35 46 46 42 25 16
29 27 24 20 18 18 18 19 18 19 18 18 18 18 19 18 19 20 23 28 31 34 39 51 64 70 74 76 69 60 50 46 40 32 34 37 38 43 53 54 46 26 17 10
27 25 20 17 17 17 18 18 19 20 19 19 18 18 19 20 20 21 24 27 30 32 35 46 63 81 84 76 63 53 50 44 37 38 41 42 48 57 59 51 28 16 11 8
26 20 16 15 15 15 16 18 18 19 19 19 18 18 21 23 25 24 26 29 35 38 40 48 72 81 77 65 60 58 51 48 47 47 48 52 59 63 55 30 19 12 9 12
32 26 18 16 17 14 18 18 19 18 19 20 19 20 24 31 31 27 27 30 38 42 43 66 80 75 72 69 64 59 56 52 54 53 54 61 66 59 36 23 14 9 12 21
27 29 26 22 18 17 16 18 19 19 19 21 20 21 30 46 37 29 29 34 42 43 46 64 79 82 76 71 64 61 60 63 61 64 67 71 66 50 35 16 11 10 17 41
18 20 23 21 20 15 16 20 21 20 19 22 21 23 42 44 34 31 33 36 44 44 58 76 82 78 70 67 70 72 71 70 73 71 71 72 61 45 21 12 10 14 26 52
16 19 21 23 20 16 21 22 21 21 22 22 22 24 36 43 37 34 37 42 44 52 78 82 74 70 74 73 78 79 77 74 74 78 76 68 50 23 12 12 12 18 38 63
24 20 21 23 22 17 22 21 22 24 24 23 22 28 51 46 37 40 42 43 48 77 80 76 77 80 79 82 79 78 77 78 84 80 72 51 23 14 13 13 17 27 57 72
28 37 32 30 27 25 24 23 23 24 23 23 27 43 52 41 43 43 42 46 75 86 82 84 85 86 91 85 82 80 85 87 78 73 53 24 15 13 16 15 25 35 66 79
37 47 40 38 37 35 31 28 26 24 24 28 39 46 43 46 45 46 54 74 89 83 84 89 95 97 90 86 86 86 88 78 69 48 26 18 15 18 20 22 32 36 79 91
32 46 46 34 41 35 32 29 24 24 26 31 39 47 49 52 57 64 80 95 93 92 95 99 98 94 86 88 92 90 79 61 42 28 20 17 18 22 24 32 36 37 74 100
46 48 38 29 28 22 22 25 27 31 38 46 51 52 55 58 63 78 98 100 96 94 98 100 100 94 91 95 92 81 54 37 28 21 19 19 22 27 30 36 34 41 76 100

GFSCGP_500_rhum_030.txt.gz
RH
88 85 90 86 64 52 14 18 13 14 11 12 14 19 20 26 26 26 26 23 24 19 23 33 39 34 34 53 57 73 88 97 97 92 70 66 50 49 56 64 68 64 62 61
62 50 53 53 56 32 10 27 34 40 22 25 28 27 24 21 18 17 16 15 19 20 53 63 53 50 70 84 92 98 82 54 64 60 54 61 74 70 64 67 66 68 67 51
56 44 43 48 75 37 65 32 44 58 61 44 39 24 23 19 16 13 13 16 19 25 53 67 70 95 100 95 72 65 82 73 68 81 71 82 68 62 70 70 62 47 40 38
52 44 35 90 66 66 70 65 32 47 56 51 45 33 20 14 15 18 21 22 24 30 40 42 80 91 80 70 56 53 67 91 90 72 73 76 67 76 83 76 59 60 66 67
27 32 38 62 58 28 27 27 26 30 34 27 20 18 14 19 21 21 20 25 34 41 79 74 97 84 68 56 59 88 89 95 95 94 81 88 85 76 59 62 66 58 46 34
38 43 48 43 30 23 20 19 18 18 20 20 19 18 13 13 16 17 24 34 47 38 83 84 66 58 76 74 96 99 98 75 75 88 97 96 82 62 58 49 40 35 32 27
28 31 31 24 20 17 22 24 20 18 14 16 17 18 23 41 33 33 33 34 34 37 49 53 62 64 100 96 82 57 49 62 83 97 70 52 48 47 44 39 37 31 28 25
26 25 24 20 25 25 15 13 18 19 18 21 23 19 19 21 22 22 25 28 32 35 35 34 40 42 41 40 40 43 53 77 84 57 49 48 47 44 42 39 31 28 24 21
30 30 24 16 14 15 22 22 25 29 23 19 19 20 22 20 20 20 20 22 25 29 30 35 36 35 35 38 43 56 69 58 51 53 53 51 51 51 42 34 31 27 25 30
14 13 13 17 21 24 27 30 25 21 20 20 17 17 16 18 18 18 18 18 19 20 21 23 26 32 40 46 50 52 54 62 59 59 59 62 55 40 35 34 32 32 36 39
12 15 30 25 25 31 28 21 22 22 18 16 15 15 16 15 15 16 18 19 20 21 20 20 22 24 28 34 43 52 62 64 64 65 64 53 42 40 40 37 37 38 42 42
15 21 26 28 32 28 22 23 23 21 18 16 16 16 15 15 14 15 16 17 18 21 23 24 23 24 26 32 43 54 64 70 69 69 57 46 48 48 44 45 44 46 44 48
18 22 27 31 29 25 26 29 29 23 17 17 17 16 16 16 15 16 16 18 20 22 24 25 26 26 27 35 48 60 66 71 72 62 54 56 54 52 53 54 55 48 52 56
22 27 30 32 31 30 29 29 25 18 18 18 19 18 17 16 16 18 20 23 24 23 25 27 30 33 35 36 43 54 63 67 67 64 64 62 60 57 56 53 51 55 56 57
23 30 31 29 25 24 22 20 18 19 18 19 19 18 18 17 17 20 24 32 32 26 26 29 33 36 36 34 43 62 75 79 79 74 68 63 64 58 54 54 55 56 61 62
28 31 30 27 23 19 17 18 18 17 17 18 18 18 18 19 18 20 24 36 37 30 28 30 34 38 39 42 61 84 90 87 79 72 71 69 61 60 54 57 58 64 62 35
30 28 26 21 19 17 14 16 16 17 18 18 18 18 18 19 19 19 32 47 42 33 30 32 36 42 44 60 82 88 85 81 78 77 67 67 61 59 66 66 66 59 33 20
29 31 26 22 19 14 12 14 16 18 20 19 19 19 19 20 20 20 35 39 42 38 34 35 39 47 53 75 83 85 82 84 82 77 78 68 65 71 74 70 54 31 21 13
20 25 29 26 21 15 16 18 19 20 21 20 21 20 20 21 21 23 26 39 48 41 38 40 44 51 65 82 87 89 90 87 86 84 73 68 69 75 73 51 30 22 14 14
16 16 16 16 15 11 14 19 20 20 16 23 22 21 22 22 22 24 30 52 54 44 44 46 48 55 80 87 90 94 96 90 87 79 71 69 76 77 48 28 21 15 16 17
30 28 21 17 14 10 16 20 23 23 22 20 22 22 23 26 24 25 46 56 51 49 49 50 60 78 96 100 100 100 94 93 91 78 77 82 74 44 27 19 16 16 20 21
10 14 19 24 24 21 27 27 27 26 26 25 25 26 28 28 26 30 52 51 50 50 55 69 86 100 100 100 98 98 95 94 85 82 84 68 38 24 16 15 17 20 24 31
8 12 11 15 19 27 31 36 37 36 34 32 33 34 30 30 32 40 48 50 46 46 79 99 100 100 100 100 100 97 96 86 84 88 62 33 21 14 15 17 19 24 29 37
8 11 12 14 32 32 32 29 37 38 39 40 37 30 30 32 40 52 52 50 72 99 100 100 100 100 100 100 100 95 88 88 90 58 32 19 12 14 17 20 24 32 36 36
7 14 16 13 26 24 35 38 36 34 32 29 30 33 44 54 56 54 63 88 100 100 100 100 100 100 100 99 100 94 93 93 55 32 18 12 16 19 20 24 33 39 41 42
28 31 22 15 22 19 24 27 30 30 32 38 48 56 57 54 55 80 90 96 99 100 100 100 100 100 100 100 98 94 90 52 31 18 13 18 19 21 25 31 40 47 46 51

GFSCGP_500_rhum_036.txt.gz
RH
97 98 99 99 88 79 70 57 77 54 26 14 17 35 31 37 57 39 32 36 35 28 25 25 23 21 21 22 36 39 66 69 98 98 80 57 42 71 88 69 72 61 49 47
98 100 86 76 69 75 37 61 85 50 32 24 22 30 41 50 44 30 26 26 24 19 16 16 16 16 15 19 39 70 93 94 94 73 52 48 56 56 55 74 69 58 73 85
99 93 92 86 86 82 70 54 63 52 51 46 44 35 33 28 24 21 20 20 20 19 18 20 19 23 28 49 40 40 66 67 48 47 60 65 64 61 70 80 64 67 74 68
94 74 70 62 63 66 64 52 47 83 84 92 49 80 38 26 34 27 21 25 24 20 20 21 32 45 61 82 83 63 67 62 39 28 26 43 76 49 37 41 53 57 61 67
94 83 74 70 57 58 69 41 54 64 55 37 36 36 84 20 20 23 24 21 17 17 23 39 54 49 45 71 80 71 35 27 22 21 25 35 29 27 32 42 53 59 66 66
99 93 92 76 64 72 63 75 64 63 65 28 22 21 43 20 19 16 14 15 24 30 38 41 38 31 27 26 23 22 22 21 21 21 21 22 26 32 41 50 56 58 60 63
82 59 63 47 44 42 47 65 35 24 21 18 19 16 17 21 21 26 26 22 21 21 24 24 20 19 18 19 19 20 20 20 21 21 23 25 29 33 39 48 57 66 72 74
68 39 33 34 50 53 56 39 28 20 24 17 15 20 22 19 16 16 16 16 16 16 17 17 18 20 21 20 21 22 22 22 22 22 24 26 27 28 33 38 50 62 68 68
28 33 36 42 38 34 26 23 26 21 14 22 23 20 18 18 18 17 17 16 17 18 17 17 19 21 22 23 24 24 25 25 25 26 27 27 28 31 37 45 60 67 71 68
32 31 29 28 25 22 25 24 16 19 25 22 21 17 15 15 16 15 15 15 15 15 15 18 22 24 24 25 26 26 26 27 28 30 32 34 37 34 41 60 70 74 64 59
20 22 23 24 25 20 15 13 22 30 23 20 16 16 16 16 16 16 16 15 14 15 18 21 25 28 31 35 36 34 32 30 30 31 34 39 39 45 52 65 70 68 67 67
12 12 13 16 15 13 12 20 30 24 23 20 19 17 17 18 18 18 17 17 16 16 16 18 20 23 27 38 41 41 39 38 34 35 36 40 48 51 54 74 80 79 80 81
8 8 9 10 13 23 23 30 27 22 22 22 22 19 18 18 18 18 18 18 18 18 18 18 18 19 20 29 33 39 43 45 40 39 41 45 53 53 71 88 92 92 88 85
8 9 11 13 23 27 27 30 23 22 23 26 24 19 18 17 17 18 18 18 18 18 18 19 19 20 21 22 30 33 43 48 44 44 46 52 57 79 93 96 94 92 86 74
8 12 14 18 20 25 28 28 22 22 26 24 20 18 18 18 17 18 18 19 19 19 19 19 20 22 23 23 26 31 43 54 50 50 53 61 86 96 98 95 94 86 74 62
14 15 15 19 23 27 28 26 22 24 24 20 18 18 18 17 16 16 16 18 21 20 20 21 22 24 26 28 29 32 48 53 54 58 68 92 100 100 97 95 84 74 66 52
19 19 21 21 23 25 22 26 24 23 22 21 18 20 16 16 16 17 21 24 23 23 24 25 26 27 31 34 34 38 48 56 66 76 95 100 99 98 97 86 75 73 56 54
26 24 22 21 24 23 23 24 25 24 24 23 24 24 25 24 23 23 22 23 26 27 28 30 32 35 39 38 38 44 56 69 79 95 100 98 100 100 97 91 84 67 55 55
21 20 20 19 21 20 23 23 25 25 26 27 22 20 18 18 20 23 25 29 31 33 36 38 43 43 37 39 50 66 68 79 90 96 100 100 100 100 99 98 84 60 58 44
21 18 16 15 15 15 17 17 18 16 15 16 16 18 21 25 31 38 42 44 45 46 50 50 41 37 43 61 68 65 74 86 91 100 100 100 100 100 100 97 76 59 51 19
24 22 18 16 11 7 9 8 7 8 9 8 10 12 16 25 31 37 40 47 52 52 42 39 44 60 73 70 61 76 96 100 100 100 100 100 100 100 99 83 60 59 30 10
8 8 8 8 7 8 7 6 7 7 7 8 10 12 14 20 30 38 42 38 36 39 46 62 72 66 60 68 95 92 96 100 100 100 100 100 100 100 96 72 63 39 13 11
9 10 10 10 10 9 8 7 8 7 8 10 13 17 20 23 26 30 32 34 44 60 65 57 47 64 92 96 90 99 100 100 100 100 100 100 100 97 74 65 47 18 10 16
12 12 11 10 10 8 8 9 8 9 12 16 19 24 28 30 32 38 49 57 56 52 46 52 82 89 91 92 95 92 97 100 100 100 100 100 97 82 71 56 18 11 15 18
12 11 10 8 8 8 12 12 14 18 19 22 25 30 35 44 53 56 48 45 52 69 72 77 89 94 94 97 100 100 100 100 100 100 96 91 87 74 60 24 11 14 20 21
10 9 8 8 12 14 19 20 22 25 29 36 41 44 46 47 45 47 68 82 83 86 89 95 97 96 100 100 100 100 100 100 100 91 88 93 81 62 23 12 13 21 22 26

GFSCGP_500_rhum_039.txt.gz
RH
91 98 92 100 97 100 96 82 71 76 52 32 60 47 26 47 61 66 58 54 42 39 34 28 25 26 22 20 25 27 26 32 67 71 73 84 65 52 40 49 76 62 45 38
97 99 96 100 99 96 86 98 97 74 39 36 61 87 46 32 54 42 33 37 43 35 30 26 23 21 18 18 19 20 20 32 50 64 57 54 33 22 22 42 42 33 33 39
98 100 94 92 79 95 89 99 98 97 42 37 91 96 26 30 34 30 34 30 26 22 20 22 20 21 21 27 34 34 49 60 56 58 51 34 19 20 22 23 24 28 30 33
98 94 93 86 99 87 100 54 55 64 35 82 54 82 98 76 34 30 40 35 23 20 23 24 22 23 32 43 34 29 46 53 44 27 19 18 19 20 23 22 21 20 25 30
98 87 91 76 98 46 96 53 60 80 80 99 95 67 93 97 60 49 33 25 23 24 22 18 21 26 35 34 23 22 18 18 18 18 20 20 22 22 21 20 21 21 23 25
97 80 73 98 66 57 56 60 85 100 90 96 80 96 90 99 100 54 20 20 19 16 15 21 28 30 21 19 19 18 18 19 20 22 22 22 22 22 22 23 24 25 25 27
100 100 78 78 76 67 69 100 100 99 99 75 79 48 73 72 42 28 19 15 14 20 26 22 19 18 17 18 19 20 21 23 25 26 27 28 27 26 28 30 30 30 33 34
97 70 47 52 64 99 54 98 100 94 83 62 72 23 81 22 20 18 19 20 19 17 17 17 16 17 19 20 21 23 25 28 30 32 31 30 29 29 30 31 34 37 40 42
90 99 64 36 59 66 75 48 44 48 22 21 17 83 26 20 18 18 17 16 16 17 17 15 15 18 21 23 25 27 25 29 36 37 36 32 31 31 33 38 38 41 46 47
92 98 70 35 41 42 38 35 26 27 21 18 70 62 83 20 15 16 15 14 14 14 14 14 15 18 20 22 22 21 21 23 36 42 40 39 41 42 47 46 44 46 48 55
93 64 79 27 27 59 31 26 25 19 27 30 26 61 36 15 15 16 16 16 16 16 16 16 16 16 16 17 17 18 19 21 34 41 40 40 45 49 51 48 48 48 59 76
32 67 60 23 20 25 24 18 12 14 28 26 23 26 18 16 16 17 17 17 18 18 18 18 18 18 18 18 19 20 21 22 24 30 34 34 45 53 51 52 54 62 80 87
13 14 13 12 10 12 11 12 14 24 28 22 22 31 21 19 18 18 18 18 18 18 18 19 19 19 19 20 21 21 23 25 26 28 30 32 51 54 55 58 67 87 91 91
10 10 8 9 74 73 16 21 23 29 23 21 21 26 28 22 18 17 17 18 18 17 17 17 19 22 23 23 23 23 26 28 31 35 36 40 48 57 63 68 93 95 92 94
10 9 8 9 10 15 22 26 28 28 21 21 22 29 28 22 18 17 16 15 15 15 17 22 26 26 26 26 26 26 28 33 39 40 42 46 57 63 72 96 100 96 99 99
10 8 8 11 13 17 21 26 28 28 26 25 26 28 26 19 18 17 17 18 20 22 25 27 29 28 27 28 30 32 37 45 42 40 45 65 64 82 98 98 95 99 100 100
13 11 14 15 16 19 21 28 32 31 30 29 26 25 25 20 18 20 24 26 27 24 24 26 29 31 34 37 42 47 50 42 44 55 72 65 88 100 91 98 100 100 100 100
27 25 21 20 24 22 22 26 29 28 29 29 25 26 25 19 24 22 20 18 20 26 31 38 44 49 51 55 56 46 41 50 66 71 64 83 88 89 100 100 100 100 100 99
32 31 30 25 24 22 23 23 27 27 30 22 24 22 20 16 16 19 17 28 31 37 44 52 56 60 59 46 38 46 66 67 66 74 97 84 98 100 100 100 100 100 100 86
31 30 27 25 22 18 16 16 14 17 20 13 16 14 13 12 13 19 15 18 28 38 44 49 46 39 36 42 60 68 67 72 95 90 90 94 100 100 100 100 100 100 89 72
36 32 29 28 24 18 10 7 6 6 6 7 7 7 8 9 11 15 18 20 27 29 31 34 38 47 63 66 58 65 83 90 87 93 97 100 100 100 100 100 100 96 88 65
11 10 9 8 8 7 7 7 7 8 8 8 8 8 9 9 10 13 17 21 25 27 32 47 60 53 49 57 71 75 78 80 92 97 100 100 100 100 100 100 99 98 80 58
10 10 10 10 10 10 9 9 9 8 6 7 8 10 10 14 17 18 24 27 38 46 48 43 41 68 81 81 88 100 94 100 100 100 100 100 100 100 100 100 97 91 54 41
12 13 14 14 12 11 11 10 7 6 7 9 12 16 20 22 25 30 43 45 41 39 50 74 79 80 84 91 100 99 100 100 100 100 100 100 100 100 100 98 93 51 34 21
13 16 15 13 12 11 9 7 8 9 10 15 20 27 35 41 41 36 32 51 74 83 83 82 84 88 93 98 100 100 100 100 100 100 100 100 100 100 100 82 40 31 14 12
16 13 12 11 9 9 9 7 11 14 22 33 43 43 39 35 35 50 75 84 85 86 83 85 88 96 94 87 89 100 100 100 100 100 100 100 100 99 84 39 20 14 14 19

GFSCGP_500_rhum_042.txt.gz
RH
74 100 98 100 95 96 99 97 97 92 61 41 60 87 16 20 41 51 55 33 32 30 30 30 25 22 14 23 39 42 21 23 24 39 45 38 50 52 42 28 20 18 19 22
84 81 97 96 93 98 100 96 92 93 52 26 23 80 21 14 17 28 26 24 30 33 31 27 25 23 13 20 18 28 16 24 49 49 59 56 40 18 18 19 19 21 21 22
94 71 83 100 87 96 100 86 94 91 58 15 85 63 54 27 27 25 20 18 18 18 16 17 17 16 19 18 49 20 23 35 26 31 23 19 19 21 21 22 22 23 22 23
98 87 86 86 100 100 96 88 89 89 73 32 75 96 98 94 67 63 55 31 26 21 15 15 18 24 21 16 32 27 26 21 21 18 19 21 23 24 26 26 28 28 29 28
78 94 96 90 96 96 68 96 88 100 100 90 88 85 70 80 71 60 75 61 39 28 18 16 22 17 20 34 31 24 20 18 19 21 22 24 26 28 29 28 31 33 35 36
90 78 83 98 77 75 54 39 35 61 66 82 92 96 79 82 96 96 99 54 45 27 20 18 17 23 24 24 18 18 18 18 21 23 25 28 29 31 32 32 34 34 37 43
82 79 74 52 54 42 37 62 87 98 92 70 85 70 100 88 70 63 15 17 24 27 20 17 21 18 17 17 19 19 20 22 24 26 28 31 34 38 38 37 39 40 42 50
92 99 71 58 64 82 28 91 86 92 88 93 85 88 74 41 42 48 22 20 18 18 18 16 16 14 15 17 19 21 23 24 26 27 26 27 29 37 40 39 39 40 45 53
87 84 86 56 39 42 97 98 70 86 58 36 37 35 35 64 34 20 18 18 17 16 16 16 16 14 14 15 17 18 18 18 19 19 19 20 21 23 29 32 32 33 35 49
97 78 92 84 39 22 23 40 46 34 22 14 69 82 92 86 62 17 16 16 15 15 15 15 15 16 16 17 17 18 18 18 19 19 20 20 22 24 26 28 30 57 64 52
76 96 97 100 26 24 38 47 26 26 34 24 25 94 86 63 40 16 16 16 16 16 16 17 18 18 18 18 18 19 19 19 20 21 23 23 25 26 31 35 45 54 52 61
29 84 100 79 47 21 28 42 45 22 18 13 17 46 76 63 23 16 16 16 16 18 18 18 18 18 18 16 16 22 27 25 25 26 27 28 29 33 40 39 48 51 68 75
24 22 31 46 54 25 16 18 22 17 12 12 24 27 25 20 22 21 20 17 17 18 18 17 15 14 14 18 22 24 30 30 28 33 34 35 40 49 45 48 56 72 74 92
19 17 18 14 14 99 89 53 13 13 13 18 27 24 42 25 22 20 20 19 18 17 17 17 16 18 22 25 26 24 27 31 34 42 51 52 56 51 50 68 70 72 95 93
10 9 10 11 10 58 26 42 65 30 22 23 27 23 24 37 87 39 22 17 16 20 21 28 33 35 25 24 27 32 37 41 48 55 61 58 63 57 76 64 76 99 94 87
11 11 11 10 9 8 8 10 13 25 26 28 27 24 25 33 27 27 24 22 26 25 30 28 34 34 32 36 43 50 53 57 64 64 50 72 68 76 62 87 95 87 83 86
13 13 12 10 8 8 10 15 20 25 30 32 31 31 32 32 27 17 24 31 27 30 28 24 29 38 48 46 50 57 57 57 47 46 59 73 64 72 97 98 90 97 100 100
25 18 15 14 12 12 15 16 25 28 32 34 32 27 27 26 27 30 25 18 22 16 25 26 27 28 40 39 40 50 40 40 47 65 63 59 82 99 100 86 98 100 97 100
38 28 30 27 22 21 21 21 27 32 35 27 29 31 27 22 22 16 11 12 13 12 13 15 20 29 40 38 35 39 49 61 55 54 75 91 100 100 96 98 100 100 100 100
38 32 34 34 33 29 26 26 26 24 22 16 22 18 14 10 9 9 9 9 11 11 14 20 26 30 31 36 51 67 57 60 81 94 97 100 96 92 80 100 100 100 100 100
35 33 28 28 24 22 19 23 25 20 12 7 7 8 8 9 8 8 10 11 11 19 18 25 33 39 51 53 47 59 83 90 93 96 91 96 100 100 100 100 100 100 100 98
34 33 34 29 27 15 10 8 8 9 9 10 10 9 7 7 9 8 10 19 23 24 30 40 40 41 48 73 84 86 92 95 100 100 100 100 100 100 100 100 100 100 100 100
9 10 11 12 10 10 9 10 9 9 11 10 8 7 6 8 10 14 14 27 40 41 38 34 41 79 88 89 93 97 94 100 100 100 100 100 100 100 100 100 100 100 100 94
11 11 12 12 14 12 11 11 8 11 8 7 7 6 10 15 17 25 40 43 37 32 45 64 77 90 92 87 84 90 99 99 95 98 100 100 100 100 100 100 100 100 95 77
13 14 13 14 13 15 10 8 11 8 8 8 9 9 18 27 39 45 38 31 42 67 71 83 90 83 78 79 82 83 81 80 100 100 100 100 100 100 100 100 84 39 18 16
14 14 14 14 14 16 9 9 9 8 8 11 15 22 39 46 40 32 29 42 72 88 93 88 85 85 82 75 68 66 75 99 100 100 100 100 100 99 77 43 17 14 14 19

GFSCGP_500_rhum_045.txt.gz
RH
99 72 100 67 84 98 99 97 99 74 100 68 46 20 7 12 13 20 19 12 10 9 8 7 8 9 16 15 33 45 57 59 31 36 57 65 50 45 29 21 22 22 24 26
99 81 93 98 97 92 85 88 97 84 98 71 30 14 14 35 14 17 18 15 16 19 16 12 10 8 12 24 25 26 63 54 28 48 28 22 18 19 21 23 25 26 25 27
91 71 66 98 88 96 83 90 99 97 86 47 51 71 59 38 22 27 17 18 17 17 20 17 13 12 10 14 17 34 48 26 38 29 18 18 20 22 24 24 27 27 28 29
70 100 80 95 77 96 87 97 88 82 84 40 72 79 81 83 89 96 59 57 51 58 44 19 21 14 11 14 19 48 29 20 22 18 20 22 22 24 26 27 29 31 33 29
62 89 87 70 71 98 100 73 83 80 88 80 95 81 82 98 90 99 80 44 28 25 17 17 16 16 16 29 25 39 18 18 19 19 21 23 23 25 25 27 28 23 24 26
55 77 73 75 97 84 80 38 83 95 90 89 71 91 97 72 97 94 72 86 50 31 30 24 16 16 23 28 21 21 19 21 21 22 24 25 23 21 19 18 18 19 19 21
68 89 94 100 79 96 71 42 32 32 44 36 94 65 87 88 63 33 35 38 53 25 22 20 18 18 17 18 21 18 21 19 20 20 19 18 18 18 19 19 20 21 23 26
74 89 69 64 100 67 63 41 66 75 74 64 100 78 80 55 51 30 38 20 20 20 18 17 17 17 17 15 14 14 15 16 17 18 18 18 19 20 20 22 23 25 28 30
77 68 97 91 69 61 65 76 64 87 76 67 80 63 46 34 35 80 42 20 20 19 17 15 14 14 15 16 17 17 17 18 18 18 21 22 23 24 25 26 28 30 35 44
71 92 93 98 62 41 41 79 82 48 28 17 28 52 73 56 97 87 58 18 18 17 16 16 16 16 17 18 18 18 17 16 16 23 28 29 30 29 31 34 55 43 55 54
58 77 82 77 96 34 47 46 38 38 22 15 21 74 81 95 92 69 47 18 17 17 16 16 16 17 18 17 16 16 16 19 25 31 33 32 30 50 60 55 54 59 94 100
54 40 51 95 84 35 59 35 40 38 28 31 14 20 59 100 82 65 54 18 17 17 17 16 17 17 16 16 20 33 39 30 23 30 33 36 55 91 73 72 62 64 62 61
60 40 52 65 64 64 62 39 27 26 19 13 11 14 25 41 59 56 34 18 20 21 19 17 16 14 13 16 42 59 54 67 58 39 50 74 100 70 75 63 47 62 68 71
17 18 16 14 33 32 34 45 41 40 22 11 12 15 39 38 29 26 22 20 18 21 20 15 17 19 20 51 66 72 74 76 70 54 57 66 61 66 51 48 63 66 62 94
15 16 19 19 13 13 10 14 23 61 48 21 27 35 37 38 30 34 30 18 18 22 24 28 28 33 70 60 68 85 86 85 55 61 61 53 48 41 52 74 65 72 96 99
17 14 11 8 9 8 9 6 11 14 13 18 32 31 38 32 29 28 25 24 28 35 37 36 32 31 46 71 73 82 54 40 52 53 50 41 51 77 82 68 88 99 96 98
9 10 10 9 10 11 11 10 8 12 16 21 28 30 34 33 25 23 25 29 34 37 35 35 29 25 20 34 79 56 33 35 38 43 51 74 81 75 89 100 100 100 100 100
10 10 16 19 18 18 16 10 12 17 18 24 27 28 31 34 34 34 30 27 25 18 18 19 19 19 20 25 37 32 37 45 48 62 68 66 87 100 100 100 100 100 100 100
22 34 37 34 26 21 20 14 21 24 26 26 28 32 32 35 26 21 19 16 12 11 10 9 10 15 22 26 35 56 58 54 57 63 87 98 99 100 100 100 100 100 100 100
27 33 42 34 25 26 28 31 26 31 28 26 27 24 23 23 16 12 11 10 8 7 8 14 20 28 34 46 51 52 58 78 93 98 100 100 100 100 100 100 100 100 100 100
29 29 29 29 27 26 24 30 31 26 21 24 18 12 11 11 11 10 8 6 6 8 14 19 30 43 45 40 42 65 87 94 95 100 100 98 95 100 100 100 100 100 100 100
30 30 27 24 25 24 23 22 21 18 10 11 11 10 11 11 10 7 5 7 14 17 24 40 46 38 35 52 70 85 95 96 95 96 91 95 100 100 100 100 100 100 100 100
24 27 29 32 26 14 9 8 9 14 14 12 10 10 10 8 7 8 10 10 16 37 48 41 35 45 60 72 87 98 96 92 83 76 69 66 61 53 68 100 100 100 99 68
10 11 11 11 11 9 9 11 12 15 12 10 10 9 8 8 9 11 16 25 38 43 37 29 32 59 90 100 98 92 80 72 58 30 24 24 23 38 82 100 96 52 23 21
13 13 13 14 11 10 10 10 11 13 11 10 10 10 10 10 14 24 39 45 41 33 26 36 71 94 96 88 80 69 47 21 6 4 5 9 17 37 50 32 21 22 23 25
18 17 16 14 14 13 13 14 14 13 11 12 12 12 15 18 27 41 44 37 30 36 70 90 94 92 84 74 52 25 6 4 4 5 6 8 14 20 23 24 24 30 30 32

GFSCGP_500_rhum_048.txt.gz
RH
77 43 39 85 96 100 83 95 91 89 97 58 59 37 16 11 23 41 26 18 20 15 12 14 21 24 18 14 15 18 26 49 65 42 35 65 35 25 19 21 22 24 26 28
83 76 80 81 87 96 89 96 96 81 79 60 46 25 18 12 13 26 44 27 22 29 22 15 17 18 17 18 17 17 20 51 55 30 48 25 19 20 21 22 24 26 27 27
94 87 96 98 97 84 80 72 73 75 77 83 81 37 29 15 15 51 48 24 19 19 18 18 17 18 18 22 23 23 43 48 52 37 23 18 20 22 23 24 25 23 22 20
63 94 95 98 76 79 96 75 69 85 99 96 78 43 28 23 47 54 62 69 41 23 47 28 26 23 19 19 24 36 58 28 55 23 18 19 21 24 25 24 20 19 19 19
64 76 88 88 79 92 66 57 67 93 81 65 27 34 67 56 43 67 61 67 64 26 34 19 26 20 13 13 30 32 46 24 42 35 21 22 22 21 19 18 18 19 19 21
58 56 90 88 79 95 80 66 65 73 71 58 90 52 66 85 77 77 36 69 34 44 49 36 20 19 19 21 28 31 23 19 36 34 19 18 18 19 19 18 19 20 22 23
80 65 86 73 97 76 83 60 64 59 47 50 81 56 66 83 55 52 39 54 38 39 23 16 15 16 17 17 16 20 40 23 18 17 18 19 19 19 19 21 22 24 25 24
93 52 82 84 74 79 91 98 54 56 58 56 58 64 69 79 72 74 43 48 28 20 17 17 15 16 15 22 43 32 40 27 19 19 19 19 19 19 16 17 20 22 23 47
74 62 81 74 83 56 82 86 73 62 47 66 83 68 73 70 49 22 58 64 21 20 17 16 16 16 17 31 32 47 21 18 19 16 18 24 19 12 11 21 31 52 74 85
43 72 84 87 85 77 84 74 78 89 74 55 36 46 39 28 48 66 92 56 19 16 17 17 18 18 19 34 39 24 17 17 18 25 31 47 56 82 76 65 94 96 97 86
49 57 67 82 88 90 47 45 83 60 38 26 20 26 18 42 60 90 77 63 45 16 17 19 19 19 18 18 18 18 17 19 33 52 78 97 90 83 96 100 100 100 100 87
72 74 77 59 58 93 82 29 32 57 90 65 21 18 22 28 55 67 72 58 66 23 20 21 23 20 20 19 20 21 28 45 59 60 74 93 100 100 93 99 89 92 76 56
88 78 74 75 70 83 57 34 22 31 32 29 22 14 17 19 26 32 36 27 24 33 21 22 24 23 19 17 25 34 54 56 68 92 100 100 96 71 93 62 76 78 57 65
95 95 74 52 57 99 61 37 47 33 27 24 21 14 11 15 22 29 28 25 16 17 19 19 15 11 23 29 51 75 50 89 96 88 95 100 81 83 70 57 72 69 69 67
78 70 33 21 28 24 23 17 21 28 39 64 42 21 34 30 32 27 31 25 17 16 19 18 35 29 43 56 44 53 60 78 85 90 95 80 96 67 57 65 66 65 78 91
48 56 23 14 17 26 20 14 9 9 17 15 16 14 27 42 45 32 30 26 23 25 26 22 19 47 41 57 56 56 73 81 88 90 52 80 79 61 75 64 78 93 98 100
35 29 20 18 15 11 9 8 11 12 13 8 10 14 16 27 31 35 37 38 38 36 32 30 30 25 18 21 61 68 75 69 55 58 67 74 77 70 90 93 98 100 99 89
17 14 10 9 9 8 9 12 16 17 11 11 16 18 25 35 44 46 41 36 33 33 29 19 15 13 12 12 15 21 23 32 62 72 61 55 83 100 100 100 94 86 95 100
14 12 11 10 11 17 24 26 24 20 16 14 18 27 34 35 37 36 33 28 25 18 13 14 12 10 9 10 14 32 45 48 45 50 76 96 100 100 99 93 100 100 100 100
33 32 48 30 32 49 48 34 25 26 23 23 28 35 38 34 30 26 24 16 14 14 13 10 8 9 14 30 45 46 40 44 65 81 94 100 98 93 94 87 74 65 77 39
28 32 19 20 28 22 26 30 33 32 28 36 42 38 36 34 22 12 13 13 12 9 7 8 10 15 29 42 41 34 47 74 92 98 98 100 97 76 47 17 4 8 11 12
22 18 18 22 27 23 29 30 30 34 33 37 34 22 13 13 12 12 11 9 8 8 8 11 18 29 39 39 30 38 72 100 100 100 97 76 43 14 5 4 4 5 7 11
14 13 17 28 26 23 25 31 32 25 18 14 14 14 14 12 10 9 9 9 9 11 15 26 40 42 36 31 49 85 100 100 97 82 57 27 6 4 4 5 6 7 9 13
14 11 15 24 26 27 23 13 14 15 15 13 13 12 12 11 11 11 11 11 13 17 30 41 41 32 40 74 93 98 95 87 68 44 21 6 4 5 5 6 7 9 18 29
15 15 12 12 12 12 13 14 16 15 14 14 13 14 13 14 15 13 13 13 19 34 42 38 34 60 81 92 94 88 81 62 37 14 6 5 5 6 7 8 12 23 38 51
18 19 16 16 18 17 16 15 15 14 14 13 14 16 20 19 16 15 17 24 37 42 38 41 66 82 92 90 84 75 52 23 9 6 5 6 6 7 9 14 23 44 59 63

GFSCGP_500_rhum_051.txt.gz
RH
46 38 33 32 42 49 97 88 84 96 88 81 66 48 56 45 47 42 32 28 40 30 19 21 20 21 18 16 19 22 24 27 44 65 52 33 42 29 17 19 21 22 22 22
54 72 70 57 61 63 63 71 98 98 91 85 51 31 14 38 41 37 49 37 31 22 23 20 16 14 13 12 20 34 36 38 66 55 44 40 23 19 21 21 21 21 21 20
72 69 82 89 85 93 100 94 100 94 67 80 80 29 11 24 22 26 22 21 19 23 25 26 24 19 16 14 14 22 50 67 42 42 39 22 19 20 21 21 20 18 18 19
54 59 69 82 78 99 90 74 82 88 74 63 44 36 23 19 13 58 60 72 73 36 46 55 35 32 28 19 18 25 44 70 38 59 44 30 22 26 19 17 17 18 18 19
48 67 65 75 91 98 73 56 71 69 53 91 82 44 22 21 14 45 72 62 62 41 34 46 64 45 40 24 32 34 59 85 49 46 52 52 25 29 17 18 18 16 18 21
47 56 65 80 83 84 56 53 53 68 70 72 62 42 32 50 52 45 45 50 67 39 47 62 31 37 27 43 58 48 61 70 47 33 62 56 23 18 18 17 14 16 20 21
38 47 51 73 74 68 66 51 49 49 63 60 80 54 50 84 67 53 52 19 47 32 28 17 16 18 18 39 47 24 44 72 71 59 58 35 20 18 16 15 18 22 33 38
32 47 53 74 83 74 65 49 45 40 42 47 54 38 42 47 75 51 35 21 21 24 16 16 17 17 18 34 21 40 43 81 72 46 32 18 19 21 24 28 35 54 66 75
52 55 70 78 100 90 71 65 71 66 48 41 68 63 46 56 83 65 34 24 16 18 19 16 16 16 16 16 18 31 71 68 44 19 18 19 28 32 54 66 91 88 78 82
44 68 71 81 92 77 65 63 57 65 56 50 56 61 59 73 62 39 26 63 37 18 17 17 17 18 18 19 19 34 46 41 20 20 26 33 49 62 74 100 96 78 78 81
36 44 73 90 88 97 97 76 62 42 59 62 58 43 36 27 25 22 50 77 64 50 31 18 18 19 19 21 27 23 28 25 25 31 34 55 63 86 81 80 71 78 73 99
30 33 51 73 97 92 98 81 63 31 58 41 28 22 22 22 20 17 20 35 80 72 63 33 22 24 26 26 27 28 27 32 40 53 66 66 80 82 91 100 85 78 88 95
33 32 35 55 76 62 64 82 84 34 22 30 31 26 20 19 16 12 10 11 20 50 74 61 46 27 32 30 26 44 67 79 60 81 75 84 87 90 95 96 95 76 74 72
46 44 30 53 68 96 79 87 71 38 25 22 18 16 16 14 10 9 8 11 12 19 24 25 24 25 23 22 36 59 71 66 63 78 90 79 90 94 90 93 93 72 75 88
31 33 41 81 63 48 55 100 97 63 31 19 16 10 20 13 12 14 14 17 20 25 23 22 20 21 33 29 44 46 59 74 83 81 80 99 86 83 76 80 76 84 87 88
25 49 48 69 42 25 27 52 39 24 20 12 10 6 6 10 15 24 26 27 34 35 32 29 24 24 25 37 48 48 26 45 67 74 71 55 55 46 50 74 60 69 89 93
69 58 49 100 81 46 21 17 22 21 11 7 8 11 10 8 11 16 26 32 41 43 37 31 28 25 18 10 9 8 7 9 18 26 28 41 48 44 48 59 79 88 95 93
41 79 76 65 59 36 16 16 12 10 10 10 14 16 10 12 16 21 27 35 35 35 35 33 26 16 10 10 9 9 10 10 16 33 45 53 40 46 69 88 96 99 94 100
28 34 35 34 24 17 11 10 13 16 22 23 23 18 13 16 23 35 40 38 36 31 25 18 10 10 10 8 8 8 12 25 41 44 38 34 47 78 98 99 97 89 72 40
21 40 46 21 13 12 19 24 37 54 43 34 26 24 27 33 38 36 34 31 30 23 12 12 11 9 8 8 9 14 24 37 40 32 35 66 84 93 97 91 74 37 10 6
27 36 38 37 40 32 51 28 47 35 31 40 40 42 37 35 34 31 32 23 14 14 13 11 9 9 9 12 17 32 40 37 32 48 78 98 100 97 84 54 20 8 6 6
31 55 76 69 39 30 14 18 30 39 39 43 49 45 38 36 34 20 17 18 15 12 11 11 10 11 14 23 34 39 35 39 62 84 95 95 87 72 42 18 7 6 6 6
34 51 71 68 37 14 16 29 35 37 39 42 41 35 21 18 21 20 18 14 13 13 13 13 13 16 26 34 38 36 52 72 90 93 89 81 62 37 16 7 6 6 7 8
71 48 55 59 22 11 15 30 35 44 39 24 16 16 18 19 18 17 15 16 18 17 16 16 20 31 40 41 42 53 72 90 93 88 79 63 41 18 8 6 6 8 10 12
90 77 72 34 14 13 17 25 24 18 16 16 18 18 17 18 18 19 23 26 26 22 19 24 33 44 47 48 56 71 88 93 86 79 61 38 19 10 7 8 9 10 12 16
98 95 49 25 28 18 14 14 16 18 19 19 19 19 19 20 20 25 33 36 29 23 26 38 52 53 49 56 72 88 91 89 81 60 37 18 9 8 8 9 10 12 15 18

GFSCGP_500_rhum_054.txt.gz
RH
36 46 34 34 35 49 54 65 91 90 100 94 97 72 42 54 75 58 42 52 44 24 15 15 17 16 16 17 17 26 26 28 31 45 52 41 25 44 39 44 34 22 22 22
38 48 36 34 38 48 52 55 65 93 91 88 78 73 47 61 55 61 47 44 38 31 24 21 21 18 15 17 19 24 30 25 34 55 46 41 38 39 41 50 26 22 20 17
33 44 63 68 79 92 100 100 89 84 95 96 67 53 43 48 28 37 33 31 33 38 29 22 20 21 22 21 24 39 45 58 58 39 40 35 22 52 43 24 21 16 16 18
43 47 56 62 75 98 98 88 78 80 70 79 57 46 27 27 21 31 38 38 34 49 56 48 53 26 16 13 12 12 22 56 65 30 34 39 28 30 29 44 20 17 17 15
34 43 54 64 64 75 69 66 71 74 69 62 64 51 38 28 25 55 64 76 74 86 64 71 68 84 68 38 16 18 30 55 66 55 40 42 70 81 82 94 41 16 15 16
27 40 52 62 51 54 62 55 62 61 61 61 64 45 27 30 50 32 31 55 58 26 32 41 57 93 70 44 25 33 48 62 73 68 49 60 87 91 82 64 28 16 17 22
32 31 51 62 64 52 60 60 49 56 60 58 68 42 60 76 56 65 51 50 40 58 47 55 62 75 38 40 32 66 62 45 64 83 99 68 78 71 62 44 21 22 34 62
26 30 48 54 62 65 64 59 54 49 50 44 52 42 47 47 60 65 68 39 27 34 36 36 22 20 22 24 60 54 39 54 49 94 97 64 60 62 52 28 36 59 80 96
29 27 59 46 62 69 67 70 62 56 48 45 42 38 40 41 44 55 65 50 34 22 23 18 17 17 16 16 17 20 24 25 71 97 80 47 41 35 29 56 73 77 94 100
32 30 61 69 79 77 77 74 70 76 62 46 42 40 40 55 66 56 60 64 25 20 18 17 16 16 16 17 16 18 21 29 37 54 51 48 35 41 71 87 96 100 100 100
25 29 46 72 67 94 83 78 66 74 70 51 41 44 52 53 46 53 57 45 19 31 51 18 16 17 17 18 20 23 26 27 34 48 49 56 54 73 91 99 100 100 100 93
32 26 35 40 65 86 78 63 63 64 68 62 47 35 41 42 22 19 18 16 26 64 76 69 52 47 21 24 28 27 27 30 53 71 84 78 80 93 97 95 98 100 100 97
38 32 27 32 41 44 40 70 68 63 60 55 36 22 29 41 24 18 18 20 16 13 27 64 70 65 57 59 40 28 31 44 61 81 93 91 93 92 92 78 95 84 79 97
44 44 39 27 30 53 70 66 66 46 53 47 23 26 30 21 16 17 17 18 15 12 11 18 35 41 43 34 32 29 38 74 74 87 86 80 70 73 79 100 83 52 97 88
38 38 41 40 40 59 52 58 58 50 56 47 44 23 20 13 11 12 14 10 16 23 24 31 36 34 28 25 31 50 54 59 71 68 44 50 55 70 60 68 37 58 62 49
36 38 37 31 38 46 78 66 42 48 78 74 32 16 16 8 8 10 10 15 20 30 31 33 32 29 26 32 40 37 38 26 15 19 18 18 21 45 29 40 44 46 39 43
73 66 75 61 36 37 48 30 25 33 43 25 15 12 8 10 12 15 12 10 15 25 30 32 34 33 32 26 21 12 11 10 8 7 8 9 13 24 36 39 34 33 56 90
52 82 98 90 51 24 19 29 22 18 18 17 9 8 10 13 16 19 12 12 16 22 29 33 34 32 27 18 12 12 10 8 8 9 11 16 30 38 37 32 46 85 91 83
77 67 77 77 39 28 10 12 22 17 9 8 10 21 30 29 27 19 15 16 20 27 30 32 30 25 14 13 12 9 9 9 10 11 17 29 37 34 39 67 84 83 100 100
74 83 65 46 31 11 19 19 13 12 8 34 46 42 41 34 27 22 21 23 27 32 33 31 16 14 12 10 10 10 10 10 11 17 29 36 36 51 70 82 94 98 87 66
64 78 60 46 35 22 41 29 29 27 36 21 27 27 27 33 36 34 35 36 37 33 19 15 14 12 12 14 13 12 13 15 22 34 37 40 48 61 84 94 89 80 61 32
58 75 54 50 36 29 43 66 52 36 17 18 27 27 29 30 35 39 37 31 18 17 16 14 14 16 16 16 16 16 19 24 36 42 44 50 65 83 89 85 80 64 39 21
59 51 59 61 38 37 66 77 61 24 13 26 29 27 27 28 35 24 17 18 18 17 16 19 22 24 25 21 20 21 28 41 45 44 48 63 82 87 83 79 66 42 20 11
78 71 58 68 56 46 64 81 58 17 17 26 34 35 33 20 15 18 18 19 19 19 20 24 30 34 29 27 28 31 41 45 43 53 70 82 84 82 79 70 51 28 13 10
86 89 90 94 92 81 63 78 35 16 14 26 29 23 16 17 19 19 20 20 21 21 27 42 48 44 39 37 39 46 47 44 59 76 82 81 79 76 68 48 23 12 9 10
80 81 83 80 99 98 91 62 25 19 16 16 18 20 20 20 21 21 22 23 26 34 46 54 54 49 44 48 53 51 50 68 81 82 80 75 70 66 47 26 13 10 11 12

GFSCGP_500_rhum_057.txt.gz
RH
17 22 33 27 38 37 48 58 84 98 90 77 90 94 95 62 75 62 39 28 26 24 24 25 27 26 26 28 33 35 35 32 39 52 63 52 41 26 50 56 65 65 28 23
16 33 45 34 32 36 49 52 64 81 91 99 98 99 99 93 89 69 45 40 42 24 22 24 25 25 25 30 38 40 39 39 37 42 48 49 39 30 38 47 66 76 29 22
14 32 41 60 67 54 40 44 62 72 96 100 94 95 63 49 62 58 57 42 30 24 27 26 23 20 18 23 30 39 38 35 32 43 50 38 42 33 44 56 74 54 35 18
16 22 42 54 64 66 63 58 64 66 90 88 85 85 40 46 52 59 45 39 35 33 29 23 23 20 16 15 16 24 32 35 46 63 45 31 41 35 34 58 73 73 54 50
21 17 37 47 60 55 59 64 60 65 65 73 81 63 60 27 26 46 73 83 80 54 46 34 24 25 27 20 16 14 14 19 38 74 64 44 48 50 71 93 96 100 97 57
22 18 31 41 52 61 56 65 57 55 60 62 65 64 57 33 33 32 76 67 92 98 100 95 66 52 40 35 31 28 20 21 48 64 83 79 52 63 87 93 84 89 69 42
24 22 26 41 50 57 58 61 56 55 53 59 62 55 58 61 41 56 56 45 69 62 86 83 99 93 94 86 68 30 23 61 56 55 78 92 96 96 74 81 73 56 93 99
23 24 26 47 58 57 56 59 64 58 51 52 46 41 57 54 48 51 69 62 56 53 63 75 56 57 78 72 44 29 42 47 38 50 47 58 98 97 80 49 54 60 91 97
27 28 24 38 60 67 59 67 71 67 59 52 56 56 46 41 47 50 48 60 59 47 32 41 48 52 36 21 21 25 38 27 28 24 33 84 97 94 84 65 70 66 77 83
29 31 28 23 48 55 55 67 71 73 62 48 47 45 55 54 54 70 69 62 70 76 37 23 24 21 20 18 17 18 19 20 22 29 29 52 90 77 77 86 78 84 87 79
28 26 34 28 39 59 74 76 73 67 57 58 51 46 52 70 58 51 51 64 61 36 53 52 21 19 18 18 17 18 19 24 26 28 28 59 89 86 88 97 97 91 98 100
29 31 26 32 54 80 81 69 68 70 66 55 50 48 53 50 60 48 26 22 20 18 15 30 69 56 46 39 35 24 28 34 33 28 41 69 86 94 98 99 100 100 100 99
27 26 28 31 27 40 56 69 79 89 85 58 44 51 37 49 46 55 41 26 20 18 16 15 17 32 70 80 73 68 58 54 36 50 54 72 96 100 97 78 89 96 99 100
34 31 23 27 37 42 40 49 64 78 62 51 36 42 36 29 26 31 24 21 28 25 17 16 10 15 26 71 80 60 46 40 39 45 70 81 87 86 66 82 77 56 71 100
35 30 31 31 35 42 43 40 39 40 38 30 30 43 50 34 31 23 11 8 9 9 12 16 19 17 30 34 38 39 44 52 54 59 44 33 19 19 16 20 14 14 21 37
26 48 38 35 35 35 39 33 40 43 47 36 29 25 69 38 18 12 8 10 13 14 13 13 20 26 28 33 33 39 47 46 36 16 12 10 8 9 10 11 13 18 34 40
25 38 40 38 50 56 26 26 32 48 43 36 25 45 54 19 13 8 9 11 15 18 12 11 19 25 30 36 42 38 32 20 12 10 8 9 9 10 10 12 20 32 36 36
48 51 38 46 70 41 36 40 43 40 44 31 20 18 16 10 9 15 22 24 24 21 14 15 20 28 37 38 34 26 14 12 10 10 10 11 11 12 13 19 30 35 40 50
74 71 62 50 45 38 22 26 39 35 14 18 16 16 12 13 22 32 37 35 28 20 15 17 27 35 34 31 19 14 13 12 13 13 13 13 14 16 21 30 40 43 49 60
62 84 77 59 46 20 35 30 26 30 10 39 29 34 25 26 23 23 22 26 26 24 26 32 34 33 28 16 16 12 14 15 16 17 17 18 20 23 31 37 40 43 58 81
54 71 50 46 39 32 38 32 32 40 40 40 49 39 15 16 25 26 27 28 34 38 38 37 30 17 17 14 15 17 20 21 22 24 28 29 28 34 39 41 47 69 80 79
57 70 39 43 38 26 57 49 39 47 44 61 47 28 13 20 27 28 30 31 34 34 22 18 18 17 16 18 20 23 30 36 37 39 37 35 37 40 42 51 73 77 71 66
57 62 69 61 39 46 50 52 43 37 76 73 60 35 11 13 30 29 36 39 21 17 17 17 17 18 19 20 29 42 45 47 47 44 41 41 43 45 54 72 77 80 79 75
71 77 83 93 68 68 65 67 71 55 50 47 56 28 12 18 30 36 27 17 18 18 18 18 19 21 23 29 39 49 54 52 49 47 48 48 50 57 73 81 84 85 84 79
43 56 88 91 88 93 98 96 84 75 64 62 52 17 14 18 22 20 18 19 19 19 20 22 23 26 31 45 49 54 55 54 52 52 52 53 61 77 87 90 90 88 83 77
22 26 52 72 100 96 94 88 87 94 92 77 39 27 16 16 18 21 22 22 22 23 24 26 30 35 45 51 55 58 59 57 59 59 58 65 82 88 88 91 93 90 86 70

GFSCGP_500_rhum_060.txt.gz
RH
15 14 26 31 24 33 38 47 77 84 69 88 85 87 75 67 62 44 32 29 39 26 31 36 28 26 31 28 27 25 28 52 59 54 67 61 48 33 26 32 66 64 88 75
15 15 30 40 35 32 38 46 56 69 79 97 100 99 85 93 73 55 54 53 30 27 26 28 28 28 25 24 29 44 53 48 42 42 53 54 54 49 36 37 50 72 68 78
15 15 28 50 59 55 37 68 53 68 64 85 79 99 92 88 84 84 84 44 38 24 20 25 25 24 25 28 33 35 36 41 44 39 46 53 60 50 39 36 38 64 95 86
15 15 22 48 53 61 58 53 50 61 73 100 85 100 72 74 70 70 54 33 32 30 26 24 22 20 19 21 28 32 31 35 40 50 60 65 56 44 41 26 52 70 81 80
18 16 18 41 50 53 63 55 66 67 75 79 80 88 100 50 34 48 66 41 34 29 30 29 26 22 22 21 20 21 24 25 24 24 53 84 61 39 54 53 71 93 99 100
14 18 17 27 40 49 57 68 67 65 75 74 72 79 100 90 60 31 42 74 78 66 68 66 44 21 22 31 35 30 28 30 24 26 45 72 84 76 50 40 64 97 96 91
17 19 19 19 36 49 51 65 99 77 61 100 72 70 87 64 44 38 26 57 73 59 55 55 60 57 32 36 35 38 46 30 23 64 62 61 71 82 98 99 98 86 54 61
17 19 22 21 36 51 57 60 72 85 72 86 58 52 97 63 56 56 56 58 62 68 73 68 68 92 64 57 50 46 32 32 43 51 41 46 63 88 100 93 98 97 83 71
19 25 22 22 29 52 66 60 56 68 64 59 53 57 64 46 42 50 48 68 67 83 63 46 67 81 79 70 64 46 22 26 50 43 25 24 41 73 73 90 98 98 86 84
22 27 27 23 22 40 66 68 68 70 71 66 66 61 90 44 46 50 50 57 58 85 89 65 47 36 43 48 44 31 22 20 21 20 21 29 42 37 37 81 98 97 99 98
18 23 30 28 24 29 53 70 81 73 67 62 56 68 72 52 58 46 54 71 78 86 72 60 62 42 22 24 24 23 20 21 23 21 22 27 30 32 45 68 95 95 99 95
20 27 30 34 31 28 41 59 75 83 73 66 60 46 58 70 39 57 52 39 33 47 51 41 70 77 47 33 25 22 22 22 22 26 32 54 47 35 54 65 92 99 96 86
20 22 32 34 30 25 25 54 79 87 82 57 62 54 52 51 58 53 43 40 38 27 19 18 18 22 75 82 87 83 79 76 73 76 64 54 34 33 47 70 88 83 83 90
37 33 33 29 37 42 40 51 69 73 70 62 50 53 49 59 39 36 36 34 29 26 24 18 18 14 16 14 20 46 74 91 91 73 44 38 40 48 62 41 21 10 24 22
34 26 22 25 36 38 33 31 33 42 38 44 35 37 46 67 45 34 29 26 22 12 8 10 11 10 10 17 17 19 25 34 42 50 54 63 58 43 22 14 9 9 10 11
39 31 23 25 28 33 30 31 35 33 32 28 32 22 41 40 57 49 44 19 14 8 9 12 16 15 14 15 24 40 46 59 77 64 68 59 19 12 9 10 11 12 13 15
45 35 26 24 28 32 16 26 30 35 34 40 51 48 35 26 36 57 27 14 9 8 11 13 20 19 14 17 28 31 36 43 42 35 20 13 10 11 12 13 14 15 17 20
52 40 32 34 32 22 22 43 47 40 32 42 39 43 24 20 19 15 9 8 18 31 34 32 27 18 17 21 26 35 43 40 31 16 13 11 13 15 18 17 20 24 26 28
58 48 44 39 25 28 21 36 47 55 32 37 34 26 16 13 10 13 22 26 23 23 26 28 25 20 23 34 42 40 36 24 15 13 14 17 20 22 23 29 36 34 33 34
68 63 58 45 28 14 26 43 50 39 20 88 44 19 14 14 23 23 16 17 23 23 24 26 31 33 36 39 39 29 17 16 15 18 19 24 33 36 40 42 40 38 38 40
97 93 61 55 33 16 26 47 62 35 36 54 42 30 28 39 39 27 11 17 24 24 27 31 36 36 36 26 18 17 16 16 17 20 31 38 43 47 47 45 43 43 44 47
72 85 68 68 39 24 34 49 54 60 51 40 39 37 50 57 46 31 12 12 22 22 24 29 32 21 18 18 18 17 17 19 24 32 39 46 49 48 50 50 48 49 50 57
62 51 48 42 33 35 45 59 52 57 50 45 34 40 62 61 50 43 13 14 26 32 34 29 16 17 17 18 18 19 20 24 31 40 46 48 50 54 55 56 57 57 62 76
98 95 96 94 62 52 75 78 80 76 61 57 50 40 34 38 44 34 14 16 27 32 25 16 17 18 19 19 20 22 26 29 38 47 49 53 58 62 64 66 66 71 77 77
60 77 79 80 70 79 86 98 99 85 61 77 73 74 80 80 70 24 14 15 19 20 17 18 19 20 21 23 25 28 34 43 46 48 53 62 67 72 73 71 74 74 71 73
60 66 69 66 78 87 91 91 99 91 87 86 77 73 68 77 44 33 21 16 18 21 22 23 24 25 26 28 34 44 50 51 55 63 69 74 80 79 76 74 70 78 78 76

GFSCGP_500_rhum_063.txt.gz
RH
29 19 14 91 98 22 41 95 91 99 96 56 97 100 100 88 64 62 53 24 47 25 35 37 35 37 43 40 38 27 29 40 46 42 43 51 64 72 78 62 34 44 65 71
28 18 15 26 37 36 34 100 100 100 59 48 100 86 96 97 61 65 48 32 22 18 20 20 20 23 26 26 25 23 20 22 30 40 30 34 43 43 37 34 32 39 74 83
27 28 15 22 35 48 34 99 95 100 99 56 67 74 100 76 78 62 58 73 65 36 17 16 18 19 19 19 19 19 20 23 27 32 40 49 53 52 56 51 39 40 53 77
27 19 16 20 34 44 100 77 56 54 76 100 98 97 96 99 49 36 37 44 33 26 20 21 20 20 19 18 18 17 20 25 27 31 30 38 44 57 61 44 43 36 54 84
29 20 16 16 32 36 80 86 44 47 100 100 100 99 94 65 51 73 30 40 29 28 28 26 23 20 18 18 18 18 19 21 27 28 22 20 28 59 67 47 41 41 38 48
27 20 17 18 22 35 48 52 48 54 98 87 99 92 94 100 98 99 86 21 33 48 68 68 72 65 59 38 29 35 41 38 54 43 28 22 29 48 65 76 70 68 56 74
27 20 18 17 17 31 41 57 91 98 98 68 96 62 98 92 88 44 41 26 30 44 63 63 55 65 67 87 53 44 41 44 61 47 30 57 76 63 62 63 82 84 99 98
28 24 16 20 17 45 38 68 94 97 93 98 59 57 96 85 51 53 38 30 31 43 62 58 57 64 59 96 93 84 70 62 42 42 40 54 54 43 38 40 80 86 79 93
26 29 26 19 19 25 79 49 96 99 70 61 80 93 73 52 49 46 57 55 54 61 68 80 66 51 45 72 84 79 60 57 37 48 42 48 29 23 23 50 48 30 32 77
32 96 42 25 20 21 39 75 68 70 91 91 98 93 98 86 44 37 42 49 52 70 71 86 63 52 46 29 26 30 31 26 22 19 20 23 21 23 32 38 37 41 60 68
36 58 75 22 18 22 23 46 66 93 98 99 100 97 96 63 56 47 41 42 43 53 74 94 97 92 62 55 24 22 25 24 22 21 20 26 37 46 38 40 59 66 65 49
30 32 100 25 28 31 100 52 98 100 93 82 70 60 98 69 66 50 50 47 50 66 81 84 77 65 67 82 48 29 26 25 23 22 22 29 24 31 41 54 53 42 37 53
36 32 55 93 28 24 27 70 100 97 96 95 73 66 98 65 58 49 56 47 45 44 33 31 31 34 44 69 72 51 48 46 38 35 42 55 71 83 83 62 38 38 50 58
45 37 32 49 66 43 27 30 83 100 69 52 72 100 100 98 93 94 95 38 40 38 24 24 20 18 18 19 20 44 77 92 96 99 100 96 84 68 48 58 54 66 56 22
44 35 38 38 100 100 98 73 57 87 97 87 59 100 98 100 90 99 88 53 22 23 28 21 12 8 9 10 10 11 19 22 22 24 35 52 54 63 72 89 94 54 14 11
47 42 41 32 45 100 98 92 100 97 98 46 60 87 96 95 95 44 37 46 54 33 26 16 10 8 10 12 17 16 12 22 30 59 75 100 100 88 77 60 19 12 13 14
52 48 45 32 34 62 50 17 34 44 76 55 31 44 99 99 94 43 26 28 37 57 23 12 8 10 16 18 22 20 21 40 48 44 32 42 45 38 17 13 13 16 20 22
75 60 53 37 40 31 17 26 30 31 26 27 30 29 86 95 52 25 21 27 25 14 8 13 27 35 37 33 27 21 18 19 24 33 47 44 35 17 13 16 20 25 32 37
98 74 63 42 31 28 30 23 35 51 32 46 66 68 100 80 25 16 15 12 13 19 26 24 24 22 23 26 24 22 28 39 45 44 40 25 16 15 20 22 32 41 45 47
100 94 72 53 44 36 23 29 45 64 34 40 88 87 49 12 14 14 15 24 23 19 14 19 23 23 25 30 33 37 41 43 42 29 20 17 19 23 27 36 41 46 41 41
95 79 76 82 51 33 31 36 51 50 58 83 48 40 30 24 16 17 18 30 36 22 12 18 23 23 27 32 37 39 40 27 21 20 19 20 21 24 31 39 38 37 41 50
94 93 88 95 81 59 45 36 46 63 77 50 42 28 19 20 26 29 36 52 47 39 21 12 23 25 28 33 34 22 18 19 19 20 21 21 24 28 34 36 37 43 54 65
100 95 100 94 69 69 58 59 70 92 80 59 63 48 41 34 36 40 54 57 43 45 28 15 27 35 39 39 21 18 18 19 20 21 21 24 28 39 39 41 50 59 68 71
81 98 92 100 97 92 70 58 58 76 88 83 65 42 42 42 44 54 54 62 63 59 32 14 20 34 35 22 18 20 21 22 22 23 25 32 44 47 51 62 69 72 76 77
58 78 84 82 73 79 63 62 99 94 97 90 92 74 54 50 66 72 76 72 68 61 19 18 16 19 19 20 22 23 24 26 27 31 41 50 59 70 76 74 74 77 80 78
54 64 82 78 81 97 98 98 98 98 97 97 100 98 71 76 80 75 70 69 66 58 29 20 18 20 24 25 26 28 29 33 44 53 62 74 82 79 75 74 75 81 75 74

GFSCGP_500_rhum_066.txt.gz
RH
66 54 27 14 37 96 77 71 86 99 92 73 50 75 74 76 96 61 59 56 32 38 23 36 38 42 49 45 50 34 37 44 41 37 33 29 41 53 60 70 68 42 58 60
70 68 24 13 51 36 33 27 68 100 84 49 43 82 96 70 57 68 57 55 26 19 18 19 19 22 25 25 25 23 25 32 32 34 24 22 29 37 38 36 36 38 39 47
78 56 25 14 25 34 34 40 90 72 89 83 55 71 99 97 94 56 40 54 58 33 13 15 18 19 18 18 18 22 27 32 30 27 26 31 31 31 31 34 44 47 38 37
84 44 30 16 14 28 35 45 72 99 95 97 86 84 98 91 69 46 26 30 21 22 19 12 12 11 10 12 14 13 14 16 20 22 27 34 34 26 29 48 54 41 42 37
66 66 26 16 15 26 79 31 87 37 44 86 85 94 96 76 88 78 55 20 26 22 19 19 23 36 32 21 16 15 15 16 19 18 18 16 14 12 20 36 60 57 38 46
80 69 30 18 16 17 40 29 41 39 48 56 93 95 97 90 86 100 80 34 18 23 25 49 57 58 61 69 68 41 29 35 37 49 48 29 26 33 18 42 49 67 69 93
80 90 33 20 16 18 25 28 37 47 59 59 97 92 98 93 92 96 94 39 25 24 30 52 51 48 34 52 58 58 54 66 56 50 39 25 23 40 56 38 38 48 69 88
93 85 33 21 15 19 31 30 37 67 96 90 93 59 100 70 73 49 55 49 38 26 27 29 28 23 35 45 44 56 57 44 45 28 23 35 43 50 41 23 19 20 52 55
95 52 48 29 20 18 93 32 50 92 89 99 84 75 67 50 68 46 39 41 52 53 42 31 55 61 48 44 32 38 26 33 36 26 20 32 54 50 98 73 20 53 72 51
96 86 59 44 21 19 36 55 56 64 97 96 72 68 100 90 92 58 40 32 36 45 52 59 69 68 72 50 42 27 23 24 25 21 19 19 19 19 22 35 36 86 94 55
100 99 85 100 28 20 18 26 41 68 100 77 53 97 91 99 84 52 41 37 36 37 44 46 64 91 78 84 63 40 31 22 21 20 20 20 19 21 61 92 71 38 72 80
97 100 100 99 57 33 27 24 37 45 78 63 85 91 84 96 95 72 36 35 39 36 41 48 63 83 84 72 57 57 34 52 39 31 34 66 97 93 76 44 69 72 92 93
93 91 100 100 100 46 23 71 34 38 62 70 79 78 73 78 89 72 60 56 44 43 45 44 44 47 60 65 51 36 23 30 28 51 94 85 92 94 83 89 91 82 68 57
96 100 100 84 70 50 47 31 96 89 67 69 47 47 82 92 84 83 62 67 61 36 35 44 39 31 31 25 22 18 20 34 35 35 57 59 64 78 41 30 37 58 56 73
98 97 100 95 94 81 50 29 29 36 84 71 66 48 58 95 98 90 90 75 69 90 45 32 27 24 19 14 8 8 11 17 30 46 42 23 36 29 53 81 92 98 96 84
97 99 100 99 72 98 99 97 59 38 47 80 97 86 88 96 96 96 100 70 69 64 31 54 49 39 34 14 9 18 21 20 41 24 26 16 37 89 100 100 95 63 49 24
100 86 59 56 63 82 94 95 93 100 98 98 89 78 72 78 86 97 78 92 39 29 25 30 46 49 32 35 24 22 26 26 24 27 60 75 88 86 70 78 47 37 20 16
97 100 74 63 61 44 43 50 68 67 51 81 84 78 80 61 84 95 84 70 33 22 28 38 38 33 14 15 25 30 30 34 41 50 48 32 22 29 44 45 41 22 19 25
98 97 96 74 69 49 46 45 52 42 25 42 54 65 86 83 92 59 50 50 19 14 12 12 15 23 24 20 22 21 22 25 25 24 25 34 44 49 49 35 21 20 24 28
99 98 91 90 82 73 52 45 46 46 35 36 41 63 73 80 54 45 22 18 13 11 13 22 25 19 13 14 19 20 22 27 33 36 41 45 48 38 22 20 21 22 24 29
95 96 88 100 83 65 59 56 48 43 43 37 55 86 75 64 39 21 22 14 12 13 14 20 36 36 26 15 15 21 25 29 35 41 44 34 22 21 21 22 24 25 27 37
100 100 95 99 98 87 83 63 52 43 66 88 95 85 78 45 34 31 25 23 24 28 36 52 53 46 42 26 16 26 30 35 39 38 24 21 21 21 23 24 25 28 42 50
93 90 92 99 89 94 100 99 70 69 88 90 84 68 67 45 42 44 46 40 36 35 34 41 38 52 56 41 17 23 39 44 44 25 21 21 22 22 23 25 31 46 56 68
71 96 100 88 88 96 100 98 96 94 87 82 95 78 87 58 51 43 45 46 48 55 60 62 64 68 67 34 16 20 24 33 25 19 20 22 23 26 28 38 53 61 71 81
99 90 98 98 99 98 98 95 99 92 90 95 100 96 89 68 76 66 59 54 59 70 70 68 61 54 60 41 37 21 16 18 20 23 25 26 28 32 41 53 64 76 96 86
88 86 88 94 99 98 98 97 94 100 92 83 77 100 89 81 86 91 90 83 76 73 75 75 62 46 52 59 46 33 28 26 28 29 32 33 38 50 60 74 88 98 100 96

GFSCGP_500_rhum_069.txt.gz
RH
91 73 69 43 22 18 17 37 78 100 91 98 80 65 60 97 95 75 74 58 41 30 21 29 36 64 64 55 59 50 48 45 44 48 53 52 65 67 65 60 50 40 47 55
82 69 70 86 24 16 11 30 39 98 78 81 83 48 56 66 97 62 47 50 67 24 18 20 20 24 23 24 24 23 28 29 25 18 17 20 24 29 33 35 40 42 43 47
81 93 78 76 22 14 20 39 36 75 69 82 76 72 59 51 96 70 54 33 44 42 18 15 18 18 18 17 17 17 16 15 15 16 18 20 22 25 27 32 41 46 45 40
83 98 87 91 23 15 20 49 40 49 82 67 68 60 97 84 77 55 32 20 20 30 16 11 13 13 15 15 13 12 12 12 12 12 13 14 14 12 12 18 40 56 47 39
71 98 96 89 27 16 21 64 57 61 42 39 40 46 94 80 51 61 78 44 18 17 17 16 35 58 51 39 29 18 18 23 29 26 26 26 23 18 12 11 24 50 58 58
93 98 89 77 24 16 24 48 41 58 34 35 64 65 99 89 83 68 55 36 52 21 18 32 57 51 42 48 49 39 40 49 44 43 41 28 17 32 47 22 33 51 48 44
84 79 80 79 31 17 19 22 31 35 29 45 71 86 67 83 76 72 48 40 51 38 24 34 47 46 21 26 38 46 52 53 51 44 29 41 45 34 61 59 38 31 29 24
92 92 92 83 66 20 18 20 32 36 32 46 55 70 72 50 71 69 50 34 37 33 27 27 38 39 35 39 44 36 35 24 26 30 20 11 14 24 26 41 56 32 20 19
84 80 99 95 63 28 27 27 73 61 25 61 93 96 69 54 53 61 72 52 34 23 23 24 26 27 44 65 55 39 31 25 21 23 21 15 22 22 45 27 49 96 68 33
93 95 93 95 62 39 31 35 95 56 61 48 95 99 97 91 86 62 57 50 32 33 28 31 31 33 37 44 49 47 44 34 22 18 22 20 18 38 64 24 47 34 34 99
98 96 97 93 63 39 26 25 100 89 98 45 95 81 97 89 92 68 64 36 31 33 36 34 35 36 38 42 45 39 58 54 40 23 20 22 19 19 23 38 56 94 98 98
88 99 97 78 76 45 64 30 42 66 71 62 86 89 82 88 69 89 90 60 42 30 36 37 37 44 55 45 35 44 58 55 50 40 54 86 72 74 88 98 96 99 64 51
96 83 99 97 75 70 77 47 35 46 97 66 62 59 81 100 99 73 58 54 43 30 26 34 37 42 38 35 30 29 31 63 79 88 98 96 85 94 84 94 76 82 67 57
99 86 92 83 75 91 67 79 72 35 83 77 33 56 96 94 95 86 71 77 92 66 40 34 34 38 35 27 14 16 36 71 48 42 49 72 70 83 89 75 61 56 36 77
86 73 96 77 91 98 95 83 47 32 55 72 47 43 56 89 90 80 82 92 85 82 80 42 66 56 31 27 25 19 15 22 27 33 36 42 43 45 53 58 58 49 87 94
69 68 100 92 89 98 96 71 73 67 61 74 100 97 100 82 85 71 76 75 93 88 65 71 40 25 16 26 44 37 26 26 31 33 35 36 30 35 42 46 77 100 100 80
98 72 100 92 100 96 94 70 62 63 70 57 46 52 71 97 93 99 100 72 56 38 77 53 28 23 22 23 29 40 35 23 19 21 24 28 28 33 40 43 49 54 34 29
65 82 98 93 100 84 74 82 99 91 82 100 89 90 98 100 95 90 76 66 44 30 57 72 28 27 29 20 16 12 14 15 17 17 16 15 16 18 20 20 19 20 26 34
91 95 97 99 91 75 62 66 99 96 64 78 91 74 71 96 80 56 46 50 44 45 30 24 17 14 10 10 14 17 15 13 14 17 18 18 20 23 25 27 31 37 40 26
100 97 100 98 93 76 58 53 94 100 66 68 55 53 55 71 76 37 50 40 56 71 52 16 11 11 12 16 24 32 33 31 18 14 18 22 25 30 34 39 42 31 23 23
77 96 95 86 87 74 63 62 75 58 56 58 49 47 62 54 52 45 28 36 41 33 18 16 15 13 16 26 46 49 39 41 34 21 17 23 27 31 35 34 21 20 21 22
77 83 97 95 80 82 88 98 91 82 73 73 52 58 62 79 67 45 43 59 32 29 22 21 23 25 34 43 46 38 52 53 47 21 17 21 32 39 40 24 20 21 23 25
66 64 75 99 78 85 100 100 96 94 94 90 78 95 81 70 100 74 65 50 50 41 36 36 35 33 32 41 53 54 54 57 45 23 25 19 21 31 25 21 23 24 26 28
75 86 93 95 92 90 90 87 96 98 94 89 90 99 96 85 89 86 71 54 49 49 39 38 44 48 58 61 59 62 59 53 48 37 33 22 21 20 24 27 29 32 34 41
48 67 100 98 100 97 99 98 95 92 97 77 81 91 99 80 90 92 66 59 60 75 75 58 59 60 66 68 69 69 55 52 54 53 40 32 33 36 38 38 39 40 52 79
37 34 79 99 100 90 91 100 100 98 99 96 92 92 86 85 84 85 75 82 79 86 87 88 90 83 83 86 90 88 86 80 65 61 54 56 65 66 56 55 61 81 97 100

GFSCGP_500_rhum_072.txt.gz
RH
59 58 58 88 74 57 31 16 15 22 56 100 99 82 56 32 70 91 78 51 61 37 20 33 51 64 50 47 76 61 71 83 77 72 66 75 75 71 68 70 69 79 88 92
48 54 91 91 79 66 49 15 19 18 40 99 100 76 56 63 66 94 69 69 48 29 19 20 24 29 55 40 41 40 43 41 40 43 58 70 63 57 53 50 39 35 41 45
55 70 84 85 79 71 41 14 26 15 64 82 78 82 61 60 63 91 46 54 42 33 16 19 19 19 18 20 21 24 23 20 16 17 22 28 29 27 25 24 28 28 33 40
42 78 68 74 81 73 58 20 15 28 35 53 78 49 53 64 83 67 38 25 30 24 12 11 12 13 15 15 15 15 15 13 12 12 13 14 16 15 12 12 17 39 44 35
35 72 72 80 94 94 67 21 19 34 33 40 61 42 48 80 67 50 47 19 23 24 18 23 33 15 9 9 9 9 9 9 9 9 9 10 10 9 10 10 21 34 43 58
34 80 85 96 97 95 70 28 18 41 44 31 52 46 27 62 69 61 34 24 28 21 20 38 61 47 31 21 17 14 11 11 12 14 16 15 13 16 26 30 18 48 41 47
38 61 68 88 98 93 56 18 26 19 28 26 58 26 50 74 70 55 29 24 26 32 29 28 50 49 34 22 34 37 37 31 26 26 20 19 28 19 41 50 50 40 38 42
47 58 74 91 87 76 61 20 16 16 27 35 50 26 65 63 46 52 40 25 23 24 30 38 32 41 39 30 33 35 36 34 30 28 25 23 14 16 28 38 60 68 47 30
54 54 78 93 100 96 84 47 31 28 22 31 50 48 56 62 40 58 56 52 37 28 26 29 44 50 42 38 42 50 52 39 28 26 26 30 27 33 59 52 49 71 66 76
67 70 87 99 100 94 94 67 55 29 42 26 49 78 70 50 36 50 48 43 42 28 26 27 30 35 44 51 52 45 46 49 52 47 25 28 31 24 56 83 72 91 74 69
73 73 80 100 86 92 98 70 93 50 52 45 63 84 73 54 58 72 75 64 51 33 30 26 28 32 38 41 49 71 78 76 66 80 77 74 34 26 20 45 60 80 96 97
69 84 83 81 89 99 98 52 63 38 30 82 100 81 86 66 51 65 74 85 58 57 35 29 22 21 24 31 47 56 75 69 83 93 100 98 98 94 74 55 94 96 97 97
87 77 80 94 95 98 88 56 100 62 46 92 100 57 76 86 69 66 73 86 66 46 48 31 35 35 23 19 24 32 36 55 85 78 97 95 81 96 96 96 97 98 95 80
80 70 72 75 79 93 97 72 91 91 48 46 58 69 93 84 56 60 83 65 71 67 72 69 64 65 55 27 24 22 23 34 53 62 67 34 34 37 83 89 76 58 56 55
68 55 64 75 81 99 98 81 92 100 90 58 29 63 80 69 89 94 86 82 67 71 83 84 56 68 54 55 60 36 34 31 29 35 34 34 41 44 50 48 46 39 36 52
73 46 54 63 84 98 96 94 80 89 98 100 52 48 68 50 58 74 84 76 78 100 87 64 50 63 20 42 22 26 42 38 37 43 37 31 27 27 31 25 24 27 33 42
91 68 46 42 98 100 79 89 90 80 99 95 76 65 96 96 94 93 77 81 60 74 44 35 47 55 52 23 28 30 26 25 36 30 13 14 18 17 17 17 17 18 19 26
86 92 82 70 95 91 61 100 98 97 69 75 100 86 93 55 79 99 94 65 48 71 46 27 42 44 23 24 24 16 12 17 15 13 15 14 14 14 15 17 18 17 19 24
99 100 86 91 69 63 70 96 96 98 93 90 95 72 100 87 79 84 69 77 84 80 75 38 31 44 28 18 14 11 11 14 20 25 31 35 34 31 27 18 16 20 22 27
99 100 97 70 48 44 67 100 98 98 86 90 100 92 99 87 74 80 70 59 55 53 42 26 45 49 17 14 10 10 10 13 25 44 37 34 41 40 32 19 18 23 30 34
77 94 88 63 66 50 76 100 100 96 69 99 98 100 100 99 98 95 73 49 41 42 39 47 44 27 16 13 12 15 22 28 40 43 37 48 48 48 33 18 19 22 26 32
83 94 73 86 84 65 96 99 97 82 87 93 98 91 95 75 69 57 65 49 43 41 48 74 39 28 23 24 21 20 26 37 36 42 51 51 50 50 26 31 25 18 21 24
99 92 100 100 100 100 88 100 89 99 94 90 77 86 73 74 63 60 56 42 50 56 52 53 46 41 39 37 35 35 36 54 71 65 60 61 53 48 41 39 28 29 25 24
94 100 96 87 79 76 77 96 96 100 98 97 85 65 67 72 78 79 68 59 83 68 55 67 60 50 56 61 50 44 50 67 75 76 75 64 61 62 54 50 46 46 45 48
63 72 89 72 85 99 82 88 98 97 95 95 99 100 84 80 68 78 82 70 99 99 96 78 58 58 62 78 80 76 69 73 89 91 88 86 85 84 81 72 67 68 76 81
70 75 90 82 96 90 94 97 100 98 98 98 96 100 96 92 96 88 94 90 68 64 80 74 61 61 80 88 97 91 82 92 92 63 61 79 86 81 74 80 91 95 98 99

GFSCGP_500_rhum_075.txt.gz
RH
61 48 54 70 91 87 77 62 48 23 26 24 71 48 61 47 58 63 68 44 54 52 24 31 59 62 46 59 51 62 65 66 74 89 88 91 100 95 87 83 90 85 87 84
58 45 82 78 86 87 81 75 60 27 21 20 40 36 58 45 46 66 68 48 54 60 22 21 27 52 46 43 59 74 82 84 74 77 76 93 97 96 82 76 76 77 74 78
52 76 74 73 86 80 78 75 68 33 30 25 26 33 63 44 41 56 75 52 44 31 19 20 20 22 34 32 38 33 35 45 51 63 71 78 73 62 69 64 56 55 54 56
33 78 74 71 72 69 70 76 75 38 17 26 31 24 40 37 55 62 83 39 26 23 18 16 18 18 17 18 20 21 21 18 22 30 45 48 47 42 33 27 25 27 32 38
29 68 73 74 84 77 91 93 95 64 25 17 15 24 41 38 58 51 38 22 24 25 10 11 11 11 12 13 14 13 12 12 13 16 20 21 20 16 14 19 25 44 45 40
22 47 57 74 100 79 100 92 99 79 27 16 20 29 30 38 53 52 40 25 20 18 16 16 14 17 14 13 12 11 10 11 13 13 16 21 20 20 17 16 27 48 61 72
20 25 46 69 79 87 83 83 86 74 33 11 31 24 43 48 44 60 44 35 33 29 19 16 30 33 32 25 29 28 30 31 25 24 25 22 19 18 35 49 53 44 47 52
23 21 40 54 61 91 80 79 88 83 40 17 22 17 47 49 48 55 53 27 27 28 26 22 28 38 37 35 27 34 36 34 32 27 26 29 28 31 39 37 50 66 61 48
23 22 47 62 91 98 91 71 94 86 47 17 18 16 49 34 39 47 40 29 27 28 26 29 28 31 37 38 38 36 40 38 36 34 29 28 31 34 30 28 38 72 85 82
38 33 51 67 88 95 100 100 96 87 47 18 13 15 22 36 46 47 41 34 34 30 28 29 31 35 36 38 38 37 44 42 43 44 44 37 29 26 33 29 34 69 77 89
52 48 54 86 82 93 97 83 88 91 75 39 20 24 20 42 54 56 41 44 55 57 32 31 33 48 49 50 60 62 42 46 78 71 60 57 56 58 57 35 24 39 79 88
30 52 60 86 90 99 98 96 90 98 81 45 21 31 30 49 66 53 37 69 68 69 38 42 32 31 34 46 56 69 64 54 66 100 98 98 97 98 98 98 98 91 98 94
72 47 60 86 92 85 94 96 100 100 96 44 34 39 92 89 69 77 54 41 46 68 68 59 35 27 38 38 39 47 52 54 46 72 95 96 95 83 65 48 78 98 96 98
75 45 43 45 66 98 96 98 100 99 89 52 32 45 100 81 83 70 72 71 93 84 66 48 59 76 62 52 48 31 26 28 27 41 63 76 98 50 41 42 52 77 68 59
100 61 45 58 93 99 94 97 98 99 85 58 53 32 86 97 70 83 58 69 67 80 78 70 63 79 85 80 69 47 44 45 35 33 49 56 59 70 44 35 33 34 35 43
85 83 87 71 95 99 96 86 86 90 90 68 45 28 34 39 57 93 59 63 99 100 92 75 58 89 68 52 52 60 60 30 23 19 35 65 72 62 35 19 21 32 24 29
94 71 89 65 94 100 86 62 78 80 95 76 48 46 32 34 39 82 93 62 73 92 100 100 90 67 63 43 41 28 23 28 31 31 50 58 51 43 26 16 16 22 25 35
100 98 86 72 73 79 51 82 88 98 100 91 75 70 77 79 50 58 86 62 89 78 80 89 88 60 31 28 25 22 25 23 17 17 34 37 35 30 23 31 32 32 31 25
100 100 100 100 88 71 50 89 97 87 90 93 96 88 98 79 50 43 73 82 90 86 78 80 68 67 57 33 38 21 17 15 12 10 13 24 18 33 43 37 35 42 41 34
63 88 92 100 83 67 56 89 95 95 67 100 98 95 80 57 53 47 40 36 46 67 86 95 88 59 36 35 57 39 19 13 10 10 12 15 24 37 36 34 45 51 52 42
33 48 53 89 100 91 82 60 81 85 70 97 90 87 84 72 63 68 95 75 77 74 58 56 62 63 48 47 39 27 16 14 14 17 21 25 29 31 35 45 46 46 47 43
87 86 70 72 94 92 92 80 90 96 99 97 96 100 81 98 78 80 99 100 91 64 64 60 56 52 53 52 38 27 29 33 34 33 31 31 33 35 52 54 53 57 48 40
32 42 30 85 74 80 91 92 90 100 100 94 96 94 98 94 99 100 95 89 79 67 50 50 52 44 53 55 48 48 46 56 61 56 40 43 51 57 66 65 63 62 57 63
28 28 85 84 97 92 100 96 100 93 88 100 95 98 93 88 97 96 94 84 80 70 59 46 50 72 77 72 68 74 76 81 78 82 83 71 65 66 68 75 85 85 86 82
29 58 64 99 100 99 99 100 98 86 85 99 100 98 100 100 98 99 99 96 98 98 97 91 61 74 88 94 99 93 89 89 90 85 90 90 91 90 92 90 76 56 52 64
40 34 57 86 100 98 90 91 88 79 86 87 96 99 91 88 96 100 100 93 98 98 98 98 88 75 99 100 98 95 98 94 98 97 92 98 100 96 58 40 36 45 55 85

GFSCGP_500_rhum_078.txt.gz
RH
65 50 49 67 78 72 73 68 50 69 50 42 30 20 25 33 46 52 54 50 45 50 58 25 33 57 49 52 59 67 77 66 63 56 94 100 98 98 98 97 98 97 98 97
40 25 69 64 78 74 81 74 67 78 69 53 40 25 20 41 34 54 65 57 43 56 58 22 23 30 53 43 74 78 72 78 76 100 91 96 90 88 97 98 98 100 94 96
34 43 73 62 75 76 85 73 79 92 77 66 63 34 16 34 27 54 64 57 51 44 27 19 20 22 37 33 35 58 72 73 77 74 90 91 93 86 92 93 99 89 86 85
29 32 48 48 60 80 75 78 94 100 93 72 64 45 15 26 36 48 65 61 44 32 32 17 20 19 19 18 21 26 20 29 55 73 96 99 96 95 93 78 74 77 83 85
24 32 46 43 65 86 90 78 100 98 88 75 70 53 16 21 51 58 60 41 29 29 18 12 12 14 14 15 16 16 16 21 18 19 48 54 58 64 54 50 42 44 46 50
21 25 30 35 86 78 100 83 80 78 80 59 65 65 12 21 51 44 36 29 20 22 20 11 13 13 22 16 13 13 13 15 23 19 24 29 35 32 28 32 32 34 37 40
16 17 24 28 49 55 77 84 66 61 67 47 69 67 14 22 36 45 46 29 22 23 19 18 28 35 31 32 38 20 17 21 23 25 23 20 18 16 14 16 18 22 33 51
10 13 16 20 28 54 81 83 67 68 66 81 86 66 13 29 21 46 51 32 25 26 31 21 26 45 47 40 34 49 50 44 42 38 33 33 29 27 28 27 32 44 40 36
6 8 13 17 34 75 74 63 76 79 78 79 78 67 16 25 26 39 53 46 26 29 29 26 24 32 46 46 42 34 36 40 45 42 41 35 28 31 32 30 30 35 40 42
6 7 12 19 31 53 60 95 97 78 64 66 62 66 32 22 31 40 44 47 32 30 29 24 23 30 32 37 38 39 41 47 46 44 42 39 34 30 29 28 29 28 31 42
7 8 19 27 29 54 67 74 77 85 65 57 69 56 47 15 26 43 54 52 52 51 37 27 27 28 34 37 37 43 68 77 72 78 66 58 63 64 55 47 44 40 45 38
16 16 12 29 49 67 77 90 100 96 70 72 81 57 71 31 18 35 56 52 50 51 54 40 36 33 33 35 46 53 63 72 86 89 99 98 97 97 98 98 98 97 93 100
22 16 10 16 42 58 77 82 100 100 100 88 83 56 89 40 22 46 71 55 67 66 55 55 51 53 39 33 36 37 43 61 78 79 89 95 98 98 98 92 40 50 57 99
76 26 24 13 39 58 74 85 92 99 81 73 64 67 93 58 38 60 72 60 56 63 71 59 53 68 45 54 63 54 48 30 27 32 42 40 60 94 96 95 55 46 47 84
91 73 36 24 38 66 69 88 100 90 76 69 65 67 88 93 85 90 94 94 77 66 51 95 87 72 64 53 54 52 39 48 53 41 42 38 41 58 73 93 94 61 43 39
100 90 74 28 27 69 77 79 84 75 71 64 64 58 80 90 93 100 95 99 72 88 81 62 90 93 76 97 87 78 56 52 56 51 54 27 22 39 76 85 82 64 36 25
100 100 100 65 39 58 72 53 59 69 64 67 69 65 89 97 70 80 91 87 100 100 100 79 100 98 100 100 95 86 54 50 55 39 28 28 34 52 62 61 52 36 25 32
94 73 100 95 98 80 40 70 98 98 93 87 78 71 86 94 98 56 38 43 60 78 97 94 73 77 76 100 94 62 44 34 30 29 25 18 19 30 44 50 42 20 29 32
100 100 100 100 81 76 61 72 94 95 83 78 64 80 100 100 90 82 62 54 54 59 88 78 93 83 88 90 71 50 38 40 34 26 21 15 11 19 27 45 31 25 36 39
96 100 98 100 100 100 100 94 77 86 66 95 73 66 88 95 94 100 100 90 52 70 72 87 80 85 98 88 87 61 44 40 41 27 16 16 19 24 34 24 26 31 36 36
55 64 58 88 86 93 100 100 90 67 89 76 90 96 100 97 86 100 97 84 45 42 64 74 79 83 83 66 54 47 35 40 35 22 18 22 27 27 28 28 27 28 33 40
76 84 76 62 40 52 98 96 100 99 92 81 95 96 93 98 100 100 98 97 88 66 54 74 76 98 98 89 54 35 46 44 35 30 31 32 37 45 51 53 46 37 39 50
30 57 74 78 69 52 76 100 90 99 100 100 95 99 99 90 99 98 99 93 96 100 98 100 91 62 56 62 49 40 50 56 54 53 48 47 48 62 65 66 73 81 80 75
31 32 33 41 54 78 89 69 78 100 92 98 99 100 100 98 98 100 99 98 100 98 97 97 84 75 75 74 81 70 86 81 63 62 72 76 66 68 71 73 77 90 99 95
34 34 27 26 28 35 64 67 76 100 86 82 87 99 98 100 96 99 98 99 96 93 99 97 99 98 96 97 99 99 94 87 92 98 93 90 80 75 83 88 91 98 100 100
36 31 28 26 27 25 60 85 100 86 87 84 92 94 92 96 100 99 96 100 100 99 95 97 83 100 96 85 84 88 94 95 95 100 88 84 89 90 86 86 99 100 97 80

GFSCGP_500_rhum_081.txt.gz
RH
66 52 47 77 68 69 71 67 67 57 64 66 66 59 52 38 30 36 50 51 58 47 54 56 37 27 34 53 51 52 54 53 60 87 96 97 96 96 94 94 95 96 97 78
60 47 65 58 67 62 69 70 71 62 69 70 76 64 57 52 30 41 58 55 51 51 52 58 32 22 29 48 44 72 69 95 88 79 87 95 96 97 97 96 96 92 88 88
42 45 63 61 60 52 72 78 73 70 80 66 59 60 65 57 29 33 46 60 46 54 40 34 24 20 20 29 36 71 88 88 90 97 90 92 97 96 95 89 96 97 98 96
57 38 39 50 48 59 60 90 78 76 79 68 62 36 51 60 24 32 36 57 43 49 26 32 23 20 18 16 24 30 39 51 74 94 98 96 97 96 96 96 96 96 95 98
44 33 34 36 48 64 66 74 71 74 66 46 51 44 47 66 22 27 45 52 41 35 28 20 13 14 14 15 16 18 27 58 21 58 88 94 97 96 97 96 99 98 90 67
22 22 25 30 38 46 70 78 83 72 53 29 29 61 42 57 23 25 46 45 32 24 23 23 11 10 11 12 12 12 12 21 35 27 54 68 62 58 67 68 61 57 52 48
65 26 19 22 25 36 52 68 66 54 46 26 42 55 43 58 30 26 53 42 28 22 20 20 17 18 19 21 17 13 12 13 13 13 13 18 22 24 25 27 25 24 22 21
30 32 18 15 17 20 32 61 83 84 62 48 48 33 49 75 30 27 49 44 41 22 22 28 23 21 34 33 27 32 31 34 35 28 26 23 18 16 14 13 12 13 13 13
4 7 15 12 12 15 18 25 69 68 54 40 32 31 36 74 25 22 31 53 51 26 26 29 33 24 33 38 42 35 31 36 34 30 28 24 22 22 20 21 20 19 21 24
5 5 5 6 8 10 14 23 60 57 46 47 31 38 40 95 42 18 32 58 55 48 35 26 27 28 28 29 34 42 42 43 40 41 39 36 31 29 28 28 29 29 28 26
4 4 7 7 6 9 13 17 25 46 48 44 38 34 45 83 63 22 41 59 53 58 33 34 31 28 30 30 34 36 40 56 63 60 59 61 53 45 42 48 50 38 37 37
7 6 4 6 11 16 15 16 33 50 50 44 42 35 56 82 77 26 41 60 57 47 54 48 40 33 34 30 37 47 45 51 74 88 90 99 93 86 88 94 96 86 93 90
9 7 6 7 24 16 26 22 30 43 57 38 54 42 58 90 95 61 46 69 71 76 67 62 55 47 48 42 37 32 40 52 75 78 95 96 98 98 97 97 98 79 56 68
20 18 10 15 16 24 34 48 41 50 47 27 24 46 59 77 97 68 51 80 97 92 74 66 75 68 61 66 60 52 45 42 40 37 45 66 64 45 42 80 96 89 54 47
20 25 18 16 37 37 19 25 56 60 40 42 37 49 56 71 100 74 77 57 100 100 98 95 79 79 99 82 67 59 72 65 53 43 38 35 30 33 40 38 58 87 93 97
20 65 100 47 71 70 34 43 48 43 59 53 46 50 65 70 92 91 88 97 90 91 100 87 61 68 82 98 84 67 75 71 62 55 56 50 54 46 33 28 43 67 93 94
28 98 77 40 50 58 63 16 38 60 64 56 48 48 56 66 86 99 100 97 87 88 90 91 90 68 83 83 96 83 79 84 73 62 51 43 42 32 29 41 58 66 64 60
18 57 65 74 100 100 80 52 30 53 70 75 70 72 78 74 82 88 90 81 100 99 95 76 90 69 74 80 94 84 87 90 84 52 37 44 34 26 18 20 31 42 48 58
23 49 86 100 100 100 98 90 65 54 72 89 81 94 100 87 69 61 100 96 95 94 93 77 75 92 98 76 81 92 88 73 57 41 34 36 30 24 29 22 15 24 36 45
40 63 91 98 98 99 100 100 100 76 74 100 97 94 95 86 78 93 96 86 75 79 76 70 82 92 85 100 97 98 90 74 55 41 47 41 28 19 22 30 31 28 28 24
53 78 88 98 90 95 100 98 100 100 100 100 99 92 82 85 80 94 98 96 93 82 96 100 99 84 96 99 91 92 100 86 54 43 42 41 37 31 28 28 30 41 57 68
91 82 75 95 96 92 98 96 100 100 98 96 90 87 80 62 87 96 98 97 91 97 96 99 97 94 94 91 94 90 94 86 56 59 64 63 53 43 36 36 43 49 60 66
38 58 95 89 100 100 97 97 100 100 100 100 100 100 97 71 95 86 99 99 98 99 97 98 99 89 79 95 100 91 74 69 52 54 50 52 53 48 47 56 76 77 72 73
31 30 38 56 80 80 82 79 77 92 85 92 98 94 92 96 99 99 97 86 97 98 98 98 99 99 97 91 100 91 95 82 69 83 85 90 99 94 86 91 87 90 80 81
36 29 28 27 30 32 34 41 48 52 81 88 64 71 76 93 97 93 99 100 99 99 99 100 90 100 99 98 96 97 96 93 96 94 99 99 97 97 96 88 94 90 88 87
50 41 31 28 25 22 26 35 23 29 59 65 63 60 77 68 80 86 99 100 100 100 94 100 96 88 80 79 62 64 77 84 92 96 99 89 100 96 94 98 98 97 98 98

GFSCGP_500_rhum_084.txt.gz
RH
98 89 69 83 97 94 75 69 70 77 64 72 55 63 56 64 62 52 40 17 27 26 41 54 40 45 30 26 45 39 50 49 40 44 61 62 85 95 96 96 96 96 97 97
97 76 87 100 91 87 72 65 69 82 71 73 64 55 49 54 69 64 35 19 25 23 56 50 37 44 23 32 38 36 63 62 52 56 72 85 94 95 95 96 96 97 97 94
100 97 97 94 96 95 79 70 83 73 79 71 58 51 48 48 65 56 24 20 22 28 48 43 35 25 19 21 24 42 72 82 73 76 98 85 83 83 95 94 96 95 97 96
84 98 94 97 81 77 68 86 73 74 81 65 57 51 39 58 68 66 41 24 23 31 37 36 31 25 20 17 17 35 49 42 85 89 85 87 98 98 96 94 93 97 97 96
73 48 96 74 55 90 75 84 74 73 72 65 60 45 38 53 76 74 40 20 24 26 37 33 16 13 16 15 16 17 34 60 34 75 96 97 96 96 94 87 94 96 96 96
75 88 90 86 77 49 50 58 62 61 62 45 52 48 36 58 70 63 41 19 29 36 42 24 23 13 8 8 10 11 13 20 36 24 80 97 97 100 99 94 93 93 97 92
49 28 30 58 52 36 37 39 54 53 46 41 38 46 44 49 88 62 22 20 29 35 32 21 19 18 19 16 11 10 9 10 11 11 15 34 54 48 53 45 38 43 42 34
87 88 83 72 28 17 25 34 55 65 80 62 38 33 37 55 83 67 38 21 24 35 35 22 21 23 20 24 24 22 15 23 31 14 12 11 12 16 16 13 12 12 13 12
19 44 80 57 76 17 14 19 26 38 46 48 50 38 36 48 79 75 32 26 30 37 44 39 23 22 20 20 28 30 29 29 33 27 24 23 21 18 16 14 13 14 16 15
7 6 8 21 24 19 18 16 16 20 24 35 30 32 38 46 78 84 32 24 30 36 51 32 29 21 21 21 25 30 34 37 34 32 30 28 24 22 22 19 20 20 20 21
6 5 8 8 7 10 9 14 15 14 15 19 24 58 40 47 63 90 49 27 37 34 48 57 58 24 22 22 24 30 31 31 35 42 37 40 40 40 34 32 31 33 35 30
6 7 7 7 8 11 9 9 12 13 16 15 17 31 58 72 63 88 82 26 50 58 57 67 60 29 29 26 27 33 38 40 41 43 55 59 67 70 81 90 92 94 100 89
5 5 6 7 8 8 7 13 14 14 13 14 13 28 29 66 50 74 96 31 48 72 67 61 52 50 47 37 27 28 31 34 46 65 80 85 79 86 96 98 87 96 97 94
4 4 4 7 26 17 7 8 8 22 15 24 19 22 30 34 57 90 97 58 84 77 84 90 95 89 67 53 47 37 49 44 47 47 37 43 64 83 81 63 44 48 55 90
4 4 5 5 7 12 8 7 8 10 5 12 22 23 33 39 51 92 99 95 100 100 98 95 92 93 80 72 63 52 67 57 43 31 39 42 40 40 41 34 39 44 36 43
12 16 14 10 33 20 9 6 18 8 11 16 30 23 49 40 55 67 100 96 95 100 100 100 91 93 95 83 81 67 58 62 63 58 44 34 32 33 39 42 49 44 35 36
23 20 25 19 48 84 40 39 65 30 17 6 12 27 60 49 55 63 90 96 89 92 97 96 98 97 84 77 82 78 77 83 70 65 47 41 28 28 37 38 39 29 42 73
34 32 26 27 52 73 56 69 45 50 28 24 13 22 54 76 77 80 80 92 93 74 95 95 97 97 92 95 92 72 60 82 94 76 51 52 47 40 33 31 28 25 29 41
69 61 38 34 43 48 85 100 96 68 47 34 47 67 74 61 55 57 62 80 88 90 97 86 90 98 98 95 95 82 87 99 92 68 63 58 51 41 35 38 34 38 39 25
47 27 25 19 57 62 91 99 100 78 91 49 45 75 70 64 69 84 62 61 71 82 83 86 98 100 98 97 98 100 96 93 88 92 79 69 45 41 51 42 32 31 37 40
75 42 39 35 90 93 90 96 100 100 100 100 72 83 85 75 69 71 69 63 67 71 70 70 84 96 96 97 74 74 91 97 80 88 89 72 70 54 55 48 35 30 33 41
100 87 48 58 81 83 77 75 100 100 100 95 100 100 100 100 92 74 70 69 79 79 97 99 86 88 93 97 92 81 99 93 62 95 89 92 77 63 66 58 53 47 43 47
91 90 100 76 78 84 90 96 92 100 100 99 92 95 89 87 75 61 60 57 90 95 100 97 91 90 98 99 89 85 99 81 95 100 100 100 100 79 78 88 93 96 97 97
43 46 83 100 100 100 100 100 92 96 80 86 91 100 100 98 98 89 63 57 62 97 96 98 97 99 94 97 91 100 97 93 100 100 97 96 99 88 91 97 97 100 100 93
41 39 34 40 53 70 80 80 77 90 92 88 71 76 90 75 89 96 100 100 84 89 99 99 92 97 99 97 95 99 100 100 98 100 98 93 90 95 90 95 98 99 96 95
55 46 38 32 30 31 32 26 28 26 26 33 42 51 74 60 52 76 80 97 100 100 100 100 100 100 99 99 99 96 100 100 100 99 95 95 89 97 95 100 98 97 85 100

GFSCGP_500_rhum_087.txt.gz
RH
90 86 54 81 96 100 99 77 85 76 100 96 58 59 53 55 54 59 62 63 61 19 17 18 28 41 42 43 28 28 34 26 32 41 35 54 71 66 73 88 94 97 97 96
83 73 87 100 100 96 95 86 75 77 78 87 64 66 52 52 52 54 65 66 54 16 14 19 33 40 44 28 24 27 38 45 49 45 37 47 75 88 77 94 96 98 96 96
88 79 74 94 96 98 95 95 99 92 95 100 63 63 57 53 53 58 64 54 54 19 15 22 33 34 31 20 17 22 44 72 68 61 41 63 86 98 93 96 96 95 96 97
92 92 84 90 97 100 94 99 98 95 89 88 94 62 53 52 51 61 62 56 58 18 16 32 35 24 30 20 17 21 32 43 70 90 63 86 96 98 94 96 96 96 96 96
90 97 84 91 100 97 90 96 95 98 93 97 80 75 42 54 57 66 57 49 57 18 21 30 35 27 13 15 16 14 19 29 45 32 79 79 90 97 96 96 94 95 96 96
98 83 96 80 68 96 99 96 100 98 95 77 72 71 66 46 70 60 64 58 52 16 24 28 28 23 16 9 8 8 11 31 18 23 68 85 97 97 93 95 95 93 90 94
100 89 58 100 95 94 97 90 97 98 91 68 76 64 80 54 71 76 62 58 27 14 23 29 26 18 18 22 18 10 9 8 8 13 20 86 97 97 85 89 88 91 85 92
83 99 76 47 70 99 99 98 90 81 100 100 98 98 99 42 62 69 63 60 46 16 23 31 28 18 21 18 19 21 17 13 27 16 12 17 39 40 40 39 38 28 30 34
42 70 89 67 45 40 28 82 65 86 98 99 98 100 97 50 52 64 65 62 58 19 20 36 40 22 23 19 18 19 22 24 28 32 23 17 13 13 12 13 13 12 13 13
35 19 25 65 89 80 73 47 25 37 42 87 100 88 80 75 42 49 63 57 62 21 19 38 44 28 21 20 19 22 23 25 32 29 24 23 22 20 19 16 14 15 16 16
12 30 13 11 16 85 85 95 52 31 22 38 100 93 98 100 54 85 72 51 68 35 18 30 44 35 25 22 22 20 23 24 25 31 31 30 29 32 30 26 24 23 24 25
42 17 7 8 14 14 41 42 22 20 34 95 99 77 100 93 52 55 66 61 64 58 22 25 33 48 52 31 24 22 22 23 27 30 31 38 38 43 54 58 60 63 68 76
10 14 17 9 10 7 10 12 20 26 18 26 86 100 90 96 93 54 47 64 61 70 30 29 35 47 52 37 34 32 26 22 21 22 29 42 52 60 66 65 73 79 76 78
20 14 8 22 88 57 14 8 7 9 10 21 26 92 83 100 100 77 65 92 76 75 41 51 52 46 46 47 55 48 36 32 31 35 41 34 26 21 43 68 74 72 38 29
10 10 8 7 12 35 14 17 14 9 7 9 25 81 99 65 70 95 81 100 100 98 64 51 68 60 51 46 53 68 55 52 48 45 43 44 32 30 32 31 31 31 28 31
9 13 13 10 11 9 6 6 4 3 5 5 8 11 100 96 96 86 57 66 85 98 92 73 71 83 84 70 71 73 68 68 62 58 57 51 48 44 38 32 28 31 33 31
12 15 13 14 20 18 6 7 4 3 3 4 4 13 45 84 100 91 58 53 84 82 82 98 94 81 92 93 66 58 75 72 78 73 71 67 48 44 29 31 23 30 37 40
19 32 28 19 20 17 22 16 24 13 8 7 4 33 93 100 100 100 65 46 57 69 86 92 97 92 90 90 96 72 72 65 68 77 75 72 78 62 43 33 23 24 29 30
54 56 47 35 21 19 22 28 42 57 17 19 11 87 100 100 99 93 90 16 55 69 81 91 83 89 98 99 97 94 70 70 68 59 80 97 90 73 64 53 39 25 22 24
63 70 61 53 51 30 44 33 89 100 99 84 44 25 97 84 100 94 80 12 38 56 67 80 82 83 88 100 97 100 94 98 86 96 82 92 92 88 74 56 48 35 30 31
75 68 54 50 30 36 92 23 76 92 81 78 95 90 80 38 60 62 54 35 37 29 47 61 62 80 77 83 100 98 99 89 91 84 94 92 82 90 67 80 77 56 44 48
78 78 74 45 33 36 33 69 70 94 100 96 99 84 73 70 44 35 61 66 59 48 51 58 74 73 73 70 75 96 96 88 96 100 97 99 100 100 81 75 98 77 64 62
80 100 94 57 51 89 77 78 96 97 100 100 100 100 100 96 100 100 78 88 84 62 63 59 56 65 70 80 78 96 98 97 97 95 97 96 99 95 93 91 100 94 74 59
66 94 100 100 100 100 100 88 87 88 97 100 99 98 97 100 74 76 79 65 61 56 50 49 60 84 88 96 100 100 89 94 93 92 94 98 94 86 93 98 99 99 88 73
73 50 78 100 100 100 100 100 100 98 97 98 96 86 87 92 100 100 100 99 90 88 64 48 43 68 98 98 94 100 90 98 100 85 85 99 84 94 98 98 92 80 99 99
78 48 58 53 71 68 72 87 98 90 75 32 32 84 82 72 70 94 68 76 85 90 95 83 57 68 96 99 98 96 98 100 86 85 90 100 99 96 94 93 99 98 92 94

GFSCGP_500_rhum_093.txt.gz
RH
12 8 6 14 20 19 17 16 14 14 44 65 77 63 75 72 74 68 63 55 59 56 54 35 38 47 17 14 22 24 23 26 25 25 26 19 19 30 30 38 64 77 78 81
7 5 10 16 13 12 21 20 16 29 55 93 76 48 68 70 79 73 60 61 59 51 42 29 42 42 14 20 22 25 24 19 27 34 34 39 36 34 32 47 66 79 80 86
5 5 10 8 14 15 13 21 35 47 69 76 95 52 74 75 72 55 61 76 83 56 51 29 36 32 16 22 20 20 19 20 23 31 43 56 43 38 46 67 61 68 78 82
6 6 6 8 9 35 14 56 70 83 80 63 90 48 70 84 68 63 75 80 80 63 59 25 41 29 23 24 21 16 16 18 19 38 42 44 63 46 50 51 80 86 95 81
10 11 17 16 17 53 32 71 81 78 71 69 67 85 40 91 84 67 69 73 68 65 47 37 39 33 25 24 22 16 14 11 10 21 24 21 39 56 54 77 94 96 81 86
3 8 9 12 31 43 56 86 92 84 79 60 64 88 45 73 87 80 84 88 77 63 44 38 47 31 27 24 18 16 15 12 9 8 14 26 43 55 70 80 96 94 95 99
16 7 32 64 62 62 65 98 92 83 76 56 91 83 46 80 99 95 98 74 74 68 40 32 31 19 22 21 16 15 15 17 14 10 14 23 70 73 86 95 97 96 96 99
14 18 55 67 64 69 79 100 94 96 84 90 98 80 85 92 89 96 97 94 87 65 45 30 42 20 24 22 16 16 14 14 16 13 18 15 22 81 94 96 96 98 94 96
36 32 68 77 93 79 81 83 93 100 98 90 90 100 97 94 98 97 98 96 85 63 62 39 44 35 23 30 20 18 15 14 14 20 18 18 14 22 56 74 89 95 93 95
48 48 67 79 78 97 88 99 100 94 89 93 83 99 98 100 91 94 98 98 96 82 62 36 37 41 21 34 33 20 20 16 14 15 23 22 19 17 12 11 13 26 57 74
94 87 86 90 92 95 99 96 100 100 88 83 89 94 98 95 98 100 99 99 100 84 60 45 32 44 21 27 38 23 21 22 15 17 19 25 25 25 24 19 16 12 12 14
90 98 66 92 93 81 90 99 98 90 88 100 98 94 100 96 98 97 93 67 100 78 76 51 34 51 26 24 46 28 22 24 19 19 17 20 27 29 26 30 39 31 22 19
99 73 43 53 62 92 94 100 100 100 88 91 84 76 85 98 94 98 96 91 97 100 76 59 46 44 54 28 41 46 41 26 24 20 22 26 25 31 35 33 36 49 57 54
62 27 32 65 87 85 100 66 100 87 76 72 70 81 100 100 99 95 97 92 92 97 94 68 56 62 63 45 40 49 58 36 31 27 25 29 34 37 34 31 25 39 55 57
29 58 54 22 70 87 84 72 56 100 100 95 98 84 99 100 98 98 96 95 98 95 59 61 41 52 50 54 48 58 59 44 39 38 33 36 39 43 42 43 32 21 25 61
30 62 86 61 21 20 90 81 80 72 69 69 76 71 78 86 81 92 100 98 98 85 96 77 50 37 30 49 57 54 58 50 50 52 50 45 40 43 43 49 45 40 33 27
36 92 73 22 75 62 48 48 97 91 77 64 36 18 21 44 56 63 95 98 95 96 88 74 58 56 43 59 77 66 55 60 64 63 64 66 54 47 49 47 54 48 56 45
90 31 22 18 15 22 29 32 40 63 41 35 50 50 37 18 14 45 71 49 35 54 63 66 43 48 43 41 69 97 89 64 56 51 56 56 65 67 59 50 54 64 45 52
96 78 31 63 40 23 24 19 16 14 12 8 5 6 9 8 9 18 22 24 17 12 9 33 61 70 50 38 39 66 80 78 73 58 54 52 69 75 77 64 60 60 50 56
66 31 30 12 11 13 17 15 10 19 10 10 8 8 7 6 20 13 20 59 39 32 12 64 57 51 59 57 77 78 67 76 80 94 86 82 83 78 81 77 67 66 60 72
58 20 20 25 10 16 16 30 71 82 64 21 14 14 20 57 73 72 47 58 56 52 42 91 89 88 86 84 90 94 87 82 70 90 97 95 98 96 97 97 98 88 86 82
100 80 68 57 34 31 32 42 98 100 100 75 41 73 50 100 100 99 83 52 88 98 98 88 83 98 96 65 60 83 79 68 58 65 83 92 99 99 97 99 95 88 95 95
97 95 94 75 73 74 64 39 77 100 100 96 78 87 94 100 100 99 100 95 95 92 96 84 99 92 69 51 36 49 73 76 62 56 65 92 99 100 100 100 100 99 97 92
91 100 94 100 95 99 85 71 85 98 71 54 77 78 100 100 93 98 100 100 100 90 50 65 75 50 41 41 64 65 51 44 58 52 53 60 77 94 99 100 100 98 99 98
87 96 90 97 95 90 98 100 100 96 95 84 64 94 100 100 97 96 100 100 98 96 78 70 80 80 59 61 58 56 58 66 65 66 67 59 64 81 84 86 87 90 86 79
91 100 97 90 91 93 89 92 100 92 84 82 83 78 100 92 98 99 100 98 98 96 95 88 89 96 95 81 68 66 61 49 49 52 79 90 84 81 96 89 94 93 97 97

GFSCGP_500_rhum_096.txt.gz
RH
22 40 29 12 12 12 10 7 5 6 13 23 20 5 5 10 32 53 65 72 58 43 45 53 43 45 63 44 22 17 29 31 27 22 22 25 27 20 16 21 31 37 75 94
17 42 21 14 16 12 8 6 6 7 14 20 24 5 5 11 22 42 63 59 60 51 52 60 48 47 57 46 19 22 25 29 20 22 22 21 29 20 17 25 29 37 68 75
12 11 12 9 9 8 7 5 4 4 22 16 13 3 3 7 17 43 62 61 73 57 78 56 46 44 58 43 20 24 22 21 19 19 19 32 41 44 40 38 33 45 64 82
11 9 7 7 7 11 7 17 13 10 14 9 26 4 4 7 15 42 47 60 77 77 66 59 44 44 61 40 23 26 22 16 16 14 15 18 33 31 51 41 43 62 62 76
15 15 15 12 11 23 8 27 19 16 14 15 8 20 3 14 24 48 49 54 89 92 82 68 49 44 64 53 24 26 22 14 12 9 9 8 25 31 41 44 53 59 81 73
6 6 6 4 6 9 8 17 36 27 28 16 18 61 3 26 44 49 58 98 91 94 92 70 54 41 60 54 25 25 18 17 13 11 9 8 16 47 42 48 53 86 74 74
8 6 5 5 5 20 35 47 76 53 34 17 33 55 20 46 61 54 53 73 78 100 86 68 53 59 51 34 25 21 16 18 16 19 14 12 19 59 56 70 90 95 98 89
4 5 7 8 6 33 62 71 71 70 66 49 64 40 35 84 65 67 72 78 92 100 66 65 47 51 23 25 29 18 17 16 14 18 16 14 16 25 90 95 94 88 84 87
6 4 6 11 20 31 44 60 65 75 76 64 51 48 61 72 100 83 86 94 98 97 76 65 53 71 30 38 31 20 19 16 15 17 22 20 16 13 25 93 93 91 88 93
11 5 15 28 40 46 49 73 92 88 70 70 43 58 62 95 97 100 96 98 85 72 98 81 59 70 65 33 32 29 22 17 16 17 19 24 19 16 13 12 30 63 82 91
21 20 39 41 55 72 86 78 95 71 81 78 66 64 76 97 99 98 99 93 90 98 98 88 80 74 74 35 32 41 29 20 20 17 18 21 24 22 20 20 16 12 13 41
62 40 44 82 97 98 72 90 99 98 86 77 75 64 98 99 98 98 98 94 95 96 88 100 78 62 63 34 30 46 37 22 22 17 19 19 22 25 26 30 34 27 16 14
92 98 96 100 100 100 100 93 93 73 92 98 85 96 100 92 96 98 99 94 98 100 68 68 77 60 72 37 35 50 44 26 23 21 21 22 19 22 29 34 32 33 44 36
100 96 99 100 82 91 85 86 94 78 70 83 80 87 97 91 99 98 99 100 97 95 79 57 87 64 78 56 35 39 49 48 33 25 23 23 27 27 27 33 32 36 39 43
95 100 90 96 69 59 63 97 98 90 83 70 81 87 90 76 97 97 96 98 98 98 97 85 89 58 69 68 52 41 44 48 54 37 28 23 27 32 36 37 40 32 25 29
100 100 76 58 39 64 79 100 100 94 100 100 100 100 90 80 92 99 95 96 98 98 98 74 79 72 44 63 70 61 52 51 65 48 35 31 29 36 43 44 44 42 39 30
100 55 44 58 75 57 46 37 100 96 97 85 97 92 99 99 98 100 100 92 85 99 89 96 88 75 70 79 98 94 96 95 85 76 66 52 41 45 49 52 52 51 48 38
56 29 29 32 75 77 73 79 54 84 92 77 82 82 65 54 65 97 96 95 83 99 97 94 98 86 76 72 72 75 95 99 100 98 86 68 75 88 71 64 60 59 57 61
18 16 25 88 78 36 32 39 61 55 52 63 90 74 50 54 48 44 66 84 76 79 96 90 82 70 52 44 54 63 57 44 94 96 93 90 94 87 87 82 64 63 66 76
35 24 71 80 49 43 32 30 29 35 24 23 20 17 17 9 10 16 36 25 28 41 74 98 97 44 35 68 49 24 18 33 37 73 96 98 91 95 82 89 98 89 72 70
47 84 81 80 73 59 47 25 22 24 23 20 19 16 16 14 10 20 31 20 24 52 70 94 80 66 74 71 44 37 44 38 21 24 53 85 93 98 98 97 97 97 88 90
77 65 25 26 31 25 28 32 36 73 76 72 70 75 42 23 16 48 53 23 18 15 40 57 81 78 65 67 70 73 66 86 46 26 29 54 91 100 98 98 98 97 96 94
100 98 76 43 42 48 44 47 44 76 100 97 100 100 79 64 55 84 100 100 83 67 58 51 79 92 90 89 67 72 85 94 60 44 35 32 40 58 74 93 86 98 96 98
100 100 96 85 78 76 86 87 44 63 98 100 99 85 80 84 84 94 100 100 97 100 94 63 86 94 60 92 81 78 83 95 61 39 27 24 26 35 48 64 75 92 98 98
98 100 100 96 94 95 93 94 99 83 64 71 78 68 50 54 70 86 99 100 100 93 79 92 100 89 50 46 70 50 46 49 40 53 55 47 38 45 44 40 48 65 83 86
96 87 89 100 86 82 100 100 95 100 100 92 71 56 51 48 51 60 81 94 96 99 96 93 84 75 74 69 84 73 67 61 53 52 44 44 51 58 59 63 75 74 84 83

GFSCGP_500_rhum_099.txt.gz
RH
41 42 42 34 27 25 30 27 19 16 13 13 10 8 8 8 6 8 11 14 18 37 52 62 66 57 58 70 52 42 43 16 21 25 28 21 21 22 25 28 19 19 28 50
46 46 39 32 26 28 35 37 16 11 13 13 11 8 8 8 8 6 10 10 9 23 34 48 62 63 62 73 58 46 37 18 22 25 22 20 20 22 36 36 22 17 26 47
38 37 30 25 23 26 23 46 14 12 19 12 9 9 8 7 6 5 5 7 12 29 27 28 47 63 63 72 72 49 28 22 22 18 19 18 15 16 28 37 34 26 31 54
38 30 29 19 15 16 19 28 17 10 9 8 15 10 10 7 6 7 11 12 7 19 32 33 62 66 63 70 74 55 25 27 25 18 15 13 11 9 19 30 48 36 32 41
26 21 11 12 10 13 10 26 21 18 13 10 10 11 10 7 6 14 10 6 4 25 30 37 68 82 70 64 72 58 27 27 25 16 14 11 11 8 11 25 43 38 36 56
20 17 15 11 8 8 9 13 18 17 16 11 12 12 8 7 7 4 6 6 4 21 28 41 76 82 78 59 67 58 32 28 22 16 14 15 15 12 16 60 42 40 46 51
19 14 12 13 15 16 16 18 22 24 14 7 12 17 10 7 7 5 5 10 18 37 39 77 70 86 85 62 58 61 32 28 18 16 15 16 16 14 17 60 49 54 52 63
9 9 7 6 6 9 12 21 17 23 23 14 22 8 6 10 8 12 11 16 40 41 51 92 84 100 94 56 52 55 29 22 17 16 15 14 18 15 16 71 66 63 75 82
6 6 11 10 12 15 20 16 36 57 34 27 15 10 11 14 18 38 41 47 66 54 62 91 93 97 92 56 31 25 29 19 18 16 15 14 20 17 16 47 93 99 100 89
6 6 9 10 8 8 13 48 77 63 40 55 25 32 24 30 47 48 56 83 90 88 100 89 99 95 98 49 31 25 30 21 19 17 16 16 18 21 16 13 46 92 90 91
7 6 10 12 15 19 28 28 62 66 59 84 50 31 34 49 50 53 81 98 99 98 98 98 96 98 92 82 54 34 33 24 22 18 18 18 19 24 20 20 18 12 31 47
28 11 6 21 27 22 37 53 87 85 77 87 94 55 72 62 66 100 97 98 98 98 97 98 96 94 81 96 82 64 41 38 26 21 21 19 19 22 25 23 23 24 20 11
91 77 58 41 48 47 99 93 77 79 82 92 87 61 66 84 94 93 97 98 98 94 91 100 87 86 99 90 79 66 40 48 37 23 22 20 19 20 27 27 24 26 28 27
86 78 90 99 82 63 100 83 98 99 100 84 85 81 100 89 89 81 98 98 98 90 97 97 89 88 80 92 95 57 37 47 42 28 23 22 21 23 23 32 35 33 27 30
72 88 97 100 81 96 100 100 100 99 99 96 100 100 100 96 87 92 99 97 98 100 98 85 90 91 88 92 82 56 49 58 63 52 30 27 25 23 26 33 38 36 34 29
94 100 100 98 94 78 92 86 91 82 92 89 100 91 96 93 100 96 95 100 98 99 91 81 75 100 89 90 84 74 77 91 86 75 60 54 31 25 24 31 36 42 43 40
100 100 100 92 64 59 52 44 78 85 91 99 100 100 100 100 100 98 96 100 97 98 99 98 99 100 97 93 92 99 100 100 98 97 94 83 71 36 27 29 36 42 47 47
100 100 79 43 46 58 70 88 90 70 71 87 94 95 89 86 93 98 98 98 100 95 97 99 100 100 98 90 92 93 99 95 98 98 98 97 98 92 86 48 40 45 53 56
100 100 55 31 47 64 60 63 86 100 90 86 93 87 91 93 90 75 62 68 96 98 95 93 98 97 99 96 98 97 98 98 96 98 99 98 97 94 94 96 98 97 74 63
99 25 41 26 18 30 62 69 56 64 95 77 63 58 75 88 84 79 65 62 70 76 84 89 90 91 92 91 92 95 82 54 66 76 86 79 93 97 99 98 96 95 97 97
62 44 46 40 22 42 70 42 35 51 55 52 47 31 26 47 26 24 41 23 46 52 55 56 87 91 100 91 85 60 44 39 53 38 29 27 38 56 83 98 98 99 97 93
32 31 27 24 23 74 82 59 64 70 61 51 37 25 23 19 20 19 18 15 32 39 75 48 82 97 76 97 100 96 74 68 60 52 60 49 46 42 35 48 77 96 97 99
67 47 39 45 61 61 88 89 49 38 35 60 90 93 99 98 61 32 21 95 100 100 98 71 18 18 55 72 76 88 87 69 75 58 34 54 64 64 56 33 32 42 65 86
100 100 96 97 58 61 65 74 74 60 53 65 100 100 100 96 85 72 77 80 100 97 100 100 100 77 60 52 70 81 63 58 62 56 59 63 57 76 66 40 27 22 33 40
100 100 100 99 100 100 100 100 100 98 82 63 80 98 92 78 58 46 62 82 100 100 100 98 97 100 99 72 82 44 40 46 53 51 60 62 60 59 50 26 27 30 25 34
100 100 100 100 99 100 100 100 98 100 88 87 85 86 76 57 47 39 36 39 65 92 88 72 72 100 98 97 85 52 59 57 55 47 34 28 27 36 40 35 40 45 52 52

GFSCGP_500_rhum_105.txt.gz
RH
99 97 81 96 98 99 88 78 68 62 57 51 44 36 29 25 22 22 25 30 32 33 40 35 20 25 28 26 24 20 47 70 63 57 62 52 39 17 21 19 18 17 19 25
97 78 98 100 97 96 97 97 88 67 57 52 42 35 30 28 31 29 23 22 27 26 21 17 20 21 22 23 27 19 38 61 70 66 67 54 38 18 18 17 15 14 14 15
98 95 100 98 99 97 98 96 79 61 54 42 37 34 31 32 35 35 32 22 19 14 11 12 16 13 11 16 21 16 31 60 72 61 69 55 39 19 19 15 13 13 9 15
84 96 98 100 97 100 97 98 70 55 45 38 37 33 33 35 36 38 36 22 18 16 10 8 8 9 8 9 13 13 23 62 80 69 68 59 37 18 19 13 13 14 12 14
92 100 99 98 100 98 96 98 97 93 48 38 38 36 31 32 34 37 32 22 15 11 10 9 7 6 6 8 10 12 25 54 87 89 75 60 36 20 17 14 14 17 14 14
98 99 99 100 100 100 93 83 82 57 37 39 38 37 32 32 31 33 32 20 14 13 12 13 11 6 5 5 6 11 25 58 95 97 81 62 38 20 16 14 14 15 14 16
89 100 100 100 100 98 96 83 75 71 49 36 32 31 30 29 27 24 23 23 22 17 17 22 15 7 4 4 4 8 17 52 98 96 81 62 34 19 16 13 15 15 16 52
93 64 99 100 90 81 84 75 49 39 36 26 23 27 23 20 18 16 15 14 15 16 15 12 10 8 6 5 4 8 17 62 99 94 80 55 31 17 15 14 16 16 33 71
78 72 45 48 44 54 56 56 33 26 21 18 16 18 13 12 13 14 14 14 13 12 11 12 14 14 11 6 3 11 22 64 89 94 75 50 29 17 15 16 17 16 46 78
56 81 91 93 63 48 48 33 24 20 17 16 16 16 16 16 14 11 9 9 8 8 7 8 8 5 3 3 4 15 22 67 96 97 61 51 24 16 16 17 19 18 20 87
100 92 78 81 59 36 20 22 18 14 14 13 14 13 12 11 10 10 10 8 6 5 4 3 2 2 3 5 14 25 37 97 100 85 53 52 19 17 19 18 19 18 21 15
92 63 52 56 41 25 16 14 13 11 12 13 12 12 11 9 9 7 6 4 3 4 3 2 2 11 18 36 49 64 100 98 98 72 61 35 18 18 20 19 18 19 19 24
71 55 52 31 35 30 22 20 17 13 12 9 11 8 6 6 6 5 4 4 5 8 10 13 11 68 76 72 75 77 96 99 93 61 37 42 20 19 21 21 19 18 20 23
64 63 65 68 36 29 26 21 17 14 11 11 9 17 25 27 22 14 8 11 24 23 21 90 73 70 83 83 96 100 98 99 69 39 39 46 22 21 22 23 20 21 19 17
35 32 32 44 58 49 44 26 13 9 10 11 12 40 60 61 58 50 44 51 49 48 33 81 99 83 91 95 96 96 98 95 69 56 46 59 27 25 22 23 24 22 24 23
19 22 22 22 22 41 34 65 52 43 48 36 30 63 62 76 63 89 75 85 74 68 75 94 97 95 97 96 96 97 93 72 89 78 71 80 50 31 27 23 24 26 24 26
95 57 27 20 17 17 24 48 51 64 66 50 64 80 78 54 74 90 100 88 85 88 93 97 96 100 99 98 95 98 98 97 92 82 88 86 92 60 38 28 25 27 28 26
100 81 41 42 40 18 13 45 54 93 87 66 63 56 47 40 60 81 86 97 94 94 87 96 100 98 98 99 98 94 96 96 95 88 92 97 95 85 72 53 39 31 32 29
100 99 78 98 85 91 77 67 89 86 67 70 85 92 72 81 76 88 90 96 96 94 96 96 99 96 98 98 97 98 98 97 97 98 97 97 95 96 97 95 87 84 91 83
100 95 89 83 88 100 100 100 95 84 82 72 72 98 100 100 93 92 98 97 77 84 99 95 98 99 98 99 98 98 98 98 93 97 95 100 99 97 97 99 98 99 98 96
85 85 88 100 100 99 100 96 72 66 67 65 62 63 65 70 82 83 86 69 82 72 95 98 95 98 98 94 98 99 97 94 94 95 94 89 90 97 96 99 99 99 97 93
67 66 77 100 92 72 62 54 53 46 51 47 46 56 66 66 42 34 28 23 46 34 71 88 100 98 98 99 98 95 98 93 96 95 86 81 90 85 75 58 50 53 44 31
64 65 74 76 98 97 85 51 50 66 71 61 64 68 78 62 78 98 87 57 77 86 58 90 93 92 95 99 98 94 100 100 98 96 96 93 92 93 77 63 54 46 36 27
88 98 61 51 77 92 59 71 61 62 75 78 80 72 48 63 100 97 85 83 82 100 100 99 100 99 100 96 94 96 97 99 98 91 90 91 89 78 60 46 44 48 40 36
98 100 98 90 100 92 82 64 64 81 98 94 77 64 59 64 100 100 82 80 97 100 100 100 100 100 100 100 99 99 99 99 97 78 57 51 59 61 56 51 36 29 35 45
100 100 100 100 100 99 98 96 97 100 100 100 98 100 98 97 95 93 83 74 59 80 97 95 99 94 95 96 91 73 79 91 92 81 71 72 71 49 56 58 64 54 41 29

GFSCGP_500_rhum_108.txt.gz
RH
25 62 70 67 88 94 99 94 84 89 79 73 61 54 52 48 44 42 41 41 40 42 52 44 37 32 29 28 29 26 30 33 24 28 57 58 59 55 61 48 20 19 17 16
12 18 65 100 100 100 96 97 90 98 90 94 80 60 57 52 46 44 40 35 30 26 27 27 23 22 21 23 23 22 25 32 24 26 59 55 65 60 63 51 22 18 16 14
5 34 78 97 99 98 95 84 99 98 99 95 91 68 62 58 49 45 39 31 27 27 26 23 22 20 19 19 17 14 14 20 21 24 38 47 59 68 66 55 24 19 15 13
27 34 30 80 89 100 96 100 100 97 95 91 93 71 65 56 50 44 37 30 31 35 35 33 23 18 15 13 12 10 11 11 14 18 35 51 59 69 70 61 25 20 14 12
32 40 70 95 100 99 93 99 100 97 87 96 89 79 67 56 45 40 36 34 34 36 35 34 27 20 16 10 8 8 8 9 13 17 43 49 61 73 76 61 26 19 13 12
83 70 67 98 99 99 100 98 98 99 99 86 84 80 65 50 42 38 38 37 36 35 33 30 23 15 11 10 9 7 6 6 10 18 47 63 90 78 75 66 29 17 12 12
100 92 84 100 100 99 99 100 100 98 89 75 82 84 65 48 41 39 36 35 33 33 35 31 24 16 12 12 13 10 6 6 7 16 54 80 93 81 70 71 30 15 12 12
97 88 93 100 100 100 100 100 100 100 100 92 83 73 61 40 37 35 33 32 30 27 27 28 28 25 20 24 26 14 7 6 7 13 58 94 98 76 69 68 28 14 13 13
97 98 83 87 99 100 100 91 100 95 90 85 77 89 82 33 25 24 23 23 19 17 17 17 16 17 17 16 14 10 8 7 6 13 61 94 91 76 68 61 24 15 14 16
96 93 83 45 61 98 90 63 79 87 83 75 65 52 28 26 17 15 14 14 13 14 14 14 14 14 14 14 13 12 12 9 5 9 49 88 84 75 70 58 19 17 14 19
39 72 83 93 83 44 73 76 66 63 55 42 39 69 24 17 16 15 15 16 16 16 17 18 17 16 15 14 10 6 5 4 5 11 48 81 78 81 72 47 17 18 15 19
93 99 100 96 94 95 99 99 92 89 84 67 32 52 23 16 15 15 13 12 12 12 11 11 10 9 9 6 4 3 2 3 6 15 55 96 91 85 72 36 17 20 16 20
100 99 100 99 98 94 86 56 34 20 19 22 44 95 32 19 15 12 10 9 9 8 7 7 8 9 8 4 2 3 4 4 17 30 77 96 96 92 67 27 18 20 17 19
98 100 100 100 100 100 96 54 30 23 18 20 21 70 12 10 8 6 5 4 4 3 3 2 2 2 2 2 20 34 37 29 53 73 86 90 91 90 51 21 18 22 18 19
66 78 88 91 94 78 61 54 36 26 18 14 40 12 9 8 7 9 7 6 4 3 2 2 1 2 6 79 77 78 72 54 72 81 92 98 93 64 37 24 20 22 21 21
22 29 34 36 32 51 58 40 27 21 15 13 14 26 10 9 11 30 40 27 12 9 6 2 4 7 23 97 84 88 75 63 53 84 99 97 98 39 48 26 21 22 23 22
18 23 20 24 23 21 20 22 35 40 50 48 53 41 40 23 44 49 45 58 60 52 41 55 56 55 65 94 81 84 75 77 98 98 97 97 73 43 58 36 28 24 24 25
93 64 32 26 24 24 23 20 17 18 27 47 55 48 52 49 51 51 45 47 73 67 70 77 92 90 98 98 70 99 97 99 95 96 95 95 79 57 73 68 40 35 27 25
67 93 95 52 46 51 38 28 37 25 42 60 64 59 55 49 42 40 35 52 60 67 74 77 87 96 99 93 80 97 96 95 97 96 98 95 92 94 89 95 88 65 62 48
84 100 94 89 87 98 87 100 69 67 76 77 70 56 84 87 63 62 70 50 76 87 80 78 96 98 100 96 99 98 95 97 99 95 97 98 96 95 96 97 96 92 84 77
99 100 100 96 90 85 72 100 100 97 97 76 66 67 78 97 77 70 76 76 84 82 79 83 97 99 98 97 99 100 99 98 99 98 97 97 98 96 98 97 98 98 98 98
90 92 96 96 100 100 94 100 100 100 93 73 68 57 52 59 64 53 62 70 43 34 56 67 89 96 98 100 96 98 98 98 98 96 100 85 94 96 96 97 98 100 94 94
100 94 100 88 100 100 100 76 67 66 54 56 54 56 64 70 68 49 56 36 37 71 98 66 87 95 95 97 100 99 98 97 95 100 100 99 96 89 94 89 83 89 91 95
87 76 74 86 82 98 95 89 52 47 56 69 76 77 72 62 56 89 97 92 80 88 100 100 96 94 97 98 97 97 99 98 100 100 98 96 90 90 88 90 84 82 81 78
84 84 100 88 68 61 79 75 83 62 75 86 83 73 63 56 55 99 96 88 95 100 98 100 100 100 100 100 98 100 99 98 97 98 99 94 93 87 86 81 76 67 58 54
99 100 100 96 69 91 83 87 65 85 99 97 100 88 87 90 71 94 100 90 82 100 100 100 100 100 99 99 100 96 99 100 100 99 100 100 93 76 62 56 53 54 49 41

GFSCGP_500_rhum_111.txt.gz
RH
5 6 9 16 18 34 86 100 97 95 99 91 74 68 69 71 84 71 52 48 46 47 47 50 49 38 40 44 37 35 34 29 26 26 29 31 33 21 45 54 55 56 55 34
3 3 16 6 16 36 89 100 80 94 99 93 84 71 72 72 77 78 58 46 48 50 52 49 41 33 35 43 46 44 37 29 22 28 28 31 33 28 23 55 57 63 62 42
3 3 6 8 12 28 74 88 71 100 99 82 86 81 81 75 78 77 65 49 50 49 47 42 34 29 24 28 30 31 29 23 17 19 17 24 30 33 21 55 58 65 66 47
35 3 8 10 16 31 61 84 100 99 96 77 99 87 100 96 87 83 67 55 54 51 46 40 32 25 23 24 24 22 22 18 13 14 13 17 20 34 31 48 49 67 72 50
100 96 30 7 12 22 54 100 96 96 96 98 100 90 86 100 89 96 85 64 61 55 47 40 31 27 34 35 34 28 20 17 12 9 10 12 11 26 22 33 47 73 76 49
100 93 65 33 85 84 100 96 100 100 98 94 75 91 98 100 95 97 95 80 66 57 45 36 30 30 34 34 32 31 22 17 11 8 8 8 12 20 15 28 46 72 78 62
100 100 77 98 78 86 92 100 100 99 94 63 96 98 82 100 88 98 96 81 56 44 39 36 34 34 34 31 29 26 16 12 10 9 7 7 10 15 12 24 41 68 78 61
100 100 100 96 93 87 99 100 98 95 96 86 100 92 96 97 99 100 98 97 88 72 38 36 35 33 32 30 29 24 16 12 11 12 10 6 7 12 11 20 40 64 78 52
99 100 100 100 100 100 98 98 100 88 89 99 98 100 95 100 100 97 86 65 54 42 39 35 33 32 30 30 29 28 25 15 17 21 17 6 5 8 10 16 38 54 83 45
100 100 100 100 100 100 100 100 98 100 99 100 100 100 100 95 95 71 49 49 53 44 40 32 30 28 26 22 19 17 16 18 18 15 12 8 6 5 6 13 34 54 80 36
100 95 91 94 84 73 100 100 100 100 100 100 100 100 96 86 98 93 65 59 53 52 28 21 22 21 20 16 14 14 14 14 14 14 13 13 9 6 7 18 38 62 76 27
95 100 99 88 91 70 61 58 92 73 100 100 100 100 100 100 82 53 62 43 17 15 16 17 17 17 16 16 17 17 17 16 15 13 10 7 8 6 9 22 40 73 74 22
79 100 100 100 95 95 81 64 88 82 94 100 95 98 84 71 61 35 23 24 59 47 17 16 18 18 19 18 16 14 9 9 7 6 3 3 3 4 13 34 43 89 73 19
100 97 100 100 99 100 100 98 98 100 100 100 100 98 99 96 79 51 17 46 33 10 13 14 12 14 14 13 11 9 6 5 3 3 3 3 3 4 20 45 53 98 63 19
97 100 100 100 100 100 100 100 100 100 100 100 100 99 98 98 78 29 48 15 6 6 6 4 4 5 5 6 6 4 2 2 8 8 9 4 11 16 32 43 67 99 47 19
57 64 90 98 97 98 99 96 94 100 100 94 79 100 63 18 20 20 8 6 6 7 5 4 3 2 2 2 2 2 2 2 62 47 28 18 30 43 63 63 97 95 31 20
31 40 45 62 62 51 36 41 45 56 64 35 48 93 79 63 43 22 12 10 18 13 5 3 3 3 4 3 3 2 31 70 76 86 67 44 44 59 66 89 100 71 28 20
46 34 43 55 31 28 37 40 22 34 49 36 49 54 51 29 24 21 18 20 22 22 25 13 22 39 24 14 29 99 63 77 73 87 85 69 70 65 83 99 94 52 33 22
100 80 60 58 42 76 47 32 44 38 54 31 20 31 40 48 40 32 39 32 32 30 31 39 52 54 58 49 87 66 81 72 73 94 80 78 82 86 98 96 60 60 39 31
51 63 65 83 61 79 100 62 40 52 72 63 43 43 46 53 46 43 40 37 32 31 33 45 55 56 69 80 96 97 94 89 94 92 94 95 96 98 96 84 74 74 72 53
73 93 90 73 89 90 100 74 100 65 99 94 70 55 70 64 63 79 82 74 68 62 56 60 70 69 96 98 98 97 100 100 98 99 98 95 98 97 97 96 95 95 96 97
100 100 99 96 100 100 85 70 100 100 98 100 86 83 78 71 71 87 79 66 66 64 66 48 58 84 97 98 98 98 98 98 97 95 99 99 96 97 96 98 95 97 97 97
100 94 100 100 100 90 86 88 100 100 100 100 100 92 66 54 56 63 66 47 54 55 29 98 82 84 98 98 98 99 98 98 100 100 98 98 98 98 98 98 99 98 97 95
96 84 89 92 98 100 100 100 100 99 94 98 79 62 56 62 68 68 61 71 75 65 73 100 100 100 100 99 99 97 98 98 98 99 97 97 96 98 99 97 96 96 96 96
86 91 78 63 89 95 97 100 96 76 58 69 73 74 73 76 70 58 68 99 95 100 100 100 100 100 100 100 100 99 97 98 99 97 97 99 100 100 98 87 89 93 91 88
79 79 81 79 100 82 100 100 100 92 68 72 81 86 82 70 69 67 66 100 100 93 99 100 100 100 100 100 100 100 100 99 98 97 99 98 99 97 99 96 98 97 91 78

GFSCGP_500_rhum_114.txt.gz
RH
3 2 2 4 6 6 13 15 20 22 46 99 98 72 86 98 82 75 77 92 82 61 58 49 42 38 36 35 38 42 47 40 32 31 37 33 24 32 28 23 16 15 29 53
12 19 2 2 5 5 10 7 17 45 65 100 93 91 79 90 57 68 85 81 82 67 55 52 50 44 41 39 39 45 46 42 37 36 38 32 27 32 30 25 18 21 27 33
18 35 16 3 4 6 6 10 12 20 95 93 89 92 84 76 66 72 79 79 84 85 73 64 60 47 39 39 43 43 36 29 34 31 24 22 21 27 24 28 21 18 25 15
86 97 56 33 6 40 7 7 18 87 100 91 93 87 86 72 76 77 76 73 74 67 71 97 72 49 38 37 43 36 29 22 23 22 21 17 20 18 21 20 16 9 17 13
100 100 100 100 16 28 37 84 95 100 100 72 94 81 57 88 94 86 90 98 98 82 83 91 87 54 44 44 43 36 27 24 29 32 27 21 16 13 12 13 11 8 13 14
96 67 96 97 95 68 93 100 100 96 74 94 64 99 55 77 86 97 98 92 99 95 90 91 94 77 55 51 42 36 26 29 35 34 32 28 16 10 8 8 10 10 11 11
100 88 84 81 100 97 100 100 100 90 66 22 68 97 63 95 96 96 98 98 93 84 89 98 96 92 71 59 46 38 28 31 35 32 30 23 16 10 8 7 8 8 10 12
96 100 72 82 91 98 87 67 36 49 42 42 95 76 58 99 95 100 100 96 89 69 82 100 91 74 63 66 55 38 30 33 34 29 24 16 12 10 9 6 5 6 9 12
100 100 98 99 100 100 98 79 99 100 93 89 85 87 96 98 99 100 99 93 99 100 98 90 72 64 72 56 44 34 34 34 32 29 22 15 12 12 19 18 5 5 7 12
89 90 73 100 98 99 99 98 98 100 100 100 98 100 100 98 97 99 100 100 100 96 85 81 80 71 58 55 41 34 33 32 30 29 27 23 15 18 22 20 8 4 7 5
76 100 59 53 94 99 100 100 100 100 100 100 100 100 95 100 98 98 100 100 94 76 65 63 53 42 48 51 35 32 30 27 24 20 17 15 18 16 14 12 9 7 6 6
60 78 100 92 99 97 100 100 100 100 100 100 99 97 88 96 100 100 87 80 77 95 91 72 72 66 61 53 23 21 21 17 16 15 13 13 13 14 14 14 14 12 8 7
83 98 94 95 81 84 90 88 100 100 100 91 94 88 80 100 100 99 68 78 95 94 49 19 16 16 23 27 18 18 18 17 17 16 16 16 16 15 14 13 13 10 8 8
94 100 100 100 100 95 100 95 99 100 96 100 99 95 98 99 87 72 91 74 45 55 57 64 38 16 14 19 21 21 20 18 16 14 12 11 10 7 7 8 6 5 5 10
87 100 100 99 100 100 99 87 84 93 95 99 99 100 87 90 89 100 100 93 46 45 20 5 5 6 11 17 18 18 16 11 9 6 6 4 3 5 2 3 3 3 5 12
20 77 96 99 100 100 100 100 100 72 89 91 100 94 78 100 100 100 98 17 18 7 6 8 7 5 5 6 8 8 8 7 7 7 6 6 5 5 4 2 4 6 25 26
17 22 44 81 96 100 98 100 100 100 100 100 97 86 100 99 92 72 32 27 13 9 10 11 11 10 4 3 3 3 3 3 3 2 2 2 15 27 22 8 17 42 56 60
20 27 26 42 84 88 84 60 59 51 50 51 64 90 84 79 96 65 21 14 12 9 8 9 11 10 8 4 3 3 2 2 3 21 29 61 71 50 25 23 37 74 75 80
28 26 41 36 46 74 73 61 56 42 54 86 78 37 42 34 22 21 36 38 28 26 22 22 24 25 17 16 10 10 8 8 25 88 89 86 97 74 56 72 78 97 86 82
71 46 61 67 68 67 60 81 48 37 70 85 83 49 18 18 21 44 53 46 38 38 38 30 25 20 25 30 34 32 39 53 53 51 81 79 85 99 80 87 99 94 71 89
75 71 52 61 85 96 93 90 99 61 80 100 94 86 60 39 52 68 64 56 60 50 41 46 50 44 34 37 62 80 83 77 83 99 98 86 88 93 98 97 99 85 90 99
100 90 90 74 94 100 90 83 100 99 91 75 100 100 94 78 75 77 72 68 73 80 70 61 60 52 50 60 83 98 97 93 98 99 98 96 81 87 89 89 91 99 97 97
98 98 100 100 100 100 100 93 91 99 100 99 100 100 100 96 90 72 66 66 67 65 55 56 42 80 83 89 96 98 100 99 97 99 98 96 98 97 98 97 98 97 97 90
99 96 84 86 100 100 98 82 65 82 100 100 100 100 100 100 76 60 60 65 67 74 78 65 83 100 100 99 99 100 98 100 100 99 99 98 99 96 99 98 98 98 92 98
86 82 83 79 67 65 96 92 97 97 100 98 99 100 99 91 67 66 69 66 65 99 100 100 100 100 100 99 100 100 100 100 100 100 99 98 98 98 98 98 98 99 98 99
58 55 57 57 56 55 85 86 100 100 100 100 81 83 88 89 89 81 75 67 70 98 100 100 99 100 100 100 100 100 100 100 100 98 98 99 100 99 98 99 98 98 99 99

GFSCGP_500_rhum_117.txt.gz
RH
2 3 2 3 6 4 2 4 6 7 9 15 26 42 51 78 100 81 72 69 67 61 68 73 59 61 56 53 49 43 37 32 34 43 44 40 32 32 27 28 36 28 30 27
7 4 9 20 20 17 5 4 5 6 9 38 68 91 48 86 77 67 86 79 74 72 70 68 82 76 75 66 54 45 40 36 37 41 41 40 38 30 35 33 23 32 33 34
21 59 25 12 11 19 14 11 6 6 12 87 97 85 62 42 78 68 63 69 80 88 92 80 81 92 84 65 53 47 42 38 37 35 36 33 38 37 36 33 22 22 21 25
74 100 96 88 56 81 28 20 20 16 39 100 94 86 86 85 95 68 55 66 63 86 99 100 94 78 81 75 64 57 52 47 42 35 35 25 23 29 25 24 20 15 18 18
69 58 100 67 84 100 56 50 41 49 99 93 100 100 64 64 91 55 48 59 76 77 96 100 100 76 69 75 75 55 49 49 47 42 38 27 20 23 22 20 18 14 11 12
88 99 81 93 95 100 48 65 95 95 99 99 88 86 61 90 72 79 81 90 96 99 96 99 96 79 60 53 51 48 52 46 46 44 40 28 26 35 34 27 19 15 9 8
75 85 90 93 86 92 100 100 94 100 100 82 92 90 16 35 57 86 95 100 98 97 96 94 92 73 46 47 44 55 69 65 66 52 40 28 28 34 32 29 22 13 9 8
94 100 93 63 99 72 100 92 96 99 78 52 48 26 14 49 67 80 97 100 93 88 98 99 88 80 74 70 66 59 79 88 91 52 38 30 28 34 31 25 18 13 9 7
79 100 100 74 100 96 55 97 100 99 93 62 44 26 59 72 99 94 75 74 99 100 100 95 86 90 91 90 79 89 85 92 87 62 40 32 31 34 27 20 14 11 11 14
67 96 100 87 97 75 68 67 68 66 68 82 74 82 92 100 75 99 86 86 100 92 81 64 61 63 79 100 97 90 92 90 81 75 45 34 34 33 28 19 13 12 20 23
30 99 100 100 98 100 94 82 61 100 99 100 94 97 98 94 92 99 96 93 98 99 83 84 99 100 98 95 89 74 67 62 47 40 37 37 33 31 29 25 19 17 22 16
43 55 88 77 99 99 79 100 100 100 100 100 100 100 100 100 97 100 100 100 100 100 100 99 98 96 90 83 92 79 71 71 84 83 68 35 29 23 20 18 18 21 18 13
56 50 69 100 90 100 100 100 100 100 100 100 99 99 99 100 98 88 83 100 99 97 98 94 94 98 83 72 65 59 44 28 21 21 23 24 21 17 15 13 13 12 14 14
50 72 100 95 100 89 73 85 99 100 100 100 99 100 98 86 95 99 97 100 95 94 85 77 94 75 40 31 20 19 26 37 18 18 18 24 28 18 15 16 15 13 14 13
30 29 88 92 100 100 90 95 76 80 96 100 98 84 100 100 100 100 99 98 97 78 72 73 75 76 64 37 14 12 8 12 14 18 19 18 18 16 15 13 13 13 13 9
11 25 73 100 100 100 99 97 85 99 100 99 94 100 100 100 98 100 99 100 97 53 57 55 25 12 18 17 31 26 6 10 11 10 11 11 10 6 6 5 5 7 6 6
21 17 24 48 99 97 100 95 98 98 95 89 87 100 100 100 100 100 98 100 94 44 20 11 7 7 6 6 7 4 4 5 6 7 8 8 6 5 6 6 6 4 3 10
24 22 28 44 48 96 100 99 98 100 100 100 100 100 100 100 100 95 96 90 71 15 11 10 8 7 5 5 5 5 4 4 4 4 6 6 6 3 2 2 2 4 8 42
93 34 34 72 63 85 100 99 94 86 100 88 95 95 100 100 99 89 81 32 15 15 15 11 8 8 9 7 6 4 3 3 3 2 2 2 2 21 38 57 60 68 50 64
97 80 75 68 79 96 73 80 100 87 81 86 90 83 71 64 49 67 33 15 16 16 15 17 17 19 20 16 16 9 7 6 4 3 3 5 5 75 96 89 90 90 73 59
94 86 69 79 68 94 100 100 80 86 76 60 86 100 96 87 59 37 19 23 24 28 28 30 33 37 35 30 20 16 17 22 28 27 44 45 44 84 92 98 98 80 95 91
98 100 86 80 81 98 96 90 89 88 84 88 80 89 88 66 76 63 53 42 48 56 58 57 64 58 51 42 41 44 48 63 69 76 66 75 100 99 96 88 100 91 98 97
100 92 84 99 93 97 88 88 91 74 74 90 85 100 89 98 98 88 75 66 69 63 64 64 62 56 59 90 99 90 75 85 84 91 97 100 99 99 95 95 97 98 94 92
100 94 100 91 86 88 96 98 91 88 80 78 84 84 90 88 92 84 83 87 63 60 64 64 71 72 75 99 100 100 100 100 98 98 98 98 97 98 98 99 90 98 96 99
96 93 73 54 64 77 70 69 83 87 94 95 90 75 100 100 98 100 98 71 64 70 68 65 92 96 99 95 100 100 100 100 99 100 100 100 98 98 98 98 98 100 98 99
80 73 67 52 45 51 49 49 45 66 81 100 98 82 92 99 100 100 88 87 88 80 73 69 84 97 97 99 100 100 100 100 100 99 99 100 100 100 99 99 99 99 99 99

GFSCGP_500_rhum_123.txt.gz
RH
12 9 6 4 4 3 2 2 2 2 3 2 2 3 3 3 4 5 7 11 20 76 80 79 74 69 67 66 62 60 59 59 47 44 41 44 49 48 58 57 47 42 47 48
7 5 4 3 2 3 2 2 4 25 20 26 5 3 3 3 3 4 5 8 11 46 100 98 89 86 83 80 70 65 66 67 53 44 49 54 79 65 58 59 50 51 56 59
4 3 2 2 4 16 16 22 35 45 36 49 46 21 3 4 3 4 4 7 10 25 93 100 99 97 98 100 81 69 66 69 71 66 53 55 86 82 60 77 94 95 93 71
3 4 6 11 24 32 32 60 60 51 54 45 82 44 19 19 8 6 5 6 11 27 65 100 98 95 90 85 76 76 72 67 72 68 71 53 70 74 75 96 94 93 88 74
5 9 16 22 26 45 45 65 55 58 74 87 69 47 18 87 54 8 7 8 18 25 69 100 99 99 84 80 81 77 77 75 75 84 94 87 69 97 98 94 96 77 63 57
12 26 31 32 44 75 63 78 52 83 77 52 36 54 55 92 59 28 44 33 18 25 60 75 100 98 91 68 84 77 86 88 90 96 89 94 97 96 96 98 96 88 63 48
26 32 31 33 58 89 92 51 65 77 51 51 100 88 37 78 84 62 48 42 34 36 43 58 96 90 91 78 81 91 95 96 92 84 85 97 95 96 95 77 72 81 71 46
17 24 21 32 47 74 77 74 93 95 99 98 82 75 79 97 100 100 96 84 58 47 52 51 39 44 68 59 72 68 68 67 64 66 66 70 80 81 91 97 96 72 70 63
17 26 27 34 53 48 52 93 92 98 100 100 82 100 80 100 98 100 95 73 86 70 87 84 92 98 94 91 92 93 85 86 85 84 78 81 82 88 89 88 90 77 85 70
30 21 24 69 64 64 79 89 85 100 100 100 97 88 89 91 99 100 100 99 89 100 94 96 87 51 54 82 94 91 94 97 96 96 88 92 91 88 76 80 76 69 83 86
30 36 39 49 90 84 80 57 70 100 100 96 99 76 100 68 72 70 73 66 68 87 100 100 99 99 98 91 98 100 100 99 99 97 98 93 88 95 75 66 61 74 75 85
31 35 40 35 100 99 94 75 55 71 98 100 100 100 91 71 43 43 41 31 36 29 31 46 72 73 100 99 99 98 98 98 100 100 98 98 95 89 80 72 79 79 71 85
16 18 40 39 63 64 57 91 100 56 75 100 100 100 100 99 57 46 34 22 24 46 60 48 48 63 70 75 90 86 79 78 81 77 78 76 68 69 71 80 86 86 82 78
14 11 20 49 73 85 56 60 83 99 99 100 100 100 100 96 98 89 80 70 74 85 94 87 85 90 92 93 97 94 78 68 73 81 68 50 45 66 61 64 61 69 76 74
15 11 20 73 98 100 71 57 71 97 88 100 100 100 100 100 100 100 99 99 98 98 89 96 99 100 100 100 100 97 92 98 78 72 63 55 61 60 68 66 60 60 63 64
29 14 22 70 78 100 100 57 60 82 80 100 100 100 100 100 100 98 99 98 99 100 99 100 99 97 92 94 97 85 54 46 52 59 70 68 48 24 45 60 49 43 26 38
31 22 20 29 58 100 100 85 80 76 78 86 100 98 100 99 99 100 100 99 100 100 100 100 97 91 91 55 47 41 49 58 54 49 54 52 51 24 16 23 23 44 26 21
43 26 30 42 75 100 100 100 100 100 89 98 98 100 99 100 96 100 100 100 95 99 100 99 91 72 39 38 34 34 30 30 18 31 24 10 30 16 39 38 37 39 46 42
58 28 31 55 100 91 100 99 100 100 99 100 100 100 100 100 100 100 97 89 97 97 92 96 90 68 40 32 46 42 31 27 17 12 10 10 8 6 4 7 8 5 11 15
52 57 60 44 71 90 78 88 81 93 92 97 96 95 95 99 94 72 66 64 68 72 75 69 54 24 23 28 26 31 28 23 14 9 8 7 6 5 5 6 6 6 6 6
62 59 55 63 64 71 64 67 55 54 64 66 64 64 65 65 71 68 61 73 71 66 72 73 73 59 43 25 22 20 18 12 9 11 8 5 4 4 5 5 4 4 4 4
61 61 50 53 61 58 57 57 60 56 52 51 58 63 63 53 46 51 59 58 52 56 49 48 45 39 31 24 18 13 9 8 9 7 6 7 6 3 3 5 6 4 2 2
53 78 73 70 72 64 64 65 70 62 49 49 53 56 54 53 54 47 40 46 46 44 48 50 45 42 35 33 31 26 19 12 12 12 16 17 5 4 4 4 3 3 12 17
36 45 91 88 74 66 58 53 49 52 62 68 78 72 65 54 44 38 34 34 32 34 43 33 40 40 26 30 36 31 28 33 40 45 48 51 53 33 34 35 20 39 44 41
41 39 44 67 74 76 71 62 55 44 38 45 53 61 52 40 30 31 35 29 35 38 46 46 40 35 34 48 40 34 38 47 50 51 53 46 49 76 64 65 64 65 71 98
36 46 49 53 68 74 63 53 44 37 34 30 41 41 39 40 39 37 49 45 42 39 49 74 66 60 60 57 53 51 65 66 63 63 68 59 57 81 97 85 100 99 97 99

GFSCGP_500_rhum_126.txt.gz
RH
36 28 23 18 14 11 8 5 4 2 2 3 2 2 2 3 3 2 2 2 3 6 9 47 50 50 63 63 63 67 60 62 73 62 68 68 68 58 55 51 49 51 52 46
33 20 17 13 8 5 3 2 2 2 4 8 4 3 4 4 2 2 2 2 2 4 6 13 66 59 55 65 66 73 64 69 71 74 80 64 73 69 62 56 57 62 46 51
20 14 9 6 3 2 2 6 11 22 16 20 28 21 13 19 23 17 16 3 2 2 5 8 59 88 92 81 71 76 82 75 73 81 80 64 60 58 60 61 65 69 60 69
10 5 4 3 2 3 3 16 29 21 21 19 14 33 7 15 19 16 17 23 8 2 4 7 57 100 100 100 90 82 94 88 76 70 71 68 60 58 62 70 79 88 85 82
4 3 3 3 7 17 18 26 27 19 25 45 42 45 35 26 46 31 22 25 20 4 4 10 34 100 97 100 99 81 86 87 81 71 70 74 72 73 69 74 78 91 94 98
4 4 10 16 16 21 27 29 29 25 46 64 97 90 91 98 100 100 89 57 18 10 7 10 28 97 98 72 61 67 74 91 80 69 73 70 74 79 82 96 95 87 97 88
8 16 18 20 17 20 25 31 20 29 56 88 98 82 54 86 100 90 84 100 94 12 9 14 29 71 83 94 86 89 96 92 94 97 88 79 76 82 94 95 96 90 96 96
10 19 15 17 17 22 31 35 24 34 81 81 100 99 74 100 100 100 92 99 100 47 17 17 29 59 72 88 83 94 100 100 100 96 96 90 92 93 100 97 97 94 96 95
16 17 20 14 18 24 37 45 57 52 90 100 95 75 100 98 100 100 77 100 100 95 27 29 50 77 63 69 82 78 81 94 99 98 98 97 97 97 97 94 93 87 83 89
23 20 30 45 28 39 36 66 60 73 93 100 100 100 89 91 100 98 100 66 80 81 60 38 34 44 67 65 77 90 90 88 100 99 97 92 93 95 88 77 74 77 82 87
18 28 30 52 52 64 65 80 88 66 87 100 95 99 99 100 100 88 96 100 88 84 74 65 61 52 60 63 62 77 79 83 82 88 90 92 93 84 82 74 66 59 66 72
18 20 17 38 82 75 55 61 80 100 100 100 100 100 100 100 100 99 74 72 98 99 100 98 92 81 81 73 86 98 87 87 93 100 100 78 86 86 83 74 73 72 51 48
15 15 17 21 65 41 42 43 55 66 78 100 100 100 100 100 81 83 100 99 57 45 64 94 100 99 97 88 98 96 99 98 100 100 100 99 99 97 98 98 87 83 75 53
12 14 15 14 42 49 38 65 60 65 75 98 100 100 100 100 100 99 66 71 81 99 100 69 38 44 59 94 82 98 91 84 95 85 83 73 71 65 62 62 59 46 57 66
24 23 16 24 78 92 80 100 90 78 88 95 100 100 100 100 100 100 100 100 82 52 44 48 68 82 77 76 63 55 59 56 72 74 71 63 60 69 65 63 38 39 40 62
25 33 25 25 99 100 100 100 100 91 76 91 100 100 100 100 100 100 100 100 100 100 100 100 100 100 100 100 100 100 99 92 78 63 86 48 42 40 43 42 42 43 44 68
35 45 28 24 74 100 100 100 100 93 93 90 97 100 100 100 96 100 100 100 100 99 100 95 100 96 97 98 98 97 92 76 77 64 44 39 45 52 51 49 53 48 42 37
40 47 27 25 98 100 100 99 99 100 100 99 100 100 100 100 99 100 93 99 100 100 100 100 100 100 98 82 90 80 71 59 37 34 36 32 30 26 43 24 29 27 35 35
39 62 44 27 94 100 100 100 100 100 100 100 100 99 97 100 98 95 90 92 99 99 94 95 99 98 95 69 64 62 56 55 47 40 36 30 26 23 14 15 20 20 18 13
50 50 64 43 29 74 98 100 100 80 85 84 92 96 94 91 91 96 70 65 61 68 85 87 75 65 60 52 54 52 50 44 40 35 30 27 24 20 17 11 6 6 13 16
35 50 50 50 49 46 50 67 72 74 74 64 54 56 58 64 64 60 71 67 66 70 64 59 64 69 68 63 58 53 45 34 27 22 20 20 21 20 17 16 14 15 8 4
40 45 55 50 45 57 64 52 53 56 56 54 54 50 46 37 42 48 39 36 48 55 50 56 58 53 48 46 41 31 23 17 13 11 10 11 11 14 13 12 11 13 14 8
38 50 62 71 61 51 64 64 57 53 50 56 54 40 37 41 41 44 43 41 41 36 38 44 43 36 32 28 27 21 17 13 11 9 10 10 9 10 9 7 7 7 9 9
18 35 45 47 64 84 78 65 56 50 46 43 46 58 56 54 48 48 46 38 36 32 32 30 28 30 32 30 22 22 18 11 11 12 12 12 10 8 7 6 10 5 4 4
10 16 35 47 51 64 71 70 61 53 45 34 29 34 39 52 53 47 38 30 32 31 26 28 31 27 17 20 25 22 23 20 23 21 24 28 41 37 25 23 36 28 11 8
11 12 16 31 51 61 65 73 67 61 42 32 30 27 27 32 42 44 40 36 34 37 39 43 46 50 58 51 49 43 42 36 30 24 24 38 50 52 47 39 38 57 60 56

GFSCGP_500_rhum_129.txt.gz
RH
79 74 64 53 46 38 32 27 22 18 8 7 4 6 9 10 8 7 8 8 7 7 7 3 6 10 15 29 47 59 65 88 67 49 54 69 63 57 59 55 52 50 47 46
82 68 54 45 32 25 20 16 8 6 2 2 3 3 3 5 5 3 4 5 5 6 7 5 3 4 12 13 31 65 69 86 89 58 63 73 77 64 64 57 53 52 47 44
68 47 34 27 18 13 5 3 2 2 2 2 4 7 3 11 7 3 2 3 2 2 3 6 4 2 9 19 15 43 71 82 91 75 70 77 78 69 67 62 56 58 57 58
35 23 15 9 5 4 2 3 4 6 11 6 22 32 10 20 42 41 47 35 11 4 5 2 3 2 7 22 46 63 80 90 97 89 74 81 75 80 80 68 64 65 60 65
25 10 6 4 3 2 4 4 15 14 16 24 47 30 28 46 61 100 100 75 70 17 10 11 8 4 4 16 60 83 80 98 100 93 81 84 83 80 80 71 67 73 75 78
9 5 4 3 5 5 6 15 19 18 21 33 59 64 32 60 98 60 79 60 78 26 21 14 11 7 3 10 76 100 100 99 100 93 89 83 90 77 80 80 75 77 86 86
4 4 4 5 10 10 16 18 21 17 22 31 78 68 89 95 98 92 70 89 98 38 25 19 17 12 6 13 95 100 100 100 99 90 100 88 80 78 82 80 80 82 84 98
5 6 10 13 12 12 18 22 29 19 20 24 45 73 98 88 100 99 96 89 98 71 32 20 21 38 32 33 100 100 88 100 98 91 98 88 78 79 86 84 84 86 86 90
6 21 16 20 22 28 34 30 39 20 26 27 50 70 90 97 100 96 100 96 100 72 45 38 98 100 97 70 100 90 83 100 92 84 84 83 86 79 85 85 86 87 82 82
9 13 21 23 24 49 32 39 46 47 33 39 58 97 94 94 92 100 100 87 100 72 66 70 100 96 93 86 81 98 92 96 98 94 98 96 92 76 78 86 75 70 90 95
8 11 19 19 21 53 77 66 49 48 67 61 79 100 98 82 96 100 98 100 87 97 74 71 69 62 58 42 65 68 98 99 98 94 99 97 96 94 72 92 96 94 98 96
7 9 16 15 18 25 55 54 44 42 53 67 99 100 100 94 94 98 100 100 99 84 98 70 60 68 51 44 41 53 58 71 95 96 93 92 98 97 98 97 91 93 83 79
7 6 6 12 13 18 52 100 70 54 66 89 100 100 100 100 94 100 100 100 98 100 98 98 100 72 48 44 48 47 56 63 71 70 74 88 89 99 79 77 89 76 72 74
10 9 7 7 12 15 58 78 80 83 92 100 94 100 100 100 100 86 100 98 100 100 99 96 97 98 98 82 97 93 88 69 68 77 71 90 100 96 83 67 56 67 83 81
11 10 8 7 14 50 91 83 82 100 96 99 99 98 100 100 100 100 100 88 77 89 100 100 100 96 99 99 98 95 78 94 98 98 98 100 77 96 89 90 95 58 45 44
12 12 11 21 22 97 90 100 72 96 100 96 100 87 74 96 99 100 100 100 100 79 66 74 89 98 85 99 74 62 82 92 76 63 73 88 61 60 59 47 38 35 32 50
14 15 21 25 26 98 100 100 94 98 100 100 100 100 77 69 80 87 90 100 100 100 100 91 99 100 77 81 79 68 57 70 90 90 76 74 66 63 51 43 38 34 40 40
13 18 29 21 26 100 100 100 100 100 100 100 100 100 99 87 95 94 92 88 98 99 100 100 100 100 100 100 100 100 99 100 97 96 80 62 53 38 32 30 26 23 27 36
12 18 24 31 23 59 96 100 100 100 97 100 100 100 98 91 96 92 88 82 73 94 98 97 96 100 100 98 83 91 37 47 37 50 67 64 49 40 33 27 22 20 16 11
14 20 27 29 45 34 35 57 77 95 99 93 91 73 83 88 84 86 94 79 79 76 73 95 100 100 89 86 92 97 95 88 67 51 45 42 38 34 30 25 22 20 17 18
12 18 28 34 35 40 48 59 63 54 60 75 76 70 59 53 51 55 61 59 65 63 72 67 61 58 61 64 64 60 56 52 47 42 37 32 30 29 25 22 18 16 13 13
6 11 19 29 36 43 49 55 69 77 64 59 50 44 41 41 40 40 40 46 43 40 44 48 49 46 46 44 45 44 43 39 31 25 21 20 18 18 19 19 18 15 11 10
6 9 13 25 42 43 52 54 59 59 55 54 49 47 50 54 50 46 46 43 39 37 37 38 32 24 28 32 33 30 26 24 22 21 19 18 15 11 8 8 10 10 10 9
6 7 8 12 26 40 46 48 59 63 58 53 55 49 44 40 44 50 50 51 51 48 39 33 31 27 22 22 27 25 19 12 10 11 11 12 11 10 8 6 4 5 6 6
7 7 8 9 12 20 32 46 53 60 56 51 45 34 26 24 31 35 46 54 48 40 33 32 33 29 25 22 21 17 16 13 12 11 12 14 13 12 12 9 7 5 5 5
7 8 10 12 14 18 31 59 75 78 73 65 53 40 36 42 45 37 30 36 46 50 50 40 40 46 42 41 56 48 53 54 42 39 37 40 34 22 28 28 29 24 22 27